[[{"header":{"parameterUnit":"m.s-1","parameterCategory":1,"la1":30.6,"la2":29.2853,"lo1":-89.7004,"lo2":-87.6739,"dy":0.0162,"dx":0.0183,"nx":112,"ny":82,"refTime":"2023-11-15T06:00:00:Z","depth":0,"parameterNumber":2,"parameterNumberName":"U-component_of_WINDS"},"data":[0.0,0.0,0.0,0.0,0.0,0.0,0.0,0.0,0.0,0.0,0.0,0.0,0.0,0.0,0.0,0.0,0.0,0.0,0.0,0.0,0.0,0.0,0.0,0.0,0.0,0.0,0.0,0.0,0.0,0.0,0.0,0.0,0.0,0.0,0.0,0.0,0.0,0.0,0.0,0.0,0.0,0.0,0.0,0.0,0.0,0.0,0.0,0.0,0.0,0.0,0.0,0.0,0.0,0.0,0.0,0.0,0.0,0.0,0.0,0.0,0.0,0.0,0.0,0.0,0.0,0.0,0.0,0.0,0.0,0.0,0.0,0.0,0.0,0.0,0.0,0.0,0.0,0.0,0.0,0.0,0.0,0.0,0.0,0.0,0.0,0.0,0.0,0.0,0.0,0.0,6.2324,6.3226,6.2614,6.1709,6.0637,5.9398,5.8256,5.7266,0.0,0.0,0.0,0.0,0.0,0.0,0.0,0.0,0.0,0.0,0.0,0.0,0.0,0.0,0.0,0.0,0.0,0.0,0.0,0.0,0.0,0.0,0.0,0.0,0.0,0.0,0.0,0.0,0.0,0.0,0.0,0.0,0.0,0.0,0.0,0.0,0.0,0.0,0.0,0.0,0.0,0.0,0.0,0.0,0.0,0.0,0.0,0.0,0.0,0.0,0.0,0.0,0.0,0.0,0.0,0.0,0.0,0.0,0.0,0.0,0.0,0.0,0.0,0.0,0.0,0.0,0.0,0.0,0.0,0.0,0.0,0.0,0.0,0.0,0.0,0.0,0.0,0.0,0.0,0.0,0.0,0.0,0.0,0.0,0.0,0.0,0.0,0.0,0.0,0.0,0.0,0.0,0.0,0.0,0.0,0.0,0.0,0.0,0.0,0.0,0.0,0.0,0.0,0.0,6.378,6.3554,6.2793,6.1855,6.0637,5.9398,5.8256,5.7266,0.0,0.0,0.0,0.0,0.0,0.0,0.0,0.0,0.0,0.0,0.0,0.0,0.0,0.0,0.0,0.0,0.0,0.0,0.0,0.0,0.0,0.0,0.0,0.0,0.0,0.0,0.0,0.0,0.0,0.0,0.0,0.0,0.0,0.0,0.0,0.0,0.0,0.0,0.0,0.0,0.0,0.0,0.0,0.0,0.0,0.0,0.0,0.0,0.0,0.0,0.0,0.0,0.0,0.0,0.0,0.0,0.0,0.0,0.0,0.0,0.0,0.0,0.0,0.0,0.0,0.0,0.0,0.0,0.0,0.0,0.0,0.0,0.0,0.0,0.0,0.0,0.0,0.0,0.0,0.0,0.0,0.0,0.0,0.0,0.0,0.0,0.0,0.0,0.0,0.0,0.0,0.0,0.0,0.0,0.0,0.0,0.0,0.0,0.0,0.0,0.0,0.0,0.0,6.3458,6.4286,6.3881,6.3607,6.2957,6.1655,6.0666,5.9571,5.8113,5.6542,0.0,0.0,0.0,0.0,0.0,0.0,0.0,0.0,0.0,0.0,0.0,0.0,0.0,0.0,0.0,0.0,0.0,0.0,0.0,0.0,0.0,0.0,0.0,0.0,0.0,0.0,0.0,0.0,0.0,0.0,0.0,0.0,0.0,0.0,0.0,0.0,0.0,0.0,0.0,0.0,0.0,0.0,0.0,0.0,0.0,0.0,0.0,0.0,0.0,0.0,0.0,0.0,0.0,0.0,0.0,0.0,0.0,0.0,0.0,0.0,0.0,0.0,0.0,0.0,0.0,0.0,0.0,0.0,0.0,0.0,0.0,0.0,0.0,0.0,0.0,0.0,0.0,0.0,0.0,0.0,0.0,0.0,0.0,0.0,0.0,0.0,0.0,0.0,0.0,0.0,0.0,0.0,0.0,0.0,0.0,0.0,0.0,0.0,0.0,0.0,0.0,0.0,6.3829,6.4453,6.4112,6.4347,6.3992,6.2658,6.2005,6.0918,5.9053,5.7493,0.0,0.0,0.0,0.0,0.0,0.0,0.0,0.0,0.0,0.0,0.0,0.0,0.0,0.0,0.0,0.0,0.0,0.0,0.0,0.0,0.0,0.0,0.0,0.0,0.0,0.0,0.0,0.0,0.0,0.0,0.0,0.0,0.0,0.0,0.0,0.0,0.0,0.0,0.0,0.0,0.0,0.0,0.0,0.0,0.0,0.0,0.0,0.0,0.0,0.0,0.0,0.0,0.0,0.0,0.0,0.0,0.0,0.0,0.0,0.0,0.0,0.0,0.0,0.0,0.0,0.0,0.0,0.0,0.0,0.0,0.0,0.0,0.0,0.0,0.0,0.0,0.0,0.0,0.0,0.0,0.0,0.0,0.0,0.0,0.0,0.0,0.0,0.0,0.0,0.0,0.0,0.0,0.0,0.0,0.0,0.0,0.0,0.0,0.0,0.0,0.0,0.0,6.4611,6.4595,6.4347,6.4742,6.4546,6.32,6.2201,6.1063,5.957,5.7676,0.0,0.0,0.0,0.0,0.0,0.0,0.0,0.0,0.0,0.0,0.0,0.0,0.0,0.0,0.0,0.0,0.0,0.0,0.0,0.0,0.0,0.0,0.0,0.0,0.0,0.0,0.0,0.0,0.0,0.0,0.0,0.0,0.0,0.0,0.0,0.0,0.0,0.0,0.0,0.0,0.0,0.0,0.0,0.0,0.0,0.0,0.0,0.0,0.0,0.0,0.0,0.0,0.0,0.0,0.0,0.0,0.0,0.0,0.0,0.0,0.0,0.0,0.0,0.0,0.0,0.0,0.0,0.0,0.0,0.0,0.0,0.0,0.0,0.0,0.0,0.0,0.0,0.0,0.0,0.0,0.0,0.0,0.0,0.0,0.0,0.0,0.0,0.0,0.0,0.0,0.0,0.0,0.0,0.0,0.0,0.0,0.0,0.0,0.0,0.0,0.0,0.0,6.4595,6.4664,6.5249,6.5218,6.4813,6.3742,6.2909,6.1789,5.979,0.0,0.0,0.0,0.0,0.0,0.0,0.0,0.0,0.0,0.0,0.0,0.0,0.0,0.0,0.0,0.0,0.0,0.0,0.0,0.0,0.0,0.0,0.0,0.0,0.0,0.0,0.0,0.0,0.0,0.0,0.0,0.0,0.0,0.0,0.0,0.0,0.0,0.0,0.0,0.0,0.0,0.0,0.0,0.0,0.0,0.0,0.0,0.0,0.0,0.0,0.0,0.0,0.0,0.0,0.0,0.0,0.0,0.0,0.0,0.0,0.0,0.0,0.0,0.0,0.0,0.0,0.0,0.0,0.0,0.0,0.0,0.0,0.0,0.0,0.0,0.0,0.0,0.0,0.0,0.0,0.0,0.0,0.0,0.0,0.0,0.0,0.0,0.0,0.0,0.0,0.0,0.0,0.0,0.0,0.0,0.0,0.0,0.0,0.0,0.0,0.0,0.0,6.4595,6.4715,6.5148,6.574,6.5604,6.5193,6.4161,6.3522,6.23,6.0025,0.0,0.0,0.0,0.0,0.0,0.0,0.0,0.0,0.0,0.0,0.0,0.0,0.0,0.0,0.0,0.0,0.0,0.0,0.0,0.0,0.0,0.0,0.0,0.0,0.0,0.0,0.0,0.0,0.0,0.0,0.0,0.0,0.0,0.0,0.0,0.0,0.0,0.0,0.0,0.0,0.0,0.0,0.0,0.0,0.0,0.0,0.0,0.0,0.0,0.0,0.0,0.0,0.0,0.0,0.0,0.0,0.0,0.0,0.0,0.0,0.0,0.0,0.0,0.0,0.0,0.0,0.0,0.0,0.0,0.0,0.0,0.0,0.0,0.0,0.0,0.0,0.0,0.0,0.0,0.0,0.0,0.0,0.0,0.0,0.0,0.0,0.0,0.0,0.0,0.0,0.0,0.0,0.0,0.0,0.0,0.0,0.0,0.0,0.0,0.0,0.0,0.0,6.4398,6.53,6.5841,6.5283,6.5785,6.5742,6.4876,6.3768,6.2446,0.0,0.0,0.0,0.0,0.0,0.0,0.0,0.0,0.0,0.0,0.0,0.0,0.0,0.0,0.0,0.0,0.0,0.0,0.0,0.0,0.0,0.0,0.0,0.0,0.0,0.0,0.0,0.0,0.0,0.0,0.0,0.0,0.0,0.0,0.0,0.0,0.0,0.0,0.0,0.0,0.0,0.0,0.0,0.0,0.0,0.0,0.0,0.0,0.0,0.0,0.0,0.0,0.0,0.0,0.0,0.0,0.0,0.0,0.0,0.0,0.0,0.0,0.0,0.0,0.0,0.0,0.0,0.0,0.0,0.0,0.0,0.0,0.0,0.0,0.0,0.0,0.0,0.0,0.0,0.0,0.0,0.0,0.0,0.0,0.0,0.0,0.0,0.0,0.0,0.0,0.0,0.0,0.0,0.0,0.0,0.0,0.0,0.0,0.0,0.0,0.0,0.0,0.0,6.5401,6.542,6.5604,6.5835,6.6036,6.5914,6.5223,6.4235,6.3007,6.1413,0.0,0.0,0.0,0.0,0.0,0.0,0.0,0.0,0.0,0.0,0.0,0.0,0.0,0.0,0.0,0.0,0.0,0.0,0.0,0.0,0.0,0.0,0.0,0.0,0.0,0.0,0.0,0.0,0.0,0.0,0.0,0.0,0.0,0.0,0.0,0.0,0.0,0.0,0.0,0.0,0.0,0.0,0.0,0.0,0.0,0.0,0.0,0.0,0.0,0.0,0.0,0.0,0.0,0.0,0.0,0.0,0.0,0.0,0.0,0.0,0.0,0.0,0.0,0.0,0.0,0.0,0.0,0.0,0.0,0.0,0.0,0.0,0.0,0.0,0.0,0.0,0.0,0.0,0.0,0.0,0.0,0.0,0.0,0.0,0.0,0.0,0.0,0.0,0.0,0.0,0.0,0.0,0.0,0.0,0.0,0.0,0.0,0.0,0.0,0.0,0.0,0.0,6.569,6.5654,6.5735,6.6086,6.6137,6.5965,6.5446,6.4556,6.3326,6.1979,0.0,0.0,0.0,0.0,0.0,0.0,0.0,0.0,0.0,0.0,0.0,0.0,0.0,0.0,0.0,0.0,0.0,0.0,0.0,0.0,0.0,0.0,0.0,0.0,0.0,0.0,0.0,0.0,0.0,0.0,0.0,0.0,0.0,0.0,0.0,0.0,0.0,0.0,0.0,0.0,0.0,0.0,0.0,0.0,0.0,0.0,0.0,0.0,0.0,0.0,0.0,0.0,0.0,0.0,0.0,0.0,0.0,0.0,0.0,0.0,0.0,0.0,0.0,0.0,0.0,0.0,0.0,0.0,0.0,0.0,0.0,0.0,0.0,0.0,0.0,0.0,0.0,0.0,0.0,0.0,0.0,0.0,0.0,0.0,0.0,0.0,0.0,0.0,0.0,0.0,0.0,0.0,0.0,0.0,0.0,0.0,0.0,0.0,0.0,0.0,0.0,0.0,6.5283,6.5785,6.6137,6.6137,6.6137,6.5965,6.5446,6.4605,6.3375,6.1979,0.0,0.0,0.0,0.0,0.0,0.0,0.0,0.0,0.0,0.0,0.0,0.0,0.0,0.0,0.0,0.0,0.0,0.0,0.0,0.0,0.0,0.0,0.0,0.0,0.0,0.0,0.0,0.0,0.0,0.0,0.0,0.0,0.0,0.0,0.0,0.0,0.0,0.0,0.0,0.0,0.0,0.0,0.0,0.0,0.0,0.0,0.0,0.0,0.0,0.0,0.0,0.0,0.0,0.0,0.0,0.0,0.0,0.0,0.0,0.0,6.8387,6.7511,0.0,0.0,0.0,0.0,0.0,0.0,0.0,0.0,0.0,0.0,0.0,0.0,0.0,0.0,0.0,0.0,0.0,0.0,0.0,0.0,0.0,0.0,0.0,0.0,0.0,0.0,0.0,0.0,0.0,0.0,0.0,0.0,0.0,0.0,0.0,0.0,0.0,0.0,0.0,0.0,6.5886,6.6036,6.6137,6.6137,6.6137,6.6086,6.5965,6.5124,6.4112,6.3007,6.149,0.0,0.0,0.0,0.0,0.0,0.0,0.0,0.0,0.0,0.0,0.0,0.0,0.0,0.0,0.0,0.0,0.0,0.0,0.0,0.0,0.0,0.0,0.0,0.0,0.0,0.0,0.0,0.0,0.0,0.0,0.0,0.0,0.0,0.0,0.0,0.0,0.0,0.0,0.0,0.0,0.0,0.0,0.0,0.0,0.0,0.0,0.0,0.0,0.0,0.0,0.0,0.0,0.0,0.0,0.0,0.0,0.0,0.0,0.0,6.9756,6.8644,0.0,0.0,0.0,0.0,0.0,0.0,0.0,0.0,0.0,0.0,0.0,0.0,0.0,0.0,0.0,0.0,0.0,0.0,0.0,0.0,0.0,0.0,0.0,0.0,0.0,0.0,0.0,0.0,0.0,0.0,0.0,0.0,0.0,0.0,0.0,0.0,0.0,0.0,0.0,0.0,6.6036,6.6137,6.6137,6.6137,6.6137,6.6137,6.6137,6.5223,6.4259,6.3178,6.1931,0.0,0.0,0.0,0.0,0.0,0.0,0.0,0.0,0.0,0.0,0.0,0.0,0.0,0.0,0.0,0.0,0.0,0.0,0.0,0.0,0.0,0.0,0.0,0.0,0.0,0.0,0.0,0.0,0.0,0.0,0.0,0.0,0.0,0.0,0.0,0.0,0.0,0.0,0.0,0.0,0.0,0.0,0.0,0.0,0.0,0.0,0.0,0.0,0.0,0.0,0.0,0.0,0.0,7.6505,7.6288,7.6489,7.5493,7.4936,7.4549,7.1783,7.012,6.9329,6.903,0.0,0.0,0.0,0.0,0.0,0.0,0.0,0.0,0.0,0.0,0.0,0.0,0.0,0.0,0.0,0.0,0.0,0.0,0.0,0.0,0.0,0.0,6.7617,6.6685,6.6638,6.6395,6.4976,0.0,0.0,0.0,0.0,0.0,0.0,0.0,0.0,0.0,0.0,0.0,6.6036,6.6137,6.6137,6.6137,6.6137,6.6137,6.5965,6.5223,6.4309,6.3325,6.1807,6.0466,0.0,0.0,0.0,0.0,0.0,0.0,0.0,0.0,0.0,0.0,0.0,0.0,0.0,0.0,0.0,0.0,0.0,0.0,0.0,0.0,0.0,0.0,0.0,0.0,0.0,0.0,0.0,0.0,0.0,0.0,0.0,0.0,7.0906,7.1041,0.0,0.0,0.0,0.0,0.0,0.0,0.0,0.0,0.0,0.0,0.0,0.0,0.0,7.9382,7.9652,8.0103,8.0133,7.951,7.9762,7.9562,7.9033,7.8513,7.8113,7.7833,7.6465,0.0,7.14,7.1147,0.0,0.0,0.0,0.0,0.0,0.0,0.0,0.0,0.0,0.0,0.0,0.0,0.0,0.0,0.0,0.0,0.0,0.0,0.0,0.0,0.0,0.0,6.8187,6.7861,6.7403,6.6861,6.6166,6.6055,6.5943,6.5123,6.4945,6.488,0.0,0.0,0.0,0.0,0.0,0.0,6.6086,6.6137,6.6137,6.6137,6.6137,6.5965,6.5619,6.505,6.4282,6.3348,6.1874,6.0655,5.9523,5.8612,0.0,0.0,0.0,0.0,0.0,0.0,0.0,0.0,0.0,0.0,0.0,0.0,0.0,0.0,0.0,0.0,0.0,0.0,0.0,0.0,0.0,0.0,0.0,0.0,0.0,0.0,0.0,0.0,0.0,7.1785,7.3138,7.3138,7.5168,7.6521,0.0,0.0,0.0,0.0,0.0,0.0,0.0,0.0,0.0,8.1705,8.2073,8.2385,8.2867,8.2748,8.2739,8.2591,8.2099,8.1925,8.2018,8.1091,8.0528,8.0547,7.9738,7.8127,7.6181,7.445,7.3533,7.34,0.0,0.0,0.0,0.0,7.2176,7.2116,7.1398,7.1218,7.1218,7.1218,0.0,0.0,0.0,0.0,0.0,0.0,0.0,7.0724,7.0604,7.0005,6.9411,6.8945,6.8562,6.8253,6.7531,6.7451,6.7128,6.5401,6.5234,6.5201,6.5333,6.5886,0.0,0.0,0.0,6.7041,6.7041,6.7041,6.694,6.6639,6.6415,6.5968,6.5446,6.4702,6.3982,6.2925,6.1987,6.0908,5.9692,5.8992,5.8202,0.0,0.0,0.0,0.0,0.0,0.0,0.0,0.0,0.0,0.0,0.0,0.0,0.0,0.0,0.0,0.0,0.0,0.0,0.0,0.0,0.0,0.0,0.0,0.0,0.0,0.0,0.0,0.0,7.4086,7.5506,7.5506,7.7604,7.9092,0.0,0.0,0.0,0.0,0.0,0.0,8.3148,8.406,8.4773,8.4966,8.4984,8.5438,8.6188,8.5632,8.5397,8.5541,8.467,8.4605,8.495,8.3873,8.334,8.3552,8.274,8.193,8.0794,7.7785,7.6343,7.5886,7.5886,7.5886,7.5826,7.5168,7.4809,7.4569,7.3911,7.3552,7.3432,7.3432,7.3417,7.3401,7.3171,0.0,0.0,0.0,0.0,7.2198,7.1895,7.1295,7.0557,6.9741,6.9653,6.9264,6.8527,6.8366,6.7815,6.6145,6.5805,6.6086,6.6488,6.689,0.0,6.7744,6.7794,6.7794,6.7794,6.7794,6.7643,6.7066,6.6516,6.5917,6.5346,6.445,6.3505,6.2545,6.1699,6.0757,5.9677,5.8968,5.8435,5.8072,0.0,0.0,0.0,0.0,0.0,0.0,0.0,0.0,0.0,0.0,0.0,0.0,0.0,0.0,0.0,0.0,0.0,0.0,0.0,0.0,0.0,0.0,0.0,0.0,0.0,0.0,0.0,0.0,0.0,7.7807,8.0378,0.0,0.0,0.0,0.0,8.4645,8.5416,8.6196,8.6806,8.6684,8.7304,8.9121,8.8123,8.8005,8.9181,8.8723,8.836,8.7912,8.8073,8.8134,8.7732,8.7205,8.7049,8.7049,8.5918,8.5103,8.4205,8.0913,7.9178,7.8579,7.8579,7.8579,7.8519,7.7861,7.7203,7.6604,7.5946,7.5347,7.4749,7.4749,7.4952,7.5128,7.5008,7.5072,0.0,0.0,7.4011,7.3645,7.2986,7.2179,7.1409,7.0651,6.9782,6.9142,6.862,6.8146,6.7744,6.7643,6.7643,6.7693,6.7693,0.0,6.7744,6.7794,6.7794,6.7794,6.7794,6.7794,6.7617,6.7086,6.6589,6.589,6.4958,6.3989,6.3121,6.2588,6.0869,5.9697,5.9697,5.8752,5.8027,5.7526,5.7415,0.0,0.0,0.0,0.0,0.0,0.0,0.0,0.0,0.0,0.0,0.0,0.0,0.0,0.0,0.0,0.0,0.0,0.0,0.0,0.0,0.0,0.0,0.0,0.0,0.0,0.0,0.0,0.0,8.2137,8.4031,0.0,8.623,8.7442,8.8176,8.8357,8.9111,8.9478,8.9315,9.0487,9.1047,9.0711,9.1175,9.1544,9.1593,9.1082,9.099,9.1013,9.0563,9.0204,9.0043,8.9558,8.9395,8.9395,8.8993,8.8274,8.7197,8.6,8.3846,8.1332,8.1332,8.1332,8.1272,8.0614,7.9956,7.9297,7.8639,7.7981,7.7382,7.7098,7.6703,7.6417,7.6471,7.637,7.6262,7.5881,7.5587,7.512,7.4415,7.3844,7.3196,7.2368,7.1801,7.1218,7.0808,7.0266,6.9903,6.9903,6.8748,6.7894,6.8246,6.8346,6.8447,6.8798,6.8848,6.8848,6.8848,6.849,6.821,6.7683,6.6897,6.5787,6.4521,6.3744,6.2789,6.1382,6.0655,5.984,5.8747,5.8196,5.7459,5.7088,5.6703,5.6226,0.0,0.0,0.0,0.0,0.0,0.0,0.0,0.0,0.0,0.0,0.0,0.0,0.0,0.0,0.0,0.0,0.0,0.0,0.0,0.0,0.0,0.0,0.0,0.0,0.0,8.2746,8.4776,8.5993,8.7777,8.9171,8.9951,9.0806,9.1648,9.1973,9.238,9.2646,9.2684,9.3744,9.4122,9.3606,9.4291,9.4463,9.4265,9.3884,9.3485,9.3483,9.2821,9.2488,9.2321,9.2153,9.1985,9.1985,9.1746,9.1027,9.001,8.9771,8.7975,8.5342,8.4444,8.4085,8.4025,8.3367,8.2709,8.1991,8.0944,8.0347,7.9841,7.9248,7.8649,7.8103,7.8108,7.7719,7.7491,7.7323,7.6897,7.6121,7.5544,7.4888,7.4156,7.3091,7.2682,7.2211,7.1661,7.1243,7.1108,7.1108,6.9903,6.9049,6.9401,6.9451,6.9551,6.9953,7.0003,7.0003,6.9821,6.9257,6.8693,6.7932,6.686,6.5779,6.456,6.3225,6.217,6.0753,6.0022,5.9016,5.8093,5.7349,5.6789,5.6602,5.6208,5.5767,5.5171,0.0,0.0,0.0,0.0,0.0,0.0,0.0,0.0,0.0,0.0,0.0,0.0,0.0,0.0,0.0,0.0,0.0,0.0,0.0,0.0,0.0,0.0,0.0,8.3896,8.6264,8.8429,8.9173,9.1531,9.299,9.2815,9.413,9.5078,9.5407,9.5245,9.5522,9.6945,9.6253,9.636,9.7748,9.7333,9.7045,9.7227,9.6893,9.622,9.5368,9.5368,9.5024,9.4738,9.4738,9.4678,9.4678,9.396,9.3302,9.2643,9.1985,9.1327,9.0489,8.7856,8.6778,8.6718,8.606,8.5402,8.4469,8.2848,8.2278,8.2125,8.1195,8.0726,8.0194,7.9718,7.921,7.8734,7.8568,7.7837,7.6727,7.6203,7.5145,7.3947,7.2861,7.2313,7.1712,7.1394,7.1209,7.1209,7.1209,7.1209,7.1158,7.1108,7.1108,7.1108,7.1108,7.1108,0.0,7.0316,6.9869,6.9153,6.8039,6.6561,6.5567,6.5014,6.2596,6.1258,6.1074,5.8914,5.7536,5.7349,5.6414,5.585,5.5892,5.5978,5.5669,5.5107,0.0,0.0,0.0,0.0,0.0,0.0,0.0,0.0,0.0,0.0,0.0,0.0,0.0,0.0,0.0,0.0,0.0,0.0,0.0,0.0,0.0,8.8294,8.9241,8.7753,8.9647,9.1764,9.3418,9.5116,9.6356,9.6528,9.7857,9.8571,9.8035,9.8982,9.9281,9.8966,9.9704,10.0141,10.0101,10.0116,10.004,9.971,9.8843,9.8317,9.8141,9.7787,9.7609,9.7431,9.6952,9.6713,9.6653,9.6055,9.5396,9.4738,9.4558,9.384,9.2583,9.0369,8.9232,8.8813,8.8634,8.7694,8.63,8.5248,8.4475,8.3834,8.3348,8.286,8.2368,8.1205,8.0645,8.0416,7.9421,7.8992,7.8497,7.7844,7.7034,7.6294,7.5173,7.4608,7.404,7.3659,7.3519,7.3519,7.3519,7.3519,7.2966,7.1359,7.1108,7.1108,7.1108,7.1108,7.0923,7.0366,6.9845,6.9038,6.7713,6.6862,6.5587,6.3525,6.2264,6.1194,5.9706,5.8278,5.7117,5.6359,5.5745,5.5145,5.4699,5.4862,5.4789,0.0,0.0,0.0,0.0,0.0,0.0,0.0,0.0,0.0,0.0,0.0,0.0,0.0,0.0,0.0,0.0,0.0,0.0,0.0,0.0,0.0,0.0,9.1947,9.3639,9.3706,9.4586,9.5818,9.7404,9.9094,10.005,10.0242,10.1141,10.1544,10.1298,10.1639,10.1889,10.1949,10.2429,10.2699,10.2357,10.2687,10.235,10.1636,10.1035,10.0552,10.0129,9.9947,9.9586,9.9346,9.8927,9.8748,9.8688,9.779,9.7192,9.6773,9.6234,9.5516,9.4618,0.0,0.0,0.0,0.0,8.9501,8.8219,8.7639,8.6862,8.5971,8.5235,8.4445,8.3535,8.2391,8.1466,8.0643,7.9957,7.9288,7.8666,7.8062,7.7233,7.6667,7.5717,7.5143,7.4758,7.4423,7.4423,7.4423,7.4423,7.4423,0.0,7.2715,7.2464,7.2414,7.2163,7.1925,7.1499,7.0685,6.9872,6.887,6.7773,6.6393,6.4971,6.337,6.1818,0.0,0.0,0.0,5.6248,5.5323,5.4894,0.0,0.0,0.0,5.4764,5.4764,5.524,0.0,0.0,5.4234,5.4306,0.0,0.0,0.0,0.0,0.0,0.0,0.0,0.0,0.0,0.0,0.0,0.0,0.0,0.0,0.0,0.0,9.5533,9.824,10.0405,10.0472,10.0548,10.1376,10.2927,10.3921,10.3876,10.4244,10.4518,10.477,10.3961,10.3932,10.5321,10.4524,0.0,0.0,0.0,10.437,10.3446,10.3446,10.2712,10.18,10.18,10.1501,10.0902,10.0782,10.0723,10.0663,9.9346,9.8748,9.8628,9.7431,9.6833,9.6473,9.4558,9.3421,9.2823,9.2105,9.1111,9.013,8.9504,0.0,0.0,8.6803,8.5526,8.4354,8.3438,8.2021,8.0571,8.0388,7.9467,7.8403,7.7786,7.7029,7.6075,7.5498,7.5112,7.4674,7.4674,7.4623,7.4573,7.4573,7.4573,7.4573,7.4573,7.4523,7.4272,7.377,7.3286,7.2509,7.1339,6.9889,6.8828,6.7911,6.5709,0.0,6.3902,6.1392,5.9701,5.9463,5.7241,5.5426,5.4481,5.4323,5.4564,5.5005,5.5366,5.5603,5.5631,5.5859,5.5887,5.5508,5.543,5.539,0.0,0.0,0.0,0.0,0.0,0.0,0.0,0.0,0.0,0.0,0.0,0.0,0.0,0.0,0.0,9.6548,9.9457,10.2028,10.3585,10.5482,10.6357,10.5006,10.5581,10.6192,10.6247,10.7102,10.7392,10.6942,10.694,10.7169,10.7355,10.6483,10.5954,10.6264,10.5522,10.496,10.4772,10.4394,10.4204,10.3835,10.3835,0.0,10.3595,10.2578,10.2099,10.2039,10.0663,10.0124,10.0064,9.9286,9.8269,9.7192,9.5755,9.5097,9.4858,9.3317,9.2264,9.1567,9.0168,8.9292,8.8526,8.7158,8.6615,8.6012,8.4241,8.3438,0.0,8.1733,8.0772,8.0191,7.9606,7.8822,7.8031,7.7832,7.7131,7.6381,7.6381,7.603,7.5728,7.5728,7.5728,7.5728,7.5728,7.5025,7.4372,7.4272,7.3835,7.3054,7.1929,7.081,6.9252,6.6984,6.5968,6.4467,6.2526,6.1312,6.0055,5.8273,5.6614,5.5366,5.4762,5.512,5.5314,5.5336,5.5208,5.5482,5.5913,5.6345,5.6737,5.6836,5.6133,5.6015,0.0,0.0,0.0,0.0,0.0,0.0,0.0,0.0,0.0,0.0,0.0,9.0865,9.3165,0.0,9.7766,10.0405,10.2976,10.5411,10.717,10.9184,10.9633,10.7681,10.83,10.8869,10.8521,10.9425,10.9611,10.8888,10.8981,10.9108,10.9512,10.8597,10.8162,10.827,10.7568,10.693,10.6797,10.6543,10.6049,10.5391,10.5391,10.5032,10.4373,10.3715,10.3476,10.3416,10.2099,10.1501,10.1381,10.0423,9.9586,9.8867,9.791,9.6952,9.5995,9.4811,9.3985,9.3394,9.2208,9.1007,8.9978,8.8433,8.7094,8.6045,8.4308,8.3385,8.2618,8.1404,8.0818,8.0281,7.949,7.8892,7.8492,7.809,7.7687,7.7285,7.7285,7.7084,7.6883,7.6883,7.6632,7.6482,7.6482,7.5581,7.4734,7.4484,7.4043,7.3207,7.1686,7.0651,6.9173,6.7183,6.5665,6.4103,6.2411,6.074,5.9109,5.7475,5.6413,5.5678,5.5061,5.5258,5.5404,5.5625,5.582,5.6133,5.6562,5.6992,5.7461,5.7851,5.7656,5.7578,0.0,0.0,0.0,0.0,0.0,0.0,0.0,8.6345,8.8429,9.0662,9.2353,9.4315,9.7022,9.8984,10.1081,10.3787,10.6088,10.8321,11.0481,11.2002,11.2302,11.027,11.086,11.1396,11.1367,11.1396,11.1417,11.0797,11.0602,11.0753,11.1192,11.0374,10.9915,10.9638,10.9489,10.8899,10.8383,10.8383,10.7844,10.6767,10.6767,10.6169,10.4972,10.4792,10.4732,10.4493,10.3236,10.2578,10.2398,10.1201,10.0603,10.0423,9.9702,9.8567,9.7073,9.6179,9.5462,9.492,9.3648,9.2479,9.1049,8.9279,8.7423,8.591,8.4548,8.3259,8.1892,8.1498,8.0852,8.0003,7.9201,7.8898,7.8645,7.8241,7.7938,7.7837,7.7837,7.7787,7.7687,7.7687,7.7335,7.7034,7.6833,7.6083,7.5385,7.4689,7.3996,7.3204,7.1674,7.0377,6.8979,6.7457,6.5423,6.3799,6.2384,6.0068,5.8169,5.7338,5.6712,5.6084,5.5664,5.5742,5.5976,5.6289,5.6758,5.7187,5.7578,5.8047,5.8476,5.8945,5.9297,5.918,8.5402,8.4903,8.4984,8.5373,8.6303,8.7356,0.0,8.9465,9.1474,9.3706,9.5872,9.7901,9.9525,10.2164,10.4599,10.6291,10.8388,11.0549,11.2425,11.3737,11.4211,11.3846,11.333,11.3256,11.4073,11.3745,11.3309,11.2946,11.2797,11.2311,11.1306,11.0961,11.0244,10.9112,10.9319,10.9041,10.8383,10.8383,10.8263,10.8144,10.8144,10.7785,10.7007,10.6408,10.5869,10.5211,10.3895,10.2997,10.2398,10.168,10.0962,10.0423,9.981,9.9506,9.909,9.6821,9.5441,9.4402,9.2895,9.1597,9.0457,8.8941,8.791,8.6925,8.5369,8.4511,8.3955,8.3343,8.2161,8.093,8.0724,7.9958,7.9193,7.9193,7.8792,7.844,7.844,7.8038,7.7687,7.7687,7.7637,7.7384,7.7029,7.6776,7.6379,7.5335,7.4387,7.3139,7.2003,7.0493,6.9083,6.7349,6.561,6.3688,6.1532,5.9842,5.8746,5.8065,5.7422,5.6992,5.6992,5.7383,5.7617,5.7656,5.8086,5.8515,5.8945,5.9414,5.9805,6.0195,6.0273,6.0078,8.8019,8.7263,8.7126,8.835,8.9294,9.041,9.1771,9.3079,9.4654,9.736,9.939,10.1216,10.3111,10.5614,10.7779,10.9268,11.1365,11.3184,11.4098,11.5684,11.6348,11.5613,11.5673,11.5346,11.464,11.4471,11.437,11.3796,11.3743,11.3358,11.2828,11.2717,11.2365,11.1524,11.1099,11.0956,11.0657,11.0657,11.0298,10.952,10.952,10.8982,10.7964,10.7665,10.7007,10.5929,10.5032,10.4194,10.3595,10.2877,10.2398,10.2159,10.0763,10.0091,9.9597,9.761,9.6404,9.5491,9.3493,9.219,9.0884,8.8982,8.7827,8.6772,8.5037,8.4321,8.3706,8.2673,8.2105,8.1485,8.1119,8.0708,8.0348,8.0348,7.9896,7.9495,7.9495,7.9093,7.8691,7.8691,7.839,7.7985,7.7373,7.692,7.6116,7.4858,7.4109,7.3206,7.1737,7.0424,6.8558,6.5977,6.3822,6.2209,6.0926,5.9646,5.8662,5.8446,5.8013,5.7578,5.7578,5.8008,5.8359,5.8633,5.9062,5.9453,5.9922,6.0351,6.0781,6.1172,6.1445,6.1368,9.0246,8.9697,8.962,9.1432,9.2407,9.3447,9.5398,9.648,9.7834,10.0811,10.2502,10.4126,10.6291,10.8388,11.035,11.1974,11.3801,11.5211,11.5834,11.7076,11.7594,11.6816,11.7252,11.6835,11.5377,11.5336,11.5277,11.468,11.4421,11.4271,11.3769,11.404,11.3739,11.2947,11.2718,11.2513,11.2273,11.2273,11.1794,11.0837,11.0717,10.9999,10.8862,10.8563,10.7785,10.6647,10.5989,10.5331,10.4613,10.4014,10.3715,10.3405,10.1704,10.0661,9.9838,9.8234,9.6903,9.5826,9.4216,9.2753,9.1316,8.9476,8.8046,8.6607,8.5157,8.4121,8.3343,8.2507,8.1935,8.1623,8.1252,8.1152,8.1051,8.1051,8.075,8.0449,8.0449,8.0147,7.9846,7.9846,7.9188,7.8581,7.7961,7.6895,7.5674,7.4889,7.3783,7.2521,7.1332,6.9745,6.7855,6.4982,6.3133,6.1666,6.1012,6.0137,5.9437,5.9217,5.8776,5.8555,5.8555,5.8867,5.9219,5.9531,6.0039,6.0508,6.0781,6.1367,6.1758,6.207,6.2186,6.2298,9.1972,9.2108,9.2543,9.4447,9.5535,9.6571,9.8566,9.9525,10.0946,10.3923,10.5208,10.6426,10.8659,11.0283,11.2109,11.4207,11.5289,11.6213,11.7679,11.7927,11.7837,11.7448,11.7798,11.7663,11.6971,11.6499,11.6163,11.5927,11.5415,11.4815,11.3839,11.4507,11.4162,11.2333,11.2931,11.2991,11.2273,11.2273,11.2273,11.2213,11.1615,11.0897,11.0238,10.8982,10.7964,10.7306,10.6707,10.5989,10.5331,10.4613,10.4182,10.3546,10.2256,10.1245,10.015,9.8388,9.6764,9.5092,9.4499,9.2899,9.1065,9.0392,8.8718,8.683,8.6197,8.4775,8.3464,8.3464,8.2633,8.1805,8.1805,8.1403,8.1051,8.1051,8.1001,8.1001,8.1001,8.1001,8.1001,8.1001,8.008,7.9101,7.863,7.7133,7.5735,7.531,7.3341,7.1544,7.1085,6.9061,6.684,6.5076,6.4227,6.3516,6.2392,6.1715,6.1034,6.0351,6.039,6.039,6.039,6.039,6.039,6.039,6.125,6.164,6.168,6.2578,6.2969,6.2969,6.2292,6.2284,9.4495,9.4836,9.5399,9.7943,9.8634,9.9582,10.2164,10.2976,10.3923,10.6426,10.7915,10.92,11.0418,11.2312,11.4004,11.5222,11.6507,11.7495,11.788,11.8731,11.8903,11.758,11.8086,11.8441,11.774,11.6917,11.6432,11.5989,11.57,11.5573,11.5175,11.5433,11.5563,11.4966,11.5206,11.4966,11.4248,11.4248,11.3829,11.2991,11.1794,11.1196,11.0897,10.964,10.8922,10.8682,10.7545,10.6887,10.6647,10.5123,10.4453,10.4064,10.2183,10.1067,10.0069,9.8102,9.647,9.5078,9.3877,9.2268,9.0913,8.8986,8.8038,8.7245,8.58,8.5,8.4631,8.4198,8.3578,8.2909,8.2909,8.2508,8.2106,8.2106,8.1805,8.1553,8.1553,8.1252,8.084,8.0368,8.0007,7.9434,7.8155,7.7365,7.6407,7.4665,7.2555,7.0511,6.8934,6.7321,6.5782,6.4492,6.3373,6.2473,6.1607,6.1113,6.0658,6.043,6.043,6.0547,6.0859,6.1133,6.1406,6.1719,6.2305,6.2578,6.2578,6.3164,6.3353,6.3142,6.3207,6.3063,9.725,9.7604,9.8283,10.1081,10.1825,10.2502,10.5276,10.5885,10.6426,10.8388,10.9809,11.1027,11.1974,11.3801,11.5425,11.6507,11.7725,11.8507,11.8752,11.9534,11.9636,11.8433,11.8869,11.898,11.8445,11.775,11.712,11.68,11.6231,11.6149,11.6268,11.6314,11.6438,11.6283,11.6283,11.6103,11.5684,11.5684,11.4966,11.365,11.2513,11.1794,11.1316,11.0478,10.9819,10.94,10.8503,10.7785,10.7306,10.5881,10.5013,10.452,10.249,10.097,9.9965,9.8118,9.6344,9.4865,9.3418,9.2042,9.0938,8.8986,8.8027,8.7176,8.5929,8.5174,8.4753,8.4315,8.4064,8.3813,8.3813,8.3512,8.3261,8.3261,8.2809,8.2407,8.2407,8.1792,8.1179,8.0752,8.0175,7.9169,7.804,7.7027,7.5398,7.3132,7.165,7.0049,6.841,6.707,6.5719,6.4771,6.3631,6.2753,6.2292,6.1599,6.1367,6.1367,6.1367,6.1484,6.1758,6.207,6.2305,6.2578,6.3203,6.3515,6.3515,6.382,6.4004,6.3746,6.3559,6.3116,9.9863,10.0405,10.1149,10.4126,10.487,10.5411,10.7644,10.8118,10.8524,11.0012,11.0959,11.1906,11.3327,11.4816,11.6304,11.7793,11.8672,11.9384,12.0026,12.0137,12.0102,11.9811,11.9502,11.9339,11.9033,11.8509,11.8173,11.8235,11.7216,11.6882,11.6997,11.7038,11.6979,11.6343,11.6403,11.6403,11.6343,11.6283,11.5625,11.4308,11.3709,11.2692,11.1435,11.1316,11.0597,10.952,10.94,10.8682,10.7485,10.6774,10.5763,10.4576,10.2732,10.1287,9.9532,9.8291,9.6608,9.4484,9.3188,9.2121,9.1003,8.9713,8.8263,8.6709,8.6271,8.5258,8.4416,8.4416,8.4416,8.4366,8.4366,8.4315,8.4315,8.4315,8.3914,8.3512,8.3512,8.2677,8.1845,8.1845,7.9881,7.8229,7.8229,7.5819,7.3044,7.0782,7.0326,7.0054,6.9323,6.7708,6.6545,6.5843,6.4667,6.3958,6.3958,6.3285,6.3047,6.3047,6.3047,6.3047,6.3086,6.3086,6.3086,6.3164,6.3945,6.4375,6.4375,6.4455,6.4592,6.4381,6.313,6.2123,10.2976,10.3585,10.4126,10.6561,10.717,10.7644,10.9335,10.9741,11.0012,11.0892,11.2109,11.3192,11.353,11.4816,11.6304,11.7793,11.8266,11.8777,11.9959,12.0606,12.0835,12.0598,12.0283,12.0243,12.0441,11.9454,11.9109,11.9608,11.8,11.7386,11.8332,11.7521,11.7395,11.7719,11.7719,11.748,11.7001,11.6522,11.5864,11.5026,11.4368,11.359,11.2812,11.1794,11.1136,11.0777,10.9819,10.9021,10.8143,10.6532,10.5257,10.4011,10.2355,10.0606,9.8965,9.7273,9.5882,9.4433,9.2386,9.1145,9.0237,8.8729,8.7594,8.6831,8.6217,8.5894,8.5571,8.5571,8.527,8.4918,8.4918,8.4617,8.4315,8.4315,8.4215,8.3846,8.3457,8.3307,8.2768,8.1934,7.9445,7.7221,7.6351,7.4129,7.2252,7.1515,6.9888,6.8464,6.756,6.7011,6.6077,6.4667,6.4194,6.3721,6.3246,6.3008,6.3047,6.3047,6.3047,6.3164,6.3515,6.3789,6.414,6.4414,6.5,6.5026,6.4532,6.4515,6.4284,6.3543,6.253,6.1657,10.5073,10.6156,10.7103,10.8997,10.9741,11.0215,11.1095,11.1298,11.1298,11.1365,11.2312,11.3192,11.353,11.4816,11.6304,11.7793,11.8402,11.9047,12.0495,12.1209,12.1634,12.1254,12.1584,12.1728,12.1529,12.0588,12.0419,12.1417,11.9208,11.8211,11.9304,11.8544,11.8378,11.9096,11.9096,11.8796,11.8078,11.7181,11.6462,11.6103,11.5206,11.4368,11.3709,11.2692,11.1914,11.1256,11.0335,10.9333,10.8476,10.6897,10.5673,10.4299,10.2426,10.072,9.9119,9.7137,9.5732,9.4323,9.2303,9.0934,9.0126,8.8448,8.7797,8.7401,8.6951,8.6676,8.6676,8.6425,8.6123,8.5822,8.5571,8.532,8.5069,8.5069,8.4647,8.4226,8.3783,8.3141,8.2103,8.0258,7.8478,7.655,7.4893,7.3456,7.2285,7.1343,6.9919,6.8277,6.7347,6.6422,6.5744,6.4552,6.4274,6.4034,6.3594,6.3789,6.3867,6.3867,6.4062,6.4258,6.4492,6.4726,6.5,6.5234,6.5416,6.515,6.49,6.4551,6.3768,6.2974,6.1876,6.0838,10.69,10.8456,10.9809,11.1298,11.2177,11.2583,11.2515,11.2448,11.2312,11.1568,11.1974,11.2718,11.3463,11.4748,11.6237,11.7793,11.8605,11.9587,12.1099,12.1878,12.2234,12.2041,12.295,12.3342,12.2297,12.1785,12.1916,12.3102,12.0804,11.9607,12.0093,11.9627,11.9634,12.0233,12.0233,11.9874,11.9215,11.8018,11.742,11.724,11.5984,11.5086,11.4428,11.365,11.2692,11.1555,11.0761,10.9843,10.8571,10.7372,10.5931,10.4787,10.2427,10.0876,9.9481,9.72,9.5617,9.4183,9.2595,9.1265,9.0032,8.8967,8.8538,8.8311,8.7857,8.758,8.7529,8.7027,8.6877,8.6776,8.6324,8.6224,8.6174,8.6123,8.5225,8.4429,8.433,8.2866,8.0902,7.8347,7.7378,7.6217,7.378,7.3069,7.2355,7.072,6.9753,6.874,6.7558,6.6428,6.5425,6.5464,6.4736,6.4492,6.4492,6.4844,6.5,6.5,6.5351,6.5586,6.5586,6.5664,6.5703,6.5664,6.542,6.5361,6.5148,6.4295,6.3454,6.2717,6.1088,5.9958,10.9947,11.0824,11.1365,11.2786,11.3327,11.3192,11.2583,11.2448,11.2312,11.1568,11.1974,11.2718,11.3463,11.4274,11.5628,11.7793,11.8199,11.898,12.0807,12.1878,12.2434,12.2698,12.321,12.3472,12.3001,12.292,12.2915,12.3227,12.2092,12.1429,12.1489,12.065,12.0113,12.0233,12.0233,11.9874,11.9215,11.8976,11.8318,11.724,11.6462,11.5744,11.5086,11.3889,11.3231,11.2931,11.1178,11.0171,10.9256,10.7104,10.5387,10.3679,10.2203,10.0197,9.7799,9.6812,9.5107,9.2946,9.166,9.0748,9.0086,8.8842,8.8085,8.7857,8.763,8.758,8.758,8.7529,8.7429,8.7429,8.7329,8.7329,8.7178,8.6776,8.6124,8.5246,8.4299,8.279,8.0763,7.821,7.6996,7.5404,7.3587,7.192,7.072,6.9711,6.874,6.7558,6.6781,6.6416,6.6091,6.5637,6.539,6.5351,6.5351,6.543,6.5469,6.5469,6.5547,6.5586,6.5586,6.5937,6.5883,6.5382,6.5861,6.5735,6.4488,6.412,6.3222,6.1907,6.062,5.8756,11.1034,11.2386,11.326,11.4004,11.4477,11.4477,11.3327,11.3057,11.2786,11.1568,11.1703,11.2177,11.2921,11.3598,11.468,11.6643,11.759,11.871,12.0495,12.1945,12.2966,12.2894,12.3991,12.4634,12.4216,12.3991,12.41,12.4787,12.3687,12.2825,12.24,12.1733,12.119,12.119,12.0951,12.0592,12.0233,11.9515,11.8856,11.8198,11.724,11.6403,11.5804,11.4787,11.4009,11.3291,11.1803,11.0526,10.961,10.756,10.5616,10.3717,10.2017,10.0101,9.8061,9.6568,9.5178,9.3555,9.2463,9.1539,9.1024,9.0003,8.9167,8.8433,8.8433,8.8433,8.8433,8.8132,8.8032,8.7981,8.768,8.758,8.7529,8.6824,8.581,8.4562,8.3287,8.1569,7.979,7.8014,7.6312,7.4835,7.3372,7.1679,7.0459,6.9723,6.8697,6.7746,6.7249,6.6999,6.6553,6.5664,6.5586,6.5586,6.5586,6.582,6.5937,6.5937,6.6133,6.6328,6.6562,6.6544,6.6231,6.6246,6.5821,6.5272,6.4231,6.3367,6.2121,6.0528,5.8925,5.7411,11.199,11.3685,11.4825,11.4883,11.5289,11.5222,11.3936,11.3463,11.2989,11.1703,11.1365,11.1568,11.238,11.2989,11.3936,11.5492,11.6913,11.8372,11.9959,12.2079,12.3366,12.3157,12.4707,12.5732,12.5432,12.4873,12.5098,12.6409,12.5221,12.3941,12.3177,12.2714,12.2507,12.2387,12.1909,12.149,12.119,11.9993,11.9275,11.9156,11.7839,11.6881,11.6283,11.5565,11.4667,11.3322,11.2096,11.0814,10.9663,10.7678,10.5989,10.3904,10.1811,9.9876,9.8423,9.6358,9.4953,9.416,9.3055,9.2121,9.1652,9.0944,9.0342,8.9639,8.9639,8.9538,8.9387,8.8935,8.8735,8.8534,8.8082,8.7931,8.7752,8.6864,8.5147,8.3553,8.2186,8.0724,7.9158,7.7554,7.5934,7.4238,7.2728,7.1454,7.0381,6.9635,6.8636,6.7843,6.7592,6.7127,6.664,6.6055,6.5937,6.5859,6.5859,6.6211,6.6484,6.6484,6.6914,6.7305,6.74,6.6888,6.6527,6.6613,6.5349,6.4375,6.3585,6.2334,6.0736,5.9162,5.7271,5.6072,11.3762,11.4642,11.5315,11.556,11.5222,11.4613,11.3801,11.3057,11.238,11.1568,11.1365,11.1568,11.238,11.2583,11.326,11.5492,11.6507,11.7697,11.9825,12.2079,12.3566,12.3879,12.4967,12.5925,12.6393,12.5566,12.5785,12.7157,12.6325,12.5234,12.411,12.3883,12.3704,12.3046,12.2986,12.2387,12.119,12.0472,11.9814,11.9156,11.7839,11.6881,11.6223,11.5565,11.4636,11.3288,11.2062,11.086,10.9614,10.7381,10.5349,10.3421,10.1532,9.9586,9.7344,9.5917,9.4396,9.2822,9.2121,9.1652,9.0894,9.0944,9.0844,9.0794,9.0794,9.0442,9.004,8.994,8.9588,8.9187,8.9136,8.9136,8.8754,8.7096,8.5206,8.3462,8.1475,8.052,7.9317,7.6839,7.5464,7.3934,7.1996,7.0628,6.9635,6.8385,6.7883,6.7592,6.7127,6.6875,6.6992,6.7265,6.6992,6.6758,6.6758,6.7148,6.7383,6.7383,6.7773,6.7828,6.7054,6.7093,6.6574,6.5311,6.4859,6.3985,6.2655,6.1396,5.9939,5.7749,5.6923,5.5295,11.4591,11.506,11.5322,11.5519,11.5096,11.441,11.3192,11.2651,11.2312,11.1568,11.1365,11.1501,11.1771,11.2177,11.2921,11.4274,11.5831,11.7495,11.9288,12.1744,12.34,12.401,12.5032,12.6055,12.684,12.6259,12.6155,12.7095,12.667,12.6323,12.526,12.4542,12.4003,12.3704,12.3405,12.2866,12.2387,12.131,12.0472,11.9814,11.8856,11.7899,11.6822,11.6223,11.5293,11.3942,11.2653,11.1329,10.9788,10.7807,10.5589,10.3366,10.1125,9.9273,9.7648,9.603,9.4706,9.3796,9.3138,9.2375,9.1898,9.1898,9.1898,9.1798,9.1095,9.0794,9.0593,9.0593,9.0442,9.0191,8.989,8.9072,8.7788,8.6367,8.48,8.3083,8.1361,7.9817,7.8263,7.6524,7.4576,7.2955,7.1953,7.0571,6.9184,6.8676,6.8422,6.7912,6.7695,6.7656,6.7734,6.789,6.75,6.7383,6.7617,6.7851,6.789,6.789,6.7571,6.7506,6.7477,6.6733,6.591,6.5636,6.4444,6.3275,6.2125,6.0339,5.8776,5.7382,5.5483,5.4019,11.486,11.5207,11.5265,11.4914,11.4636,11.3876,11.2718,11.2312,11.1974,11.1501,11.1365,11.1365,11.1365,11.1771,11.2515,11.3395,11.5289,11.709,11.8886,12.1543,12.3699,12.4272,12.5292,12.6571,12.7544,12.7393,12.7033,12.6995,12.7075,12.6928,12.6038,12.52,12.4602,12.4422,12.3824,12.3405,12.3165,12.1849,12.0891,12.0233,11.9515,11.8497,11.724,11.6582,11.5498,11.4144,11.3125,11.1465,10.9485,10.7997,10.5821,10.3418,10.0997,9.9067,9.777,9.5694,9.475,9.3987,9.3561,9.3032,9.2551,9.2551,9.2551,9.2401,9.1647,9.1296,9.1195,9.1195,9.1095,9.0844,9.0207,8.8765,8.7377,8.5999,8.4367,8.2971,8.1142,7.9091,7.7517,7.6217,7.4046,7.2155,7.1902,7.0335,6.9192,6.8975,6.8421,6.8203,6.8203,6.8203,6.8242,6.8359,6.8086,6.7969,6.8203,6.832,6.8398,6.8101,6.7699,6.7447,6.7342,6.6284,6.5553,6.5712,6.408,6.2576,6.1433,5.9201,5.7797,5.6354,5.4442,5.262,11.457,11.4928,11.5139,11.4375,11.3622,11.287,11.2657,11.1906,11.1365,11.1365,11.1365,11.1365,11.1365,11.1365,11.1906,11.3395,11.4816,11.6618,11.8597,12.1543,12.3899,12.4994,12.6008,12.7282,12.8312,12.8968,12.8796,12.7056,12.75,12.7472,12.6098,12.6098,12.5799,12.514,12.4482,12.3824,12.3165,12.1849,12.0891,12.0233,11.9515,11.8497,11.724,11.6582,11.5225,11.356,11.2911,11.1267,10.9017,10.7725,10.5878,10.3493,10.0917,9.8871,9.6893,9.5141,9.3987,9.351,9.2792,9.2551,9.2551,9.2551,9.2551,9.2551,9.2551,9.22,9.1798,9.1798,9.1346,9.0708,9.0233,8.9073,8.7916,8.6529,8.441,8.2334,8.0864,7.9131,7.7129,7.5865,7.4256,7.2395,7.1075,7.0023,6.8935,6.8421,6.8203,6.8203,6.8203,6.8203,6.8359,6.875,6.8828,6.8633,6.8242,6.8594,6.8568,6.7785,6.817,6.8063,6.6877,6.6106,6.5712,6.533,6.3095,6.1121,5.9728,5.8327,5.6385,5.4144,5.3257,5.1825,11.4133,11.457,11.4656,11.3974,11.3353,11.2802,11.1979,11.1568,11.1365,11.1365,11.1365,11.1365,11.1365,11.1365,11.1906,11.3395,11.4816,11.655,11.8597,12.1543,12.3899,12.4994,12.6817,12.8052,12.8401,12.9014,12.8982,12.7786,12.7804,12.7472,12.6098,12.6098,12.5978,12.5799,12.4721,12.4003,12.3824,12.2507,12.131,12.0233,11.9993,11.9215,11.7839,11.6333,11.5034,11.415,11.2168,11.0396,10.9074,10.7283,10.5307,10.3318,10.1371,9.9093,9.6945,9.5605,9.4293,9.351,9.2792,9.2551,9.2551,9.2551,9.2551,9.2551,9.2551,9.2451,9.23,9.23,9.1659,9.0781,9.0012,8.8656,8.706,8.5845,8.4279,8.2271,8.0211,7.8617,7.6758,7.4676,7.2971,7.16,7.0782,6.9923,6.9323,6.9062,6.9062,6.9062,6.9062,6.9062,6.9101,6.9219,6.9492,6.9531,6.9101,6.9453,6.9424,6.8631,6.8521,6.7983,6.6474,6.5931,6.4746,6.3513,6.1527,6.0223,5.8816,5.6815,5.4712,5.2717,5.1562,5.0293,11.4189,11.4124,11.3886,11.3559,11.3154,11.2605,11.178,11.1505,11.1365,11.1365,11.1365,11.1365,11.1365,11.1365,11.1906,11.3395,11.4671,11.6401,11.8664,12.1451,12.3965,12.59,12.7802,12.8923,12.8741,12.9404,12.9415,12.8029,12.7925,12.7472,12.6098,12.6098,12.6098,12.6098,12.4841,12.4123,12.4123,12.2806,12.1549,12.0233,12.0233,11.9515,11.8138,11.6237,11.5152,11.4444,11.1792,10.9958,0.0,10.7056,10.5237,10.3005,10.1385,9.9438,9.6856,9.5727,9.4599,9.3334,9.2892,9.2551,9.2551,9.2551,9.2551,9.2551,9.2551,9.2551,9.2551,9.2551,9.1819,9.0847,9.0314,8.8757,8.6906,8.5429,8.3753,8.1979,7.9739,7.8127,7.6761,7.4447,7.3068,7.1763,7.1239,7.0489,6.9844,6.9726,6.9844,6.9844,6.9726,6.9844,6.9922,6.9922,7.0156,7.0195,6.9961,6.9891,6.9514,6.898,6.8172,6.7313,6.6333,6.4996,6.3756,6.2776,6.0803,5.9198,5.8021,5.542,5.3268,5.1611,5.0443,4.9776,0.0,11.363,11.3024,11.3327,11.2873,11.2402,11.206,11.1645,0.0,11.1365,11.1365,11.1365,11.1365,11.1433,11.1906,11.3395,11.4593,11.6103,11.8597,12.133,12.4216,12.7457,12.8897,12.9357,12.9429,13.0028,12.9632,12.8029,12.7925,12.7472,12.6098,12.6098,12.6098,12.5978,12.4781,12.4123,12.4123,12.2806,12.1549,12.0233,12.0233,11.9515,11.8198,11.6177,11.4937,11.4168,11.185,10.9738,10.7958,10.6829,10.4997,10.2661,10.1364,9.9197,9.6922,9.5795,9.4423,9.3304,9.2752,9.2551,9.2551,9.2551,9.2551,9.2551,9.2551,9.2551,9.2551,9.2551,9.2069,9.1343,9.0612,8.9243,8.7432,8.5448,8.3576,8.1405,7.9373,7.7833,7.6539,7.4975,7.3621,7.2605,7.1809,7.1276,7.0586,7.0195,7.0469,7.0586,7.0195,7.0508,7.0703,7.0703,7.0742,7.0781,7.0742,6.9977,6.944,6.8631,6.7313,6.6406,6.5907,6.3757,6.2776,6.2836,5.9774,5.8052,5.7187,5.4258,5.1921,5.0479,5.0452,4.9862,11.3376,0.0,11.2629,11.2767,11.225,11.2056,0.0,11.1716,11.1784,11.1573,11.1365,11.1365,11.1365,11.1906,11.2515,11.3463,11.5065,11.6775,11.8664,12.2238,12.5229,12.7088,12.8248,12.8951,12.9429,12.9599,12.9133,12.809,12.7925,12.7472,12.6098,12.6098,12.5858,12.538,12.4542,12.4123,12.4123,12.2806,12.1549,12.0233,12.0233,11.9296,11.7487,11.5528,11.4286,11.3132,11.0534,10.8629,10.7283,10.5688,10.4069,10.2425,10.0892,9.8842,9.6922,9.5772,9.4486,9.3304,9.2752,9.2551,9.2551,9.2551,9.2551,9.2551,9.2551,9.2551,9.2551,9.2069,9.1343,9.0612,8.9435,8.8102,8.6511,8.4954,8.3085,8.1111,7.9212,7.7308,7.5348,7.3703,7.2605,7.1809,7.1009,7.0703,7.0664,7.0586,7.0664,7.0664,7.0586,7.0664,7.0703,7.0703,7.1015,7.0942,7.0402,7.0132,6.9861,6.9085,6.7981,6.6509,6.4666,6.3855,6.2289,6.0098,5.7192,5.5259,5.4698,5.2371,5.1076,5.078,4.9943,4.9567,11.2513,11.2491,11.2356,11.2389,11.2222,11.198,11.172,11.1788,11.1784,11.1573,11.1365,11.1365,11.1365,11.1974,11.2854,11.3936,11.5593,11.7592,12.074,12.4005,12.6437,12.7479,12.8819,12.9647,12.9429,12.9415,12.9062,12.809,12.7638,12.7016,12.6038,12.6098,12.5799,12.514,12.4482,12.4003,12.3704,12.2387,12.119,12.0233,11.9874,11.8997,11.7269,11.5311,11.3849,11.2633,10.9868,10.7958,10.6602,10.4997,10.3367,10.2005,10.0465,9.8859,9.7281,9.5733,9.4546,9.3656,9.2852,9.2551,9.2551,9.2551,9.2551,9.2551,9.2551,9.2551,9.2551,9.1827,9.1099,9.0368,8.8893,8.7403,8.5897,8.4377,8.2541,8.0731,7.8907,7.7248,7.5355,7.378,7.2939,7.2096,7.1289,7.1289,7.125,7.1055,7.1172,7.125,7.1015,7.1172,7.1289,7.1289,7.1523,7.1408,7.0555,7.0474,6.9927,6.868,6.7392,6.5896,6.3924,6.2878,6.0776,5.7254,5.5702,5.4013,5.2523,5.1461,5.0783,5.0511,5.0051,4.962,11.1768,11.1844,11.2068,11.218,11.232,11.21,11.1443,11.1652,11.1922,11.1505,11.1365,11.1433,11.1501,11.2177,11.3192,11.4613,11.6237,11.8928,12.2884,12.565,12.7298,12.7932,12.9514,13.0264,12.9554,12.957,12.9048,12.7925,12.7244,12.6727,12.6098,12.5978,12.5619,12.5021,12.4302,12.3584,12.2866,12.1789,12.0891,12.0233,11.9515,11.842,11.705,11.5311,11.3849,11.2469,10.9422,10.7283,10.5917,10.4301,10.2661,10.1237,10.0036,9.8823,9.7497,9.5641,9.4697,9.4058,9.2953,9.2551,9.2551,9.2551,9.2551,9.2551,9.2551,9.2601,9.231,9.1585,9.1099,9.0368,8.8645,8.6902,8.5139,8.3867,8.1768,8.0037,7.8419,7.7097,7.554,7.4197,7.3388,7.2807,7.1992,7.1992,7.1875,7.1523,7.1758,7.1875,7.1484,7.1836,7.2109,7.2109,7.2148,7.1641,7.0857,7.0335,6.9262,6.7502,6.6427,6.4943,6.3266,6.1262,5.8535,5.5049,5.4781,5.356,5.1491,5.1136,5.0809,5.0234,5.0181,4.9994,11.1944,11.2085,11.2226,11.1829,11.1738,11.1739,11.144,11.1924,11.2197,11.1505,11.1365,11.1568,11.2177,11.2921,11.3936,11.5425,11.8388,12.1101,12.2805,12.5051,12.6743,12.7354,12.8508,12.9496,12.9341,12.9071,12.86,12.7925,12.7244,12.6727,12.6098,12.5619,12.4961,12.4302,12.3644,12.2746,12.1549,12.131,12.0891,12.0233,11.9515,11.8201,11.667,11.5034,11.3411,11.1185,10.9198,10.6829,10.4766,10.3367,10.1713,10.0036,9.8631,9.7599,9.6757,9.5101,9.4208,9.4058,9.2953,9.2551,9.2551,9.2551,9.2551,9.2551,9.2551,9.231,9.1585,9.0856,9.0612,9.0123,8.7699,8.6401,8.5139,8.31,8.1079,7.9208,7.7892,7.6033,7.4197,7.3388,7.2535,7.2264,7.1992,7.1992,7.1992,7.1875,7.1953,7.1992,7.1875,7.2305,7.2578,7.2578,7.2339,7.1978,7.1144,6.9822,6.8378,6.6928,6.5862,6.4029,6.0842,5.9142,5.7549,5.5723,5.4546,5.3032,5.2066,5.1241,5.0528,5.0528,5.0261,5.0127,11.1611,11.1875,11.2241,11.1857,11.1901,11.1719,11.0892,11.1582,11.2471,11.2047,11.1974,11.2177,11.2989,11.4004,11.5684,11.8339,12.1032,12.3433,12.4469,12.6242,12.7723,12.8572,12.9267,12.9851,12.984,12.8939,12.8151,12.7925,12.7016,12.6148,12.5619,12.526,12.4602,12.3584,12.3285,12.2567,12.119,12.0831,12.0352,11.9634,11.848,11.7387,11.5918,11.426,11.2353,11.0388,10.8185,10.6146,10.4301,10.2661,10.1237,9.9794,9.8335,9.7353,9.6707,9.4906,9.3807,9.3254,9.2752,9.2551,9.2551,9.2551,9.2551,9.2551,9.2551,9.2069,9.1343,9.0807,9.0123,8.914,8.7153,8.5645,8.4077,8.2373,8.0559,7.8419,7.7097,7.554,7.3928,7.3348,7.2772,7.2344,7.2344,7.2578,7.2695,7.2695,7.2695,7.2695,7.2695,7.293,7.3047,7.3047,7.2649,7.1931,7.1093,6.9838,6.8,6.5709,6.3979,6.211,5.9814,5.7731,5.6023,5.466,5.3475,5.2257,5.1647,5.1207,5.0822,5.0822,5.0688,5.0555,11.1456,11.1768,11.2353,11.2094,11.2216,11.1973,11.0686,11.165,11.2744,11.2454,11.2583,11.2989,11.3936,11.5628,11.7765,12.0764,12.3218,12.5098,12.6175,12.7742,12.8954,12.9528,12.9885,13.0078,12.991,12.8619,12.7925,12.7638,12.6607,12.5619,12.514,12.4781,12.4183,12.3165,12.2866,12.2208,12.1011,12.0352,11.9754,11.9215,11.7844,11.6813,11.5447,11.3482,11.1736,10.9764,10.7337,10.5458,10.4069,10.2479,10.0758,9.931,9.8335,9.72,9.6156,9.4604,9.3405,9.2551,9.2551,9.2551,9.2551,9.2551,9.2551,9.2551,9.231,9.1877,9.1099,9.0368,8.914,8.7949,8.6652,8.5139,8.31,8.1553,7.9775,7.7934,7.6466,7.5167,7.4128,7.3355,7.2852,7.2851,7.2851,7.3086,7.332,7.332,7.332,7.332,7.332,7.3437,7.3476,7.3476,7.2719,7.1676,7.0476,6.9357,6.7535,6.4643,6.2307,6.0671,5.9171,5.7074,5.5265,5.3475,5.2562,5.1952,5.1036,5.1036,5.1036,5.1036,5.1036,5.0929,11.1558,11.191,11.2577,11.2024,11.2216,11.2112,11.1371,11.2402,11.322,11.2589,11.2989,11.4004,11.5425,11.7996,12.0194,12.1166,12.3686,12.5897,12.6962,12.8089,12.9091,12.9632,12.9579,12.9226,12.8824,12.8173,12.7699,12.7016,12.6018,12.52,12.514,12.4003,12.3285,12.3165,12.1968,12.1011,12.0352,11.9634,11.9215,11.9215,11.7844,11.6813,11.5447,11.3482,11.1513,10.9089,10.7337,10.4997,10.2661,10.1951,10.0277,9.8142,9.7896,9.6496,9.4259,9.3656,9.3053,9.2551,9.2551,9.2551,9.2551,9.2551,9.2551,9.2551,9.1827,9.1099,9.0368,8.9188,8.7901,8.6652,8.5851,8.4586,8.31,8.1035,7.947,7.8018,7.6301,7.5344,7.4377,7.344,7.3281,7.3281,7.3281,7.332,7.332,7.332,7.332,7.332,7.332,7.3672,7.3906,7.3906,7.285,7.1089,6.818,6.7057,6.5637,6.3291,6.1519,6.0034,5.8573,5.6773,5.5265,5.3475,5.2562,5.1952,5.1036,5.1036,5.1036,5.1036,5.1036,5.1036,11.1312,11.1623,11.2079,11.2587,11.2566,11.2251,11.1988,11.2812,11.3765,11.4418,11.4816,11.5695,11.8131,12.0296,12.1949,12.3178,12.536,12.723,12.775,12.848,12.9349,13.0333,12.9831,12.9412,12.9221,12.8417,12.7517,12.6474,12.5489,12.4781,12.4003,12.3465,12.2806,12.1968,12.149,12.0712,11.9574,11.9275,11.8579,11.7308,11.6635,11.5345,11.3761,11.1958,10.9988,10.7846,10.6028,10.4301,10.2715,10.1237,9.9552,9.7845,9.6504,9.5202,9.3656,9.3455,9.3053,9.2551,9.2551,9.2551,9.2551,9.2551,9.2551,9.2551,9.1827,9.1099,9.0368,8.9188,8.7403,8.5897,8.5139,8.3612,8.1812,8.0298,7.8675,7.7065,7.5614,7.477,7.4188,7.3558,7.3555,7.375,7.375,7.3945,7.414,7.414,7.414,7.414,7.414,7.4258,7.4375,7.4375,7.308,7.0915,6.7998,6.6546,6.5086,6.3029,6.0958,5.947,5.8304,5.5869,5.4054,5.3475,5.2257,5.1341,5.1036,5.1036,5.1036,5.1036,5.1036,5.1036,11.124,11.1302,11.1683,11.2868,11.2915,11.2736,11.3084,11.3769,11.4583,11.5638,11.6643,11.7996,12.0499,12.219,12.3569,12.5055,12.6901,12.8295,12.8865,12.9065,12.9671,13.0779,13.0019,12.9412,12.9503,12.8295,12.7153,12.6052,12.5177,12.4063,12.3165,12.2806,12.2148,12.119,12.0831,12.0113,11.9215,11.8796,11.7645,11.616,11.5311,11.4025,11.24,11.0664,10.9031,10.6829,10.5228,10.3602,10.2188,10.0518,9.872,9.7098,9.5555,9.4259,9.3405,9.3204,9.2903,9.2551,9.2551,9.2551,9.2551,9.2551,9.2551,9.2119,9.1585,9.0612,8.9632,8.8446,8.6652,8.5093,8.3867,8.2373,8.0819,7.9686,7.8133,7.6548,7.5476,7.4936,7.4387,7.3711,7.3945,7.414,7.414,7.4414,7.4609,7.4609,7.4609,7.4609,7.4609,7.4609,7.4327,7.4045,7.2873,7.0915,6.7998,6.6255,6.4759,6.3029,6.0661,5.8903,5.8274,5.5294,5.3475,5.3475,5.1952,5.1036,5.1036,5.1036,5.1036,5.1036,5.1036,5.1036,11.1066,11.1124,11.146,11.2868,11.3335,11.3638,11.4454,11.534,11.581,11.5841,11.8199,12.0837,12.2258,12.3679,12.5188,12.653,12.8039,12.9295,13.0309,13.0171,13.0252,13.0779,13.0019,12.9226,12.8544,12.7563,12.6669,12.5992,12.4336,12.3165,12.3165,12.1909,12.119,12.119,11.9874,11.9215,11.9156,11.7899,11.6535,11.5506,11.4209,11.2911,11.1762,11.0435,10.8749,10.6374,10.4997,10.3313,10.1475,10.0224,9.8218,9.5996,9.4654,9.3857,9.3304,9.2752,9.2551,9.2551,9.2551,9.2551,9.2551,9.2551,9.2119,9.1585,9.0856,8.9632,8.8446,8.7153,8.5645,8.4077,8.207,8.1079,8.0385,7.928,7.8076,7.6712,7.6244,7.5575,7.49,7.4531,7.4609,7.4609,7.4609,7.4609,7.4609,7.4609,7.4609,7.4609,7.4609,7.4609,7.4006,7.2343,7.2343,7.0915,6.7998,6.6255,6.4759,6.3029,6.0066,5.8274,5.8274,5.5294,5.3475,5.3475,5.1952,5.1036,5.1036,5.1036,5.1036,5.1036,5.1036,5.1036,11.0922,11.0695,11.0751,11.2728,11.3335,11.3846,11.5207,11.6024,11.6969,11.8618,12.0905,12.2935,12.3882,12.5709,12.7145,12.7469,12.9244,13.0494,13.044,13.0547,13.0639,13.0779,12.9787,12.8904,12.7867,12.6891,12.582,12.4665,12.3795,12.2806,12.1789,12.143,12.0771,11.9814,11.9395,11.8737,11.7839,11.742,11.6118,11.415,11.3796,11.2418,11.0435,10.9365,10.7677,10.5743,10.4069,10.2661,10.1422,9.8842,9.6474,9.4101,9.3706,9.3304,9.2802,9.2652,9.2551,9.2551,9.2551,9.2551,9.2551,9.2551,9.2119,9.1585,9.0856,8.9632,8.8197,8.6401,8.484,8.3311,8.1294,7.9993,7.8811,7.795,7.6712,7.5759,7.5495,7.5019,7.4734,7.457,7.4609,7.4609,7.4609,7.4609,7.4609,7.4609,7.4609,7.4609,7.4609,7.4609,7.4006,7.2343,7.2343,7.0915,6.7998,6.6837,6.5379,6.3029,6.0661,5.8903,5.8274,5.5294,5.3475,5.3475,5.1952,5.1036,5.1036,5.1036,5.1036,5.1036,5.1036,5.1036,11.082,11.0517,11.0244,11.2539,11.3545,11.454,11.6988,11.7923,11.9062,12.1599,12.3138,12.4423,12.5776,12.74,12.8495,12.8911,13.0486,13.1602,13.1267,13.1127,13.0962,13.0864,12.9822,12.8951,12.8114,12.6379,12.5153,12.4508,12.3074,12.2088,12.119,12.0712,11.9993,11.9215,11.8677,11.8018,11.724,11.6702,11.5404,11.356,11.3324,11.2126,10.9646,10.8577,10.7112,10.5052,10.2446,10.0627,9.9669,9.7165,9.5185,9.3405,9.3405,9.3053,9.2551,9.2551,9.2551,9.2551,9.2551,9.2551,9.2551,9.2551,9.2069,9.1099,9.0612,8.9386,8.7652,8.6102,8.4332,8.2328,8.0559,7.9074,7.7782,7.7397,7.6415,7.5411,7.5417,7.4976,7.4609,7.4609,7.4609,7.4609,7.4609,7.4609,7.4609,7.4609,7.4609,7.4609,7.4609,7.4609,7.4045,7.2873,7.2627,7.1164,6.8287,6.7128,6.5379,6.3029,6.0661,5.9202,5.8274,5.5294,5.3475,5.3475,5.1952,5.1036,5.1036,5.1036,5.1036,5.1036,5.1036,5.1036,11.082,11.041,11.0273,11.2609,11.3979,11.5866,11.9522,12.049,12.1311,12.4085,12.4897,12.5709,12.7806,12.8889,12.9672,13.0523,13.1663,13.2202,13.2226,13.209,13.1478,13.0751,12.9774,12.8848,12.8343,12.6019,12.4707,12.4707,12.2455,12.1071,12.1011,11.9874,11.9096,11.8976,11.7839,11.7121,11.7061,11.5864,11.457,11.3501,11.2579,11.1209,10.896,10.8349,10.649,10.3851,10.0494,9.8133,9.682,9.558,9.4294,9.3304,9.3304,9.3003,9.2551,9.2551,9.2551,9.2551,9.2551,9.2551,9.2551,9.2601,9.1585,9.0612,9.0368,8.8645,8.6401,8.5645,8.3567,8.1294,7.9732,7.8188,7.7045,7.7271,7.6346,7.5532,7.5536,7.5133,7.4609,7.4609,7.4609,7.4609,7.4609,7.4609,7.4609,7.4609,7.4609,7.4609,7.4609,7.4609,7.4327,7.3479,7.2873,7.1487,6.9154,6.7418,6.5671,6.3324,6.099,5.9171,5.8304,5.5294,5.3475,5.3475,5.1952,5.1036,5.1036,5.1036,5.1036,5.1036,5.1036,5.1036,11.082,11.0838,11.0866,11.2679,11.5076,11.7612,12.0542,12.2272,12.3515,12.4423,12.6115,12.7738,12.8821,13.0039,13.1091,13.1465,13.2066,13.2444,13.2838,13.2069,13.1532,13.128,12.9877,12.8573,12.7532,12.4914,12.3311,12.3311,12.1492,12.0233,11.9694,11.9335,11.8677,11.7719,11.742,11.6702,11.5684,11.5021,11.3966,11.2793,11.1231,10.9645,10.8332,10.7223,10.4691,10.0797,9.9043,9.7302,9.5641,9.4817,9.398,9.2752,9.2752,9.2652,9.2551,9.2551,9.2551,9.2551,9.2551,9.2551,9.2601,9.2069,9.1343,9.0368,8.9386,8.7901,8.6448,8.4586,8.2843,8.1079,7.9208,7.7447,7.6405,7.6143,7.5491,7.506,7.4773,7.457,7.4609,7.4609,7.4609,7.4609,7.4609,7.4609,7.4609,7.4609,7.4609,7.4609,7.4609,7.4609,7.4327,7.3479,7.2873,7.1487,7.0054,6.8287,6.6546,6.4207,6.1815,5.9736,5.8304,5.5294,5.3475,5.3475,5.1952,5.1036,5.1036,5.1036,5.1036,5.1036,5.1036,5.1036,11.0922,11.1017,11.1475,11.4211,11.6968,11.9468,12.1568,12.3717,12.5366,12.5799,12.7332,12.8889,12.9565,13.0918,13.2069,13.2072,13.2402,13.2711,13.2734,13.2109,13.12,13.0445,12.9195,12.7786,12.6554,12.4569,12.3046,12.2461,12.0988,11.9613,11.8796,11.8437,11.7779,11.6822,11.6462,11.5984,11.5265,11.3975,11.3077,11.2145,11.0374,10.8186,10.5928,10.487,10.2772,9.9955,9.7808,9.6307,9.5282,9.4068,9.3094,9.2551,9.2551,9.2401,9.22,9.22,9.2049,9.1798,9.1798,9.1798,9.1798,9.1379,9.0704,9.0025,8.9091,8.745,8.5897,8.4077,8.2026,8.0298,7.8725,7.6999,7.5411,7.5083,7.4936,7.4624,7.4734,7.4609,7.4609,7.4609,7.4609,7.4609,7.4609,7.4609,7.4609,7.4609,7.4609,7.4609,7.4609,7.4609,7.4327,7.4045,7.2873,7.1735,7.0628,6.8865,6.6837,6.4466,6.1815,6.0034,5.8304,5.5294,5.3475,5.3475,5.1952,5.1036,5.1036,5.1036,5.1036,5.1036,5.1036,5.1036,11.085,11.1517,11.2536,11.6145,11.8637,12.0644,12.233,12.4535,12.6541,12.6951,12.828,12.9633,13.0377,13.1595,13.2542,13.2677,13.291,13.3087,13.2802,13.1896,13.0874,12.9414,12.8308,12.7115,12.5491,12.4187,12.3012,12.1732,12.0575,11.9266,11.8078,11.742,11.6822,11.6103,11.5565,11.5146,11.4966,11.3202,11.1918,11.1437,10.9305,10.6675,10.3255,10.1952,10.0795,9.9402,9.6576,9.518,9.494,9.3233,9.2501,9.2401,9.2401,9.2149,9.1647,9.1647,9.1346,9.0944,9.0944,9.0944,9.0758,9.0492,9.016,8.9534,8.8603,8.7011,8.5253,8.3822,8.1553,7.9208,7.8462,7.659,7.4761,7.4569,7.4303,7.4229,7.4577,7.4531,7.4609,7.4609,7.4609,7.4609,7.4609,7.4609,7.4609,7.4609,7.4609,7.4609,7.4609,7.4609,7.4609,7.4609,7.3195,7.202,7.1487,6.9154,6.6837,6.4466,6.2143,6.0034,5.8304,5.5294,5.3475,5.3475,5.1952,5.1036,5.1036,5.1036,5.1036,5.1036,5.1036,5.1036,11.085,11.2688,11.4889,11.7657,11.9109,12.0441,12.263,12.4578,12.6393,12.7289,12.8941,13.0377,13.1121,13.1933,13.2677,13.3422,13.2842,13.266,13.3154,13.1682,13.0539,12.999,12.87,12.7115,12.5491,12.3691,12.2337,12.1004,11.9486,11.8122,11.736,11.6822,11.6103,11.5445,11.5325,11.4727,11.359,11.2306,11.1319,11.073,10.7323,10.4304,10.1253,9.9956,9.9099,9.8233,9.5797,9.4616,9.4616,9.3082,9.23,9.1898,9.1898,9.1547,9.1045,9.1045,9.0994,9.0944,9.0944,9.0944,9.0708,8.9567,8.9137,8.8705,8.6796,8.5744,8.4585,8.322,8.1079,7.9251,7.7892,7.5849,7.4128,7.3945,7.3518,7.3008,7.3867,7.4297,7.4609,7.4609,7.4609,7.4609,7.4609,7.4609,7.4609,7.4609,7.4609,7.4609,7.4609,7.4609,7.4609,7.4609,7.3195,7.2305,7.2058,6.9442,6.7093,6.5345,6.2406,6.0034,5.8304,5.5294,5.3475,5.3475,5.1952,5.1036,5.1036,5.1036,5.1036,5.1036,5.1036,5.1036,11.1683,11.3797,11.5883,11.8247,11.9715,12.1269,12.3055,12.474,12.6188,12.7446,12.8737,13.0039,13.1189,13.2407,13.3286,13.3625,13.2842,13.2392,13.2727,13.1135,12.9624,12.8949,12.7676,12.6111,12.4304,12.3131,12.1671,12.0001,11.8729,11.7311,11.6163,11.5864,11.5265,11.4188,11.4188,11.3501,11.2338,11.109,10.957,10.7602,10.4612,10.2474,10.0427,9.8531,9.717,9.6568,9.4941,9.3611,9.3069,9.2123,9.1547,9.1296,9.1296,9.0944,9.0442,9.0442,9.0291,9.004,9.004,9.004,8.9806,8.8925,8.8547,8.8167,8.6027,8.4872,8.3897,8.2138,8.0296,7.8419,7.7097,7.5499,7.3968,7.3587,7.3047,7.2812,7.3164,7.3789,7.4297,7.4531,7.4609,7.4609,7.4609,7.4609,7.4609,7.4609,7.4609,7.4609,7.4609,7.4609,7.4609,7.4609,7.3195,7.2058,7.1735,6.9154,6.6837,6.4793,6.2111,6.0034,5.8304,5.5294,5.3475,5.3475,5.1952,5.1036,5.1036,5.1036,5.1036,5.1036,5.1036,5.1036,11.233,11.4375,11.6401,11.834,12.0237,12.1817,12.3483,12.4898,12.622,12.733,12.8558,12.9728,13.0715,13.2204,13.3422,13.3422,13.2879,13.2325,13.2325,13.0672,12.8971,12.8106,12.684,12.5361,12.3179,12.2353,12.0907,11.8845,11.8029,11.6945,11.5026,11.4906,11.4248,11.3111,11.3051,11.2545,11.1269,10.9551,10.7385,10.4633,10.2618,10.0871,9.938,9.7328,9.5744,9.4576,9.3802,9.2947,9.1836,9.118,9.0844,9.0693,9.0693,9.0392,8.989,8.989,8.9639,8.9287,8.9287,8.9287,8.9105,8.8331,8.7957,8.7629,8.5506,8.4204,8.3027,8.1269,7.9516,7.7765,7.63,7.5004,7.3928,7.3077,7.2811,7.2578,7.2812,7.332,7.3906,7.418,7.4375,7.4414,7.4414,7.4531,7.4609,7.4609,7.4609,7.4609,7.4609,7.4609,7.457,7.4288,7.3157,7.2058,7.0877,6.8901,6.6837,6.4466,6.1815,6.0034,5.8304,5.5294,5.3475,5.3475,5.1952,5.1036,5.1036,5.1036,5.1036,5.1036,5.1036,5.1036,11.2381,11.4454,11.6606,11.8245,12.0031,12.1787,12.3767,12.5137,12.6215,12.7041,12.8399,12.9712,12.9295,13.1121,13.261,13.261,13.2305,13.2325,13.2325,13.0672,12.8971,12.8041,12.639,12.4661,12.2492,12.1604,12.0366,11.8176,11.73,11.628,11.4368,11.3709,11.3111,11.2393,11.2393,11.1828,11.0615,10.7604,10.5004,10.2629,10.156,9.9826,9.7445,9.6717,9.4814,9.2284,9.2617,9.2589,9.1836,9.118,9.0593,9.0191,9.0191,8.9789,8.9337,8.9337,8.9287,8.9287,8.9287,8.9287,8.9055,8.7887,8.7465,8.7091,8.4936,8.3414,8.216,8.1046,7.9255,7.7342,7.5643,7.4695,7.3928,7.2264,7.1992,7.2265,7.3086,7.332,7.3359,7.3359,7.3711,7.4023,7.4023,7.4297,7.4609,7.4609,7.4609,7.4609,7.4609,7.4609,7.4288,7.3723,7.2873,7.1735,7.0304,6.8577,6.6837,6.4466,6.1815,6.0034,5.8304,5.5294,5.3475,5.3475,5.1952,5.1036,5.1036,5.1036,5.1036,5.1036,5.1036,5.1036,11.2539,11.3984,11.5589,11.803,11.9628,12.1078,12.3133,12.4389,12.5458,12.622,12.7125,12.7811,12.8347,13.0309,13.1798,13.1798,13.1229,13.0919,13.0919,12.9349,12.7664,12.6679,12.5362,12.3898,12.1742,12.0981,11.9685,11.7446,11.6207,11.507,11.365,11.2991,11.2393,11.1675,11.0847,10.946,10.7166,10.525,10.3646,10.2203,10.0036,9.8291,9.68,9.5085,9.319,9.1438,9.1182,9.077,9.0073,8.9839,8.9789,8.9588,8.9588,8.9438,8.9287,8.9287,8.9287,8.9287,8.9287,8.9287,8.9055,8.7887,8.7367,8.6944,8.451,8.3089,8.1932,7.9783,7.8521,7.7215,7.4742,7.4224,7.3928,7.2264,7.1992,7.2109,7.2383,7.2695,7.2969,7.3281,7.3437,7.3633,7.3906,7.4101,7.4297,7.4531,7.4609,7.4609,7.4609,7.4609,7.4327,7.3479,7.2873,7.1449,6.9442,6.7708,6.5963,6.3619,6.1255,5.947,5.8304,5.5294,5.3475,5.3475,5.1952,5.1036,5.1036,5.1036,5.1036,5.1036,5.1036,5.1036,11.2135,11.3536,11.5315,11.7703,11.9264,12.0876,12.2829,12.3975,12.4722,12.5437,12.6068,12.6473,12.7177,12.878,13.0174,13.0918,13.0422,13.0115,13.0115,12.8555,12.688,12.59,12.4654,12.3135,12.1054,11.9982,11.8693,11.6412,11.5175,11.4041,11.2632,11.1974,11.1196,11.0156,10.907,10.7342,10.4737,10.3551,10.2176,10.0887,9.8723,9.6926,9.5665,9.3462,9.1802,9.0567,8.9832,8.9397,8.9287,8.9086,8.9036,8.8986,8.8785,8.8684,8.8684,8.8684,8.8684,8.8684,8.8684,8.8885,8.8754,8.759,8.722,8.6896,8.432,8.281,8.1658,7.9045,7.7788,7.6532,7.4069,7.3367,7.2919,7.2068,7.1875,7.1992,7.1992,7.2226,7.2539,7.2812,7.2969,7.3203,7.3515,7.3789,7.4062,7.4375,7.4492,7.4609,7.4609,7.4288,7.4045,7.3195,7.2058,7.0591,6.8577,6.7128,6.5086,6.2734,6.0693,5.8903,5.7674,5.4963,5.3447,5.3143,5.162,5.1036,5.1036,5.1036,5.1036,5.1036,5.1036,5.1009,0.0,0.0,0.0,11.7433,11.926,12.1038,12.3142,12.3613,12.3837,12.4653,12.5437,12.571,12.5385,12.6228,12.7603,12.9768,13.0019,12.9981,12.9981,12.8423,12.6815,12.577,12.414,12.2435,12.0242,11.8859,11.7267,11.5013,11.4204,11.3194,11.1316,11.0597,10.9499,10.7585,10.6923,10.6021,10.4098,10.2446,10.0638,9.8963,9.7251,9.5459,9.3828,9.245,9.1075,8.9388,8.8713,8.869,8.9187,8.8634,8.8433,8.8383,8.7831,8.758,8.758,8.758,8.758,8.758,8.758,8.7931,8.8203,8.6997,8.6925,8.6847,8.4273,8.2578,8.1201,7.8912,7.7357,7.569,7.354,7.2126,7.1367,7.1367,7.164,7.1953,7.1992,7.1992,7.1992,7.1992,7.2344,7.2695,7.2695,7.3398,7.3906,7.3984,7.4297,7.4609,7.4609,7.4045,7.3195,7.2305,7.0877,6.9442,6.7708,6.6255,6.4466,6.1815,6.0363,5.8304,5.5898,5.4357,5.3143,5.223,5.1315,5.1036,5.1036,5.1036,5.1036,5.1036,5.1036,5.0423,11.0935,0.0,0.0,0.0,0.0,0.0,12.1285,12.2759,12.3973,12.3341,12.3858,12.4482,12.5181,12.5346,12.5912,12.7603,12.7733,12.7637,12.7637,12.657,12.5116,12.363,12.234,12.0718,11.8179,11.7611,11.6585,11.4344,11.3172,11.2045,11.0597,10.952,10.8104,10.6332,10.6273,10.4678,10.1543,10.072,9.9134,9.6417,9.5135,9.3566,9.1872,9.0764,8.9593,8.8713,8.8085,8.8009,8.8032,8.7931,8.7831,8.7831,8.768,8.758,8.758,8.758,8.758,8.758,8.758,8.768,8.7602,8.6453,8.6335,8.6358,8.3751,8.2299,8.111,7.8515,7.7099,7.569,7.354,7.1888,7.0898,7.0898,7.1015,7.1172,7.1484,7.1523,7.164,7.1953,7.2109,7.2305,7.2617,7.289,7.3281,7.3867,7.4062,7.4258,7.4531,7.4045,7.3195,7.2305,7.0877,6.9118,6.7128,6.5379,6.3619,6.1255,5.9501,5.7674,5.5898,5.4357,5.3143,5.223,5.1315,5.1036,5.1036,5.1036,5.1036,5.1036,5.0397,4.9144,0.0,0.0,0.0,11.6716,0.0,0.0,12.067,12.1828,12.2715,12.2587,12.2774,12.3278,12.399,12.4076,12.4241,12.4964,12.5071,12.539,12.6164,12.5114,12.3613,12.2512,12.143,11.9764,11.7687,11.6742,11.547,11.331,11.1897,11.0532,10.9161,10.7886,10.6397,10.5011,10.4318,10.279,10.0218,9.9193,9.7723,9.5499,9.4003,9.2598,9.0855,8.9527,8.8703,8.7777,8.7153,8.6927,8.6927,8.6927,8.7077,8.7278,8.7027,8.6927,8.6927,8.6927,8.6927,8.6927,8.6927,8.7077,8.7001,8.5909,8.5794,8.582,8.3466,8.202,8.0836,7.8589,7.629,7.4281,7.275,7.1372,7.043,7.043,7.0586,7.0781,7.1015,7.1094,7.1289,7.1875,7.1992,7.207,7.2344,7.2578,7.2851,7.3398,7.375,7.4062,7.4016,7.3325,7.2589,7.1449,7.0017,6.8287,6.6255,6.4173,6.2439,6.0363,5.8243,5.6472,5.4991,5.3779,5.2535,5.162,5.1315,5.1036,5.1036,5.1036,5.073,5.0423,4.9196,4.794,0.0,0.0,0.0,11.6462,11.7935,0.0,12.0683,12.089,12.1096,12.2161,12.2169,12.1928,12.231,12.2763,12.2921,12.2683,12.2759,12.3498,12.5026,12.3857,12.2655,12.1825,12.058,11.9122,11.7565,11.5869,11.3982,11.2108,11.0439,10.8825,10.7246,10.594,10.4953,10.3772,10.2198,10.0912,9.959,9.7954,9.6442,9.5123,9.3627,9.1845,9.0009,8.896,8.7765,8.6863,8.6246,8.6023,8.6023,8.6023,8.6274,8.6625,8.6174,8.6023,8.6023,8.6023,8.6023,8.6023,8.6023,8.6324,8.65,8.5366,8.5204,8.5331,8.3229,8.1695,8.0334,7.866,7.5568,7.2537,7.1761,7.0778,7.0,7.0039,7.0312,7.0586,7.0664,7.0664,7.0898,7.1719,7.1875,7.1953,7.1992,7.2344,7.2617,7.2695,7.332,7.3588,7.2786,7.2606,7.1697,7.0304,6.8577,6.6837,6.5379,6.2996,6.0958,5.947,5.7103,5.5294,5.3475,5.2562,5.1952,5.1036,5.1036,5.1009,5.1009,5.1009,5.0423,4.9503,4.7965,4.6705,0.0,0.0,11.4244,11.5608,11.7148,0.0,11.9479,12.0123,12.0635,12.0628,12.1133,12.1461,12.1636,12.2013,12.2242,12.2547,12.2354,12.2288,12.2816,12.2504,12.1633,11.9848,11.874,11.7305,11.5348,11.4051,11.2807,11.1608,10.9296,10.7304,10.5869,10.4765,10.3827,10.3065,10.1965,10.0681,9.8961,9.7279,9.5404,9.3446,9.2177,9.0408,8.8342,8.7901,8.7187,8.6196,8.6023,8.6023,8.6023,8.6023,8.6073,8.6174,8.6023,8.6023,8.6023,8.6023,8.6023,8.6023,8.6023,8.6073,8.5899,8.4772,8.4663,8.4695,8.2233,8.0859,7.959,7.6391,7.4553,7.3094,7.1761,7.1062,7.0357,6.957,6.9609,6.9805,7.0156,7.0195,7.039,7.0898,7.125,7.1601,7.1953,7.207,7.2265,7.2617,7.2812,7.2887,7.2709,7.2339,7.1359,7.0267,6.7998,6.5963,6.45,6.2143,6.0363,5.8604,5.6773,5.5294,5.3475,5.2562,5.1952,5.1036,5.1036,5.0703,5.0091,5.0091,4.9503,4.8863,4.7014,4.5158,10.9196,11.1485,11.3661,11.4695,11.6423,0.0,0.0,11.9165,12.0046,11.9652,12.0229,12.0646,12.1105,12.1217,12.1251,12.1548,12.1446,12.1052,12.0764,12.0873,12.0416,11.9014,11.7987,11.6618,11.456,11.3099,11.1438,10.9273,10.7343,10.5847,10.5295,10.3931,10.2997,10.2357,10.0892,9.9417,9.8275,9.6121,9.4203,9.2422,9.1104,8.9193,8.7338,8.7338,8.6831,8.6023,8.6023,8.6023,8.6023,8.6023,8.6023,8.6023,8.6023,8.6023,8.6023,8.6023,8.6023,8.6023,8.6023,8.6023,8.5799,8.4624,8.4319,8.4157,8.1854,8.0196,7.8681,7.5709,7.4426,7.3492,7.1696,7.0862,7.0239,6.9715,6.9453,6.9492,6.9726,6.9805,6.9922,7.0312,7.0547,7.0937,7.1601,7.1875,7.207,7.2305,7.2265,7.1985,7.1575,7.0926,6.9741,6.8538,6.653,6.4541,6.276,6.0709,5.8675,5.6863,5.5072,5.3601,5.2396,5.149,5.0885,5.0581,5.0742,5.0491,4.9575,4.9399,4.8888,4.7965,4.6396,4.4537,10.9269,11.1193,11.3028,11.4069,11.5629,11.7002,0.0,0.0,0.0,11.9148,11.9526,12.0025,12.0572,12.0276,12.0182,12.0354,12.0123,11.9519,11.8752,11.897,11.8961,11.8105,11.72,11.5851,11.4122,11.2124,10.9812,10.6999,10.5522,10.4779,10.4591,10.3047,10.1929,10.1355,9.9279,9.8011,9.7418,9.491,9.2857,9.1771,9.0299,8.8458,8.6774,8.6774,8.6373,8.5671,8.5671,8.5722,8.5822,8.5822,8.5922,8.6023,8.6023,8.6023,8.6023,8.6023,8.6023,8.6023,8.6023,8.6023,8.5749,8.4624,8.4171,8.3358,8.1383,7.9535,7.7573,7.5523,7.442,7.35,7.125,7.0582,7.0381,6.9598,6.9375,6.9453,6.9453,6.9453,6.957,6.9922,7.0039,7.039,7.1211,7.164,7.1875,7.1992,7.1757,7.1202,7.0411,6.9318,6.8169,6.6538,6.5109,6.3097,6.0778,5.9027,5.7266,5.5199,5.3418,5.2225,5.1355,5.0428,5.0154,5.0154,5.0368,4.9922,4.9063,4.8658,4.7889,4.7039,4.5468,4.3604,10.9753,11.1303,11.305,11.383,11.5072,11.6393,11.757,0.0,11.8992,11.902,0.0,12.0086,11.9405,0.0,0.0,11.8858,11.8631,11.8185,11.7733,11.7344,11.6905,11.6457,11.4957,11.3742,11.3178,11.0433,10.8305,10.6566,10.4431,10.3092,10.2602,10.1016,9.9854,9.935,9.7712,9.6746,9.6161,9.387,9.2198,9.1174,9.0085,8.846,8.6159,8.6159,8.5559,8.4516,8.4516,8.4818,8.5219,8.5219,8.5571,8.6023,8.6023,8.6023,8.6023,8.6023,8.6023,8.6023,8.6023,8.6023,8.5799,8.53,8.3441,8.1422,8.0072,7.8792,7.7038,7.5045,7.4448,7.3542,7.1018,7.0616,7.0462,6.9127,6.914,6.9453,6.9453,6.9453,6.9453,6.9492,6.9844,7.039,7.1211,7.1406,7.1562,7.1953,7.1525,7.0857,7.0411,6.9095,6.756,6.5647,6.4249,6.2229,5.9936,5.8473,5.6647,5.4932,5.3418,5.2225,5.1355,5.0428,5.0154,5.0154,5.0181,4.9408,4.8148,4.8174,4.7407,4.6087,4.4537,4.2336,10.99,11.1376,11.2905,11.3196,11.484,11.6249,11.6534,11.7504,11.8386,11.8373,0.0,0.0,0.0,0.0,0.0,0.0,11.8586,11.8212,11.7397,11.6909,11.6234,11.5785,11.5015,11.3454,11.1128,10.8527,10.6527,10.5128,10.3864,10.2844,10.2183,10.1153,10.0114,9.8996,9.8052,9.7096,9.5933,9.3765,9.1999,9.0577,8.9226,8.7565,8.5972,8.5758,8.5318,8.4753,8.4534,8.4466,8.4667,8.4968,8.532,8.5571,8.5872,8.6023,8.6023,8.6023,8.6023,8.6023,8.6023,8.6023,8.5749,8.485,8.3261,8.1653,8.0446,7.8944,7.7224,7.5539,7.4425,7.3327,7.1034,7.0388,7.0199,6.8735,6.875,6.9101,6.9101,6.9258,6.9453,6.9453,6.957,6.9922,7.0508,7.1015,7.1445,7.1601,7.0747,7.0155,7.007,6.8131,6.5968,6.4699,6.3028,6.0738,5.843,5.7269,5.5519,5.3171,5.1427,5.0538,5.0241,4.9944,4.9646,4.9646,4.9833,4.9041,4.7665,4.797,4.6951,4.4304,4.3846,4.2358,11.056,11.1888,11.3218,11.3123,11.465,11.6134,11.571,11.6875,11.7964,11.797,11.7924,0.0,0.0,0.0,11.8297,11.8626,0.0,11.7828,11.7239,11.6536,11.5869,11.5528,11.4543,11.2798,10.9547,10.7146,10.5153,10.4197,10.2963,10.1907,10.0964,10.0429,9.9406,9.7935,9.7376,9.6492,9.5133,9.3121,9.1371,9.0128,8.8475,8.7088,8.6041,8.5406,8.4971,8.4732,8.4081,8.3964,8.4165,8.4567,8.4818,8.4968,8.5571,8.5772,8.5772,8.5922,8.6023,8.6023,8.6023,8.6023,8.5799,8.4624,8.3489,8.2345,8.0958,7.9041,7.7386,7.5953,7.4524,7.282,7.1083,7.0196,6.9758,6.8482,6.8359,6.8711,6.8828,6.9062,6.9336,6.9453,6.9453,6.957,6.9844,7.0547,7.1094,7.1328,7.0283,6.9729,6.9843,6.7319,6.5087,6.3964,6.1987,5.9742,5.7414,5.6259,5.4258,5.1306,5.0157,4.9272,4.9272,4.9272,4.9272,4.9272,4.9486,4.8726,4.7309,4.7716,4.6118,4.3148,4.3445,4.2024,11.2102,11.3316,11.4283,11.3926,11.4848,11.5692,11.5889,11.6671,11.7532,11.7727,11.7777,11.7924,11.805,11.7464,11.713,0.0,11.6838,0.0,0.0,11.5684,11.5214,11.504,11.2828,11.0612,10.8876,10.6331,10.4527,10.4034,10.1179,9.9255,9.8743,9.788,9.6653,9.5223,9.4679,9.4054,9.319,9.1603,9.0518,9.0132,8.8518,8.703,8.6046,8.4998,8.4204,8.3565,8.2923,8.301,8.3512,8.3562,8.3864,8.4416,8.4968,8.5169,8.5219,8.5822,8.6023,8.6023,8.6023,8.6023,8.5799,8.4624,8.3668,8.2755,8.0958,7.9041,7.7386,7.5953,7.4307,7.26,7.1124,7.0211,6.9277,6.8557,6.8403,6.832,6.8711,6.8828,6.8945,6.9375,6.9453,6.9453,6.9453,6.9844,7.043,7.125,7.0053,6.9388,6.9767,6.7319,6.4807,6.3401,6.1102,5.885,5.6579,5.481,5.3062,5.0718,4.9862,4.9272,4.9272,4.9272,4.9272,4.9272,4.9272,4.8543,4.7309,4.7334,4.5653,4.2896,4.3376,4.1712,11.3057,11.3829,11.4449,11.4356,11.5481,11.658,11.6488,11.722,11.7733,11.8244,11.772,11.728,11.7727,11.7092,0.0,0.0,0.0,11.5477,0.0,11.4265,11.3548,11.2918,11.1476,10.9598,10.7858,10.6258,10.4601,10.2644,10.1385,10.0142,9.9132,9.8105,9.7237,9.6001,9.5285,9.4256,9.301,9.1692,9.0464,8.8928,8.7935,8.6944,8.5884,8.5263,8.4846,8.4576,8.3728,8.3402,8.339,8.3578,8.3612,8.3813,8.4416,8.4818,8.5219,8.5822,8.6023,8.6023,8.6023,8.6023,8.5799,8.4624,8.4171,8.3489,8.119,7.9745,7.857,7.691,7.499,7.3047,7.1864,7.0215,6.8836,6.8333,6.7931,6.7773,6.789,6.8398,6.8867,6.8984,6.9258,6.9453,6.9453,6.957,6.958,6.9935,6.9132,6.87,6.7981,6.6088,6.4246,6.2519,6.085,5.885,5.6579,5.3967,5.1921,5.0452,4.9567,4.9272,4.9272,4.9272,4.9272,4.9272,4.9272,4.8734,4.7922,4.7532,4.5857,4.3534,4.3248,4.134,11.4264,11.4727,11.5421,11.5254,11.6357,11.7247,11.7232,11.7471,11.7824,11.8233,11.7562,11.7054,11.7459,11.697,0.0,0.0,0.0,0.0,0.0,11.3537,11.2636,11.1608,11.0457,10.9085,10.7606,10.5776,10.3944,10.205,10.0937,9.9781,9.8218,9.7398,9.6496,9.5456,9.4814,9.3976,9.2747,9.1632,9.0423,8.9106,8.7932,8.7158,8.6528,8.5254,8.4951,8.5107,8.4057,8.3524,8.3728,8.3921,8.3858,8.3909,8.4465,8.4652,8.4887,8.537,8.5822,8.6023,8.6023,8.6023,8.5749,8.485,8.4398,8.3944,8.1836,8.0259,7.9276,7.7386,7.5472,7.3578,7.2355,7.0629,6.8886,6.8345,6.7829,6.7305,6.7461,6.7969,6.8437,6.875,6.9023,6.9258,6.9453,6.9453,6.9346,6.8939,6.8712,6.7977,6.699,6.514,6.3618,6.2034,5.98,5.7576,5.481,5.277,5.104,5.0157,4.9567,4.9272,4.9272,4.9272,4.9272,4.9272,4.9272,4.8977,4.8089,4.7378,4.5959,4.3579,4.2926,4.099]},{"header":{"parameterUnit":"m.s-1","parameterCategory":1,"la1":30.6,"la2":29.2853,"lo1":-89.7004,"lo2":-87.6739,"dy":0.0162,"dx":0.0183,"nx":112,"ny":82,"refTime":"2023-11-15T06:00:00:Z","depth":0,"parameterNumber":3,"parameterNumberName":"V-component_of_WINDS"},"data":[0.0,0.0,0.0,0.0,0.0,0.0,0.0,0.0,0.0,0.0,0.0,0.0,0.0,0.0,0.0,0.0,0.0,0.0,0.0,0.0,0.0,0.0,0.0,0.0,0.0,0.0,0.0,0.0,0.0,0.0,0.0,0.0,0.0,0.0,0.0,0.0,0.0,0.0,0.0,0.0,0.0,0.0,0.0,0.0,0.0,0.0,0.0,0.0,0.0,0.0,0.0,0.0,0.0,0.0,0.0,0.0,0.0,0.0,0.0,0.0,0.0,0.0,0.0,0.0,0.0,0.0,0.0,0.0,0.0,0.0,0.0,0.0,0.0,0.0,0.0,0.0,0.0,0.0,0.0,0.0,0.0,0.0,0.0,0.0,0.0,0.0,0.0,0.0,0.0,0.0,6.482,6.6336,6.8933,7.1301,7.3232,7.434,7.5239,7.5995,0.0,0.0,0.0,0.0,0.0,0.0,0.0,0.0,0.0,0.0,0.0,0.0,0.0,0.0,0.0,0.0,0.0,0.0,0.0,0.0,0.0,0.0,0.0,0.0,0.0,0.0,0.0,0.0,0.0,0.0,0.0,0.0,0.0,0.0,0.0,0.0,0.0,0.0,0.0,0.0,0.0,0.0,0.0,0.0,0.0,0.0,0.0,0.0,0.0,0.0,0.0,0.0,0.0,0.0,0.0,0.0,0.0,0.0,0.0,0.0,0.0,0.0,0.0,0.0,0.0,0.0,0.0,0.0,0.0,0.0,0.0,0.0,0.0,0.0,0.0,0.0,0.0,0.0,0.0,0.0,0.0,0.0,0.0,0.0,0.0,0.0,0.0,0.0,0.0,0.0,0.0,0.0,0.0,0.0,0.0,0.0,0.0,0.0,0.0,0.0,0.0,0.0,0.0,0.0,6.721,6.9662,7.0975,7.2104,7.3232,7.434,7.5239,7.5995,0.0,0.0,0.0,0.0,0.0,0.0,0.0,0.0,0.0,0.0,0.0,0.0,0.0,0.0,0.0,0.0,0.0,0.0,0.0,0.0,0.0,0.0,0.0,0.0,0.0,0.0,0.0,0.0,0.0,0.0,0.0,0.0,0.0,0.0,0.0,0.0,0.0,0.0,0.0,0.0,0.0,0.0,0.0,0.0,0.0,0.0,0.0,0.0,0.0,0.0,0.0,0.0,0.0,0.0,0.0,0.0,0.0,0.0,0.0,0.0,0.0,0.0,0.0,0.0,0.0,0.0,0.0,0.0,0.0,0.0,0.0,0.0,0.0,0.0,0.0,0.0,0.0,0.0,0.0,0.0,0.0,0.0,0.0,0.0,0.0,0.0,0.0,0.0,0.0,0.0,0.0,0.0,0.0,0.0,0.0,0.0,0.0,0.0,0.0,0.0,0.0,0.0,0.0,6.805,7.0156,7.2204,7.3171,7.4039,7.5127,7.5927,7.6592,7.7118,7.8181,0.0,0.0,0.0,0.0,0.0,0.0,0.0,0.0,0.0,0.0,0.0,0.0,0.0,0.0,0.0,0.0,0.0,0.0,0.0,0.0,0.0,0.0,0.0,0.0,0.0,0.0,0.0,0.0,0.0,0.0,0.0,0.0,0.0,0.0,0.0,0.0,0.0,0.0,0.0,0.0,0.0,0.0,0.0,0.0,0.0,0.0,0.0,0.0,0.0,0.0,0.0,0.0,0.0,0.0,0.0,0.0,0.0,0.0,0.0,0.0,0.0,0.0,0.0,0.0,0.0,0.0,0.0,0.0,0.0,0.0,0.0,0.0,0.0,0.0,0.0,0.0,0.0,0.0,0.0,0.0,0.0,0.0,0.0,0.0,0.0,0.0,0.0,0.0,0.0,0.0,0.0,0.0,0.0,0.0,0.0,0.0,0.0,0.0,0.0,0.0,0.0,0.0,7.0889,7.2532,7.4078,7.5009,7.5926,7.7031,7.7257,7.7622,7.8366,7.9132,0.0,0.0,0.0,0.0,0.0,0.0,0.0,0.0,0.0,0.0,0.0,0.0,0.0,0.0,0.0,0.0,0.0,0.0,0.0,0.0,0.0,0.0,0.0,0.0,0.0,0.0,0.0,0.0,0.0,0.0,0.0,0.0,0.0,0.0,0.0,0.0,0.0,0.0,0.0,0.0,0.0,0.0,0.0,0.0,0.0,0.0,0.0,0.0,0.0,0.0,0.0,0.0,0.0,0.0,0.0,0.0,0.0,0.0,0.0,0.0,0.0,0.0,0.0,0.0,0.0,0.0,0.0,0.0,0.0,0.0,0.0,0.0,0.0,0.0,0.0,0.0,0.0,0.0,0.0,0.0,0.0,0.0,0.0,0.0,0.0,0.0,0.0,0.0,0.0,0.0,0.0,0.0,0.0,0.0,0.0,0.0,0.0,0.0,0.0,0.0,0.0,0.0,7.2391,7.3657,7.5009,7.5803,7.6583,7.7698,7.7501,7.7806,7.9052,7.9385,0.0,0.0,0.0,0.0,0.0,0.0,0.0,0.0,0.0,0.0,0.0,0.0,0.0,0.0,0.0,0.0,0.0,0.0,0.0,0.0,0.0,0.0,0.0,0.0,0.0,0.0,0.0,0.0,0.0,0.0,0.0,0.0,0.0,0.0,0.0,0.0,0.0,0.0,0.0,0.0,0.0,0.0,0.0,0.0,0.0,0.0,0.0,0.0,0.0,0.0,0.0,0.0,0.0,0.0,0.0,0.0,0.0,0.0,0.0,0.0,0.0,0.0,0.0,0.0,0.0,0.0,0.0,0.0,0.0,0.0,0.0,0.0,0.0,0.0,0.0,0.0,0.0,0.0,0.0,0.0,0.0,0.0,0.0,0.0,0.0,0.0,0.0,0.0,0.0,0.0,0.0,0.0,0.0,0.0,0.0,0.0,0.0,0.0,0.0,0.0,0.0,0.0,7.3657,7.5046,7.6397,7.7039,7.7584,7.8365,7.8034,7.8029,7.8984,0.0,0.0,0.0,0.0,0.0,0.0,0.0,0.0,0.0,0.0,0.0,0.0,0.0,0.0,0.0,0.0,0.0,0.0,0.0,0.0,0.0,0.0,0.0,0.0,0.0,0.0,0.0,0.0,0.0,0.0,0.0,0.0,0.0,0.0,0.0,0.0,0.0,0.0,0.0,0.0,0.0,0.0,0.0,0.0,0.0,0.0,0.0,0.0,0.0,0.0,0.0,0.0,0.0,0.0,0.0,0.0,0.0,0.0,0.0,0.0,0.0,0.0,0.0,0.0,0.0,0.0,0.0,0.0,0.0,0.0,0.0,0.0,0.0,0.0,0.0,0.0,0.0,0.0,0.0,0.0,0.0,0.0,0.0,0.0,0.0,0.0,0.0,0.0,0.0,0.0,0.0,0.0,0.0,0.0,0.0,0.0,0.0,0.0,0.0,0.0,0.0,0.0,7.3657,7.5105,7.6278,7.7313,7.7838,7.8386,7.9232,7.8443,7.8322,7.9296,0.0,0.0,0.0,0.0,0.0,0.0,0.0,0.0,0.0,0.0,0.0,0.0,0.0,0.0,0.0,0.0,0.0,0.0,0.0,0.0,0.0,0.0,0.0,0.0,0.0,0.0,0.0,0.0,0.0,0.0,0.0,0.0,0.0,0.0,0.0,0.0,0.0,0.0,0.0,0.0,0.0,0.0,0.0,0.0,0.0,0.0,0.0,0.0,0.0,0.0,0.0,0.0,0.0,0.0,0.0,0.0,0.0,0.0,0.0,0.0,0.0,0.0,0.0,0.0,0.0,0.0,0.0,0.0,0.0,0.0,0.0,0.0,0.0,0.0,0.0,0.0,0.0,0.0,0.0,0.0,0.0,0.0,0.0,0.0,0.0,0.0,0.0,0.0,0.0,0.0,0.0,0.0,0.0,0.0,0.0,0.0,0.0,0.0,0.0,0.0,0.0,0.0,7.5068,7.6456,7.7432,7.7801,7.84,7.9046,7.9759,7.8747,7.8505,0.0,0.0,0.0,0.0,0.0,0.0,0.0,0.0,0.0,0.0,0.0,0.0,0.0,0.0,0.0,0.0,0.0,0.0,0.0,0.0,0.0,0.0,0.0,0.0,0.0,0.0,0.0,0.0,0.0,0.0,0.0,0.0,0.0,0.0,0.0,0.0,0.0,0.0,0.0,0.0,0.0,0.0,0.0,0.0,0.0,0.0,0.0,0.0,0.0,0.0,0.0,0.0,0.0,0.0,0.0,0.0,0.0,0.0,0.0,0.0,0.0,0.0,0.0,0.0,0.0,0.0,0.0,0.0,0.0,0.0,0.0,0.0,0.0,0.0,0.0,0.0,0.0,0.0,0.0,0.0,0.0,0.0,0.0,0.0,0.0,0.0,0.0,0.0,0.0,0.0,0.0,0.0,0.0,0.0,0.0,0.0,0.0,0.0,0.0,0.0,0.0,0.0,0.0,7.6575,7.7277,7.7838,7.846,7.8699,7.8903,7.9475,7.8971,7.8857,7.9316,0.0,0.0,0.0,0.0,0.0,0.0,0.0,0.0,0.0,0.0,0.0,0.0,0.0,0.0,0.0,0.0,0.0,0.0,0.0,0.0,0.0,0.0,0.0,0.0,0.0,0.0,0.0,0.0,0.0,0.0,0.0,0.0,0.0,0.0,0.0,0.0,0.0,0.0,0.0,0.0,0.0,0.0,0.0,0.0,0.0,0.0,0.0,0.0,0.0,0.0,0.0,0.0,0.0,0.0,0.0,0.0,0.0,0.0,0.0,0.0,0.0,0.0,0.0,0.0,0.0,0.0,0.0,0.0,0.0,0.0,0.0,0.0,0.0,0.0,0.0,0.0,0.0,0.0,0.0,0.0,0.0,0.0,0.0,0.0,0.0,0.0,0.0,0.0,0.0,0.0,0.0,0.0,0.0,0.0,0.0,0.0,0.0,0.0,0.0,0.0,0.0,0.0,7.7253,7.7898,7.834,7.8759,7.8819,7.8963,7.9393,7.9012,7.8902,7.8974,0.0,0.0,0.0,0.0,0.0,0.0,0.0,0.0,0.0,0.0,0.0,0.0,0.0,0.0,0.0,0.0,0.0,0.0,0.0,0.0,0.0,0.0,0.0,0.0,0.0,0.0,0.0,0.0,0.0,0.0,0.0,0.0,0.0,0.0,0.0,0.0,0.0,0.0,0.0,0.0,0.0,0.0,0.0,0.0,0.0,0.0,0.0,0.0,0.0,0.0,0.0,0.0,0.0,0.0,0.0,0.0,0.0,0.0,0.0,0.0,0.0,0.0,0.0,0.0,0.0,0.0,0.0,0.0,0.0,0.0,0.0,0.0,0.0,0.0,0.0,0.0,0.0,0.0,0.0,0.0,0.0,0.0,0.0,0.0,0.0,0.0,0.0,0.0,0.0,0.0,0.0,0.0,0.0,0.0,0.0,0.0,0.0,0.0,0.0,0.0,0.0,0.0,7.7801,7.84,7.8819,7.8819,7.8819,7.8963,7.9393,7.9073,7.8963,7.8974,0.0,0.0,0.0,0.0,0.0,0.0,0.0,0.0,0.0,0.0,0.0,0.0,0.0,0.0,0.0,0.0,0.0,0.0,0.0,0.0,0.0,0.0,0.0,0.0,0.0,0.0,0.0,0.0,0.0,0.0,0.0,0.0,0.0,0.0,0.0,0.0,0.0,0.0,0.0,0.0,0.0,0.0,0.0,0.0,0.0,0.0,0.0,0.0,0.0,0.0,0.0,0.0,0.0,0.0,0.0,0.0,0.0,0.0,0.0,0.0,4.9686,4.9956,0.0,0.0,0.0,0.0,0.0,0.0,0.0,0.0,0.0,0.0,0.0,0.0,0.0,0.0,0.0,0.0,0.0,0.0,0.0,0.0,0.0,0.0,0.0,0.0,0.0,0.0,0.0,0.0,0.0,0.0,0.0,0.0,0.0,0.0,0.0,0.0,0.0,0.0,0.0,0.0,7.8519,7.8699,7.8819,7.8819,7.8819,7.8759,7.8963,7.9354,7.9172,7.8156,7.9058,0.0,0.0,0.0,0.0,0.0,0.0,0.0,0.0,0.0,0.0,0.0,0.0,0.0,0.0,0.0,0.0,0.0,0.0,0.0,0.0,0.0,0.0,0.0,0.0,0.0,0.0,0.0,0.0,0.0,0.0,0.0,0.0,0.0,0.0,0.0,0.0,0.0,0.0,0.0,0.0,0.0,0.0,0.0,0.0,0.0,0.0,0.0,0.0,0.0,0.0,0.0,0.0,0.0,0.0,0.0,0.0,0.0,0.0,0.0,5.2565,5.1962,0.0,0.0,0.0,0.0,0.0,0.0,0.0,0.0,0.0,0.0,0.0,0.0,0.0,0.0,0.0,0.0,0.0,0.0,0.0,0.0,0.0,0.0,0.0,0.0,0.0,0.0,0.0,0.0,0.0,0.0,0.0,0.0,0.0,0.0,0.0,0.0,0.0,0.0,0.0,0.0,7.8699,7.8819,7.8819,7.8819,7.8819,7.8819,7.8819,7.9475,7.9354,7.8018,7.8912,0.0,0.0,0.0,0.0,0.0,0.0,0.0,0.0,0.0,0.0,0.0,0.0,0.0,0.0,0.0,0.0,0.0,0.0,0.0,0.0,0.0,0.0,0.0,0.0,0.0,0.0,0.0,0.0,0.0,0.0,0.0,0.0,0.0,0.0,0.0,0.0,0.0,0.0,0.0,0.0,0.0,0.0,0.0,0.0,0.0,0.0,0.0,0.0,0.0,0.0,0.0,0.0,0.0,5.4319,5.5426,5.6341,5.6373,5.7241,5.8506,5.6083,5.4784,5.4654,5.5156,0.0,0.0,0.0,0.0,0.0,0.0,0.0,0.0,0.0,0.0,0.0,0.0,0.0,0.0,0.0,0.0,0.0,0.0,0.0,0.0,0.0,0.0,6.7617,6.8754,7.0529,7.1826,7.122,0.0,0.0,0.0,0.0,0.0,0.0,0.0,0.0,0.0,0.0,0.0,7.8699,7.8819,7.8819,7.8819,7.8819,7.8819,7.8963,7.9475,7.9414,7.82,7.9109,7.9157,0.0,0.0,0.0,0.0,0.0,0.0,0.0,0.0,0.0,0.0,0.0,0.0,0.0,0.0,0.0,0.0,0.0,0.0,0.0,0.0,0.0,0.0,0.0,0.0,0.0,0.0,0.0,0.0,0.0,0.0,0.0,0.0,4.0937,4.1016,0.0,0.0,0.0,0.0,0.0,0.0,0.0,0.0,0.0,0.0,0.0,0.0,0.0,5.2045,5.3474,5.5311,5.6632,5.7503,5.8484,5.9412,6.0371,6.0791,6.1304,6.1911,6.137,0.0,5.7819,5.813,0.0,0.0,0.0,0.0,0.0,0.0,0.0,0.0,0.0,0.0,0.0,0.0,0.0,0.0,0.0,0.0,0.0,0.0,0.0,0.0,0.0,0.0,6.9691,7.1199,7.2916,7.4256,7.4459,7.4661,7.4864,7.5579,7.604,7.6301,0.0,0.0,0.0,0.0,0.0,0.0,7.8759,7.8819,7.8819,7.8819,7.8819,7.8963,7.925,7.9617,7.9737,7.9284,7.9552,7.9406,7.899,7.9572,0.0,0.0,0.0,0.0,0.0,0.0,0.0,0.0,0.0,0.0,0.0,0.0,0.0,0.0,0.0,0.0,0.0,0.0,0.0,0.0,0.0,0.0,0.0,0.0,0.0,0.0,0.0,0.0,0.0,4.1445,4.2226,4.2226,4.3398,4.418,0.0,0.0,0.0,0.0,0.0,0.0,0.0,0.0,0.0,5.306,5.4066,5.557,5.722,5.8752,5.9838,6.0836,6.2147,6.3147,6.3792,6.4214,6.492,6.5517,6.5149,6.4403,6.3078,6.1371,6.0886,6.1046,0.0,0.0,0.0,0.0,6.0563,6.0512,5.991,5.9759,5.9759,5.9759,0.0,0.0,0.0,0.0,0.0,0.0,0.0,6.7114,6.848,7.0311,7.1878,7.2971,7.4822,7.6471,7.7005,7.7593,7.7563,7.6575,7.6718,7.736,7.7861,7.8519,0.0,0.0,0.0,7.9896,7.9896,7.9896,7.9776,7.9417,7.9502,7.9671,7.9393,7.99,8.0078,7.982,8.0057,8.0098,7.9937,8.0455,8.1221,0.0,0.0,0.0,0.0,0.0,0.0,0.0,0.0,0.0,0.0,0.0,0.0,0.0,0.0,0.0,0.0,0.0,0.0,0.0,0.0,0.0,0.0,0.0,0.0,0.0,0.0,0.0,0.0,4.2773,4.3594,4.3594,4.4805,4.5664,0.0,0.0,0.0,0.0,0.0,0.0,5.1957,5.3295,5.479,5.6772,5.7863,5.9271,6.1194,6.2501,6.3479,6.446,6.5855,6.6698,6.727,6.7616,6.8395,6.8875,6.8509,6.814,6.7794,6.4693,6.3494,6.3676,6.3676,6.3676,6.3626,6.3073,6.2772,6.2571,6.2019,6.1718,6.1617,6.1617,6.1878,6.2139,6.277,0.0,0.0,0.0,0.0,6.9417,7.096,7.2551,7.4027,7.5116,7.6682,7.8289,7.8832,7.9693,7.9753,7.7789,7.8077,7.8759,7.9238,7.9716,0.0,8.0734,8.0794,8.0794,8.0794,8.0794,8.0614,8.0282,8.0333,8.032,7.998,8.0304,8.0556,8.0415,8.0772,8.0994,8.1018,8.1536,8.2302,8.3322,0.0,0.0,0.0,0.0,0.0,0.0,0.0,0.0,0.0,0.0,0.0,0.0,0.0,0.0,0.0,0.0,0.0,0.0,0.0,0.0,0.0,0.0,0.0,0.0,0.0,0.0,0.0,0.0,0.0,4.4922,4.6406,0.0,0.0,0.0,0.0,5.086,5.2599,5.3861,5.4506,5.6293,5.8335,6.0113,6.1704,6.3354,6.4794,6.6858,6.8108,6.8685,6.9743,7.042,7.1044,7.1567,7.1757,7.1757,7.1775,7.141,7.0656,6.7894,6.6438,6.5936,6.5936,6.5936,6.5886,6.5333,6.4781,6.4279,6.3726,6.3224,6.2722,6.2722,6.3451,6.4449,6.578,6.7004,0.0,0.0,7.0234,7.1741,7.3626,7.4744,7.591,7.7781,7.8874,7.9539,7.999,8.0497,8.0734,8.0614,8.0614,8.0674,8.0674,0.0,8.0734,8.0794,8.0794,8.0794,8.0794,8.0794,8.0941,8.1382,8.0779,8.0646,8.1298,8.117,8.1155,8.1566,8.1886,8.2166,8.2166,8.2748,8.3258,8.37,8.4722,0.0,0.0,0.0,0.0,0.0,0.0,0.0,0.0,0.0,0.0,0.0,0.0,0.0,0.0,0.0,0.0,0.0,0.0,0.0,0.0,0.0,0.0,0.0,0.0,0.0,0.0,0.0,0.0,4.7422,4.8516,0.0,5.0793,5.1507,5.272,5.4677,5.5683,5.7004,5.8837,6.0462,6.2283,6.4405,6.5637,6.7123,6.9021,7.0206,7.109,7.2072,7.301,7.37,7.3897,7.4484,7.468,7.468,7.4674,7.4071,7.3167,7.2163,7.0355,6.8246,6.8246,6.8246,6.8196,6.7643,6.7091,6.6538,6.5986,6.5434,6.4931,6.5268,6.6092,6.7016,6.8253,6.9066,6.9881,7.2008,7.2993,7.4143,7.6057,7.7477,7.8837,8.002,8.1156,8.2289,8.254,8.3001,8.3307,8.3307,8.1931,8.0913,8.1332,8.1452,8.1572,8.1991,8.205,8.205,8.205,8.235,8.2379,8.2105,8.2244,8.2336,8.1845,8.1957,8.2199,8.2575,8.2723,8.3123,8.3899,8.4282,8.4786,8.5036,8.5669,8.6169,0.0,0.0,0.0,0.0,0.0,0.0,0.0,0.0,0.0,0.0,0.0,0.0,0.0,0.0,0.0,0.0,0.0,0.0,0.0,0.0,0.0,0.0,0.0,0.0,0.0,4.7773,4.8945,4.9648,5.0934,5.2264,5.325,5.4562,5.5887,5.803,5.9137,6.0453,6.2516,6.4429,6.6211,6.8008,6.9454,7.1183,7.2988,7.335,7.4361,7.5364,7.6177,7.6581,7.6782,7.6984,7.7185,7.7185,7.6984,7.6381,7.5527,7.5327,7.382,7.161,7.0857,7.0556,7.0506,6.9953,6.9401,6.8798,6.8222,6.7718,6.759,6.8285,6.8974,6.9709,7.0638,7.1529,7.2578,7.4344,7.5567,7.6789,7.8228,7.9608,8.0928,8.1891,8.2878,8.3805,8.4276,8.4528,8.4743,8.4743,8.3307,8.229,8.2709,8.2769,8.2888,8.3367,8.3427,8.3427,8.3579,8.3643,8.3702,8.3516,8.3679,8.344,8.3005,8.3145,8.3255,8.3619,8.3761,8.4283,8.4922,8.5425,8.5799,8.5923,8.6553,8.7117,8.7865,0.0,0.0,0.0,0.0,0.0,0.0,0.0,0.0,0.0,0.0,0.0,0.0,0.0,0.0,0.0,0.0,0.0,0.0,0.0,0.0,0.0,0.0,0.0,4.8437,4.9805,5.1055,5.1484,5.3647,5.5323,5.5769,5.7966,5.999,6.1074,6.3041,6.4734,6.5698,6.834,7.0331,7.1344,7.3346,7.514,7.6304,7.6728,7.757,7.8615,7.8615,7.903,7.9495,7.9495,7.9444,7.9444,7.8842,7.8289,7.7737,7.7185,7.6632,7.5929,7.372,7.2816,7.2765,7.2213,7.1661,7.1192,7.0447,7.0272,7.0451,7.152,7.205,7.2525,7.3048,7.4513,7.6032,7.6204,7.7837,7.9801,8.0301,8.1292,8.2488,8.3449,8.3924,8.4336,8.4708,8.4863,8.4863,8.4863,8.4863,8.4803,8.4743,8.4743,8.4743,8.4743,8.4743,0.0,8.53,8.4758,8.4638,8.5536,8.4812,8.43,8.4727,8.4593,8.4315,8.4448,8.4925,8.53,8.5425,8.6046,8.6413,8.6479,8.7446,8.8659,8.9927,0.0,0.0,0.0,0.0,0.0,0.0,0.0,0.0,0.0,0.0,0.0,0.0,0.0,0.0,0.0,0.0,0.0,0.0,0.0,0.0,0.0,5.0976,5.1523,5.0664,5.1758,5.3247,5.4753,5.6027,5.7611,5.9733,6.1148,6.2797,6.5196,6.645,6.8234,7.0592,7.2108,7.3763,7.5774,7.717,7.816,7.8959,8.0042,8.0687,8.0901,8.1328,8.1542,8.1754,8.1353,8.1152,8.1102,8.0599,8.0047,7.9495,7.9344,7.8741,7.7687,7.5829,7.4875,7.4523,7.4372,7.3911,7.3382,7.2809,7.311,7.3844,7.4391,7.4935,7.5476,7.6725,7.7539,7.8338,8.0118,8.1087,8.1999,8.3477,8.4437,8.5106,8.6097,8.6587,8.7074,8.7396,8.7616,8.7616,8.7616,8.7616,8.6958,8.5043,8.4743,8.4743,8.4743,8.4743,8.4898,8.5361,8.5485,8.5637,8.5894,8.5965,8.5862,8.5849,8.6094,8.6188,8.6467,8.6401,8.6705,8.7201,8.7502,8.825,8.9261,8.9527,8.9847,0.0,0.0,0.0,0.0,0.0,0.0,0.0,0.0,0.0,0.0,0.0,0.0,0.0,0.0,0.0,0.0,0.0,0.0,0.0,0.0,0.0,0.0,5.3086,5.4062,5.4101,5.4609,5.56,5.7375,5.8662,6.0413,6.2638,6.4434,6.6259,6.8326,7.0182,7.2008,7.407,7.5793,7.7389,7.9253,8.0228,8.1413,8.2303,8.2917,8.3257,8.3277,8.3495,8.3562,8.3361,8.301,8.2859,8.2809,8.2056,8.1553,8.1202,8.075,8.0147,7.9394,0.0,0.0,0.0,0.0,7.5768,7.5346,7.5182,7.5841,7.6732,7.7084,7.7719,7.8582,7.9218,8.0057,8.0996,8.2437,8.3188,8.3991,8.519,8.6153,8.6656,8.7487,8.7981,8.8308,8.8693,8.8693,8.8693,8.8693,8.8693,0.0,8.6659,8.6359,8.6299,8.6,8.6098,8.635,8.6514,8.6671,8.6971,8.7137,8.7311,8.7403,8.7222,8.747,0.0,0.0,0.0,8.8292,8.8967,8.9141,0.0,0.0,0.0,9.1595,9.205,9.3312,0.0,0.0,9.2997,9.3588,0.0,0.0,0.0,0.0,0.0,0.0,0.0,0.0,0.0,0.0,0.0,0.0,0.0,0.0,0.0,0.0,5.5156,5.6719,5.7969,5.8008,5.8344,5.9715,6.154,6.3371,6.5225,6.7697,6.9837,7.1001,7.3813,7.5858,7.6871,7.9122,0.0,0.0,0.0,8.4141,8.5274,8.5274,8.5425,8.542,8.542,8.5169,8.4667,8.4567,8.4516,8.4466,8.3361,8.2859,8.2759,8.1754,8.1252,8.0951,7.9344,7.839,7.7888,7.7285,7.7131,7.7319,7.7804,0.0,0.0,7.954,8.0455,8.1459,8.1281,8.238,8.3799,8.3975,8.4846,8.5937,8.639,8.7066,8.7901,8.8397,8.8726,8.8993,8.8993,8.8933,8.8873,8.8873,8.8873,8.8873,8.8873,8.8813,8.8514,8.7915,8.8116,8.8352,8.8097,8.8257,8.8494,8.8905,8.8801,0.0,8.8766,8.891,8.8928,8.8993,8.942,9.0006,9.0672,9.0858,9.126,9.1998,9.2601,9.346,9.4442,9.5305,9.5832,9.6142,9.6007,9.5939,0.0,0.0,0.0,0.0,0.0,0.0,0.0,0.0,0.0,0.0,0.0,0.0,0.0,0.0,0.0,5.5742,5.7422,5.8906,5.9805,6.1515,6.2649,6.2783,6.47,6.6679,6.834,7.0889,7.3121,7.4188,7.6632,7.8579,8.0166,8.1707,8.3153,8.4148,8.545,8.6139,8.6367,8.6824,8.7051,8.7128,8.7128,0.0,8.6927,8.6073,8.5671,8.5621,8.4466,8.4014,8.3964,8.3311,8.2457,8.1553,8.0348,7.9796,7.9595,7.8999,7.915,7.9598,8.0125,8.0752,8.1475,8.271,8.3279,8.3789,8.5351,8.6026,0.0,8.7648,8.8534,8.9061,8.9584,9.0275,9.096,9.113,9.1111,9.1027,9.1027,9.0608,9.0249,9.0249,9.0249,9.0249,9.0249,8.9412,8.8634,8.8514,8.8777,8.9017,8.8825,8.9421,8.9845,8.9703,8.9969,9.0379,9.0976,9.1328,9.1599,9.1912,9.1935,9.2145,9.2506,9.3111,9.3904,9.4887,9.5142,9.5615,9.6359,9.7102,9.7778,9.8442,9.7225,9.7022,0.0,0.0,0.0,0.0,0.0,0.0,0.0,0.0,0.0,0.0,0.0,5.2461,5.3789,0.0,5.6445,5.7969,5.9453,6.0859,6.1875,6.4314,6.5549,6.4702,6.6692,6.9024,7.1149,7.3461,7.5686,7.7669,7.9543,8.1475,8.3275,8.4465,8.5652,8.6896,8.7887,8.8539,8.8822,8.9005,8.8986,8.8433,8.8433,8.8132,8.758,8.7027,8.6826,8.6776,8.5671,8.5169,8.5069,8.4265,8.3562,8.296,8.2156,8.1353,8.0549,8.0619,8.0983,8.1545,8.2299,8.3393,8.4274,8.4656,8.5587,8.6422,8.6924,8.7486,8.8211,8.9227,8.9758,9.0343,9.104,9.1559,9.1902,9.2244,9.2175,9.2105,9.2105,9.1865,9.1626,9.1626,9.1327,9.1147,9.1147,9.0474,8.9858,8.9558,8.9822,9.0001,9.0122,9.0837,9.138,9.1208,9.1636,9.1974,9.2094,9.2645,9.3231,9.379,9.3886,9.4052,9.4414,9.4752,9.548,9.6345,9.6683,9.7225,9.7969,9.8713,9.9525,10.0202,9.9863,9.9728,0.0,0.0,0.0,0.0,0.0,0.0,0.0,4.935,5.1055,5.2344,5.332,5.4453,5.6015,5.7148,5.8359,5.9922,6.125,6.2539,6.4108,6.6304,6.7478,6.6913,6.8937,7.1309,7.3363,7.5847,7.8015,8.0499,8.2215,8.3837,8.5707,8.7012,8.8216,8.918,8.9856,9.057,9.0944,9.0944,9.0492,8.9588,8.9588,8.9086,8.8082,8.7931,8.7881,8.768,8.6625,8.6073,8.5922,8.4918,8.4416,8.4265,8.4031,8.3074,8.1816,8.2145,8.2619,8.3242,8.4321,8.5486,8.6781,8.6593,8.7806,8.8962,8.832,8.8895,9.0156,9.0513,9.0986,9.1629,9.2323,9.2377,9.249,9.2832,9.2883,9.2763,9.2763,9.2703,9.2583,9.2583,9.2165,9.1805,9.1973,9.1886,9.1449,9.0605,9.0971,9.121,9.1327,9.2133,9.2795,9.2847,9.3434,9.3701,9.3806,9.4288,9.4923,9.5427,9.58,9.6169,9.6413,9.6548,9.6954,9.7495,9.8307,9.9051,9.9728,10.054,10.1284,10.2096,10.2705,10.2502,4.4221,4.467,4.5187,4.6113,4.7347,4.8672,0.0,5.1133,5.2812,5.4101,5.5351,5.6523,5.7461,5.8984,6.039,6.1367,6.2578,6.4147,6.5893,6.7666,6.9305,7.0794,7.2199,7.3901,7.5503,7.781,8.0079,8.206,8.3847,8.5403,8.6962,8.8659,8.9673,8.9945,9.092,9.1497,9.0944,9.0944,9.0844,9.0743,9.0743,9.0442,8.9789,8.9287,8.8835,8.8283,8.7178,8.6425,8.5922,8.532,8.4717,8.4265,8.487,8.4986,8.4631,8.3795,8.4069,8.5,8.5496,8.6544,8.7735,8.8941,8.985,9.0803,9.1948,9.2632,9.3241,9.3789,9.41,9.434,9.4516,9.445,9.4379,9.4379,9.39,9.3481,9.3481,9.3002,9.2583,9.2583,9.2524,9.2633,9.303,9.3137,9.2655,9.1389,9.1861,9.2361,9.216,9.3124,9.3787,9.3985,9.5018,9.6222,9.7523,9.7654,9.777,9.8086,9.8464,9.8713,9.8713,9.939,9.9796,9.9863,10.0608,10.1352,10.2096,10.2908,10.3585,10.4261,10.4396,10.4058,4.68,4.6888,4.7306,4.8973,5.0007,5.0892,5.2452,5.3469,5.4648,5.6211,5.7383,5.8437,5.9531,6.0976,6.2226,6.3086,6.4297,6.5677,6.7209,6.8825,7.0602,7.2243,7.4047,7.5985,7.7326,7.9782,8.1956,8.4204,8.5711,8.7376,8.8946,9.0465,9.1398,9.1933,9.2811,9.3104,9.2852,9.2852,9.2551,9.1898,9.1898,9.1446,9.0593,9.0342,8.9789,8.8885,8.8132,8.7429,8.6927,8.6324,8.5922,8.5722,8.568,8.5864,8.6198,8.5979,8.6044,8.6359,8.7949,8.8639,8.9311,9.0549,9.1345,9.2241,9.3209,9.3648,9.4198,9.5105,9.5287,9.5407,9.5821,9.5759,9.5755,9.5755,9.5217,9.4738,9.4738,9.4259,9.378,9.378,9.3421,9.3352,9.3861,9.3727,9.3577,9.3689,9.3586,9.3699,9.4338,9.4739,9.5233,9.5998,9.6883,9.7649,9.8455,9.8779,9.9094,9.9222,9.9476,9.9728,9.9728,10.0472,10.1081,10.1555,10.2299,10.2976,10.3787,10.4532,10.5276,10.5953,10.6426,10.6831,4.9255,4.8955,4.9422,5.1467,5.2281,5.3139,5.5078,5.5703,5.6484,5.8203,5.918,6.0117,6.1367,6.2578,6.3711,6.4648,6.5703,6.6853,6.8572,6.9999,7.1709,7.3705,7.5781,7.7699,7.9297,8.1135,8.337,8.6026,8.7403,8.8877,9.0902,9.1937,9.2928,9.3521,9.4164,9.4409,9.4208,9.4208,9.3807,9.3003,9.2903,9.23,9.1346,9.1095,9.0442,8.9488,8.8935,8.8383,8.778,8.7278,8.7027,8.7153,8.6863,8.7118,8.7942,8.845,8.8407,8.8194,8.9799,9.0752,9.1316,9.2251,9.3187,9.4102,9.4577,9.5082,9.5454,9.6178,9.6358,9.6418,9.6833,9.6713,9.6593,9.6593,9.6234,9.5875,9.5875,9.5516,9.5157,9.5157,9.4791,9.4483,9.4996,9.4957,9.5136,9.5854,9.5723,9.5803,9.64,9.6881,9.7358,9.8645,9.9098,9.965,10.0052,10.058,10.0905,10.1034,10.1291,10.1419,10.1419,10.1961,10.257,10.3111,10.399,10.4802,10.5276,10.6291,10.6967,10.7509,10.8254,10.8999,5.0981,5.1056,5.1561,5.3436,5.4051,5.4916,5.6621,5.7461,5.8281,6.0,6.0742,6.1445,6.2734,6.3672,6.4726,6.5937,6.6562,6.7773,7.036,7.0858,7.2211,7.5908,7.7232,7.8991,8.1524,8.2333,8.4011,8.7357,8.8161,8.9704,9.2185,9.2726,9.3274,9.4259,9.4761,9.4811,9.4208,9.4208,9.4208,9.4158,9.3656,9.3053,9.2501,9.1446,9.0593,9.004,8.9538,8.8935,8.8383,8.778,8.7807,8.8436,8.8499,8.9181,9.0176,9.0948,9.0629,9.0239,9.0859,9.2495,9.4301,9.4838,9.5555,9.6434,9.7001,9.7522,9.7724,9.7724,9.761,9.7491,9.7491,9.7012,9.6593,9.6593,9.6533,9.6533,9.6533,9.6533,9.6533,9.6533,9.6285,9.6385,9.6668,9.697,9.7374,9.7703,9.8216,9.8472,9.784,9.9089,10.0507,10.1658,10.2288,10.264,10.3327,10.3733,10.4134,10.4532,10.4599,10.4599,10.4599,10.4599,10.4599,10.4599,10.6088,10.6764,10.6832,10.8388,10.9065,10.9065,10.9543,11.0086,5.3191,5.3383,5.3974,5.5979,5.666,5.7205,5.8984,5.9453,6.0,6.1445,6.2305,6.3047,6.375,6.4844,6.582,6.6523,6.7265,6.8521,7.048,7.1341,7.2864,7.5993,7.779,7.9514,8.206,8.4168,8.5763,8.7404,8.9584,9.152,9.3267,9.4312,9.5262,9.6468,9.6669,9.6468,9.5866,9.5866,9.5514,9.4811,9.3807,9.3304,9.3053,9.1999,9.1396,9.1195,9.0241,8.9689,8.9488,8.8993,8.8818,8.9272,9.0007,9.0206,9.0499,9.2285,9.2754,9.2621,9.3062,9.3893,9.4555,9.6265,9.6922,9.7322,9.8702,9.9083,9.909,9.9459,9.9164,9.8808,9.8808,9.8329,9.785,9.785,9.7491,9.7192,9.7192,9.6833,9.677,9.7061,9.7056,9.7222,9.8254,9.8579,9.9126,10.0445,9.9863,9.9311,9.9368,10.0279,10.1295,10.2214,10.2911,10.346,10.4069,10.4269,10.4535,10.4667,10.4667,10.487,10.5411,10.5885,10.6358,10.69,10.7915,10.8388,10.8388,10.9403,11.0286,11.1037,11.1718,11.2606,5.5302,5.5785,5.6173,5.8359,5.8789,5.918,6.0781,6.1133,6.1445,6.2578,6.3398,6.4101,6.4648,6.5703,6.664,6.7265,6.7969,6.9111,7.1001,7.1824,7.3313,7.6544,7.8305,8.0253,8.2552,8.555,8.7458,8.8015,9.081,9.2804,9.4152,9.5456,9.6411,9.7573,9.7573,9.7422,9.7071,9.7071,9.6468,9.5363,9.4409,9.3807,9.3405,9.2702,9.2149,9.1798,9.1045,9.0442,9.004,9.0032,9.0086,9.006,9.1075,9.1715,9.2003,9.3518,9.4677,9.528,9.5063,9.5312,9.5829,9.7538,9.8194,9.8534,9.9726,10.0167,10.0114,10.0483,10.0184,9.9885,9.9885,9.9526,9.9226,9.9226,9.8688,9.8209,9.8209,9.7909,9.7607,9.796,9.813,9.8643,9.9439,9.9931,10.097,10.2527,10.1854,10.1446,10.1901,10.2787,10.3657,10.416,10.486,10.5478,10.5751,10.6157,10.6291,10.6291,10.6291,10.6494,10.6967,10.7509,10.7915,10.8388,10.9471,11.0012,11.0012,11.1099,11.1984,11.267,11.3492,11.4453,5.7656,5.7969,5.8398,6.0117,6.0547,6.0859,6.2148,6.2422,6.2656,6.3515,6.4062,6.4609,6.543,6.6289,6.7148,6.8008,6.8515,6.9623,7.1763,7.2186,7.3599,7.7435,7.9472,8.1255,8.3348,8.6895,8.905,8.9097,9.1579,9.3389,9.4742,9.6051,9.686,9.7623,9.7673,9.7673,9.7623,9.7573,9.7021,9.5916,9.5414,9.456,9.3505,9.3405,9.2802,9.1898,9.1798,9.1195,9.0191,9.0791,9.1131,9.1308,9.2095,9.322,9.4866,9.4918,9.6188,9.7841,9.6921,9.7075,9.8017,9.92,9.9763,10.0188,10.0566,10.0711,10.0603,10.0603,10.0603,10.0543,10.0543,10.0483,10.0483,10.0483,10.0004,9.9526,9.9526,9.9409,9.9286,9.9286,9.9975,10.058,10.058,10.1534,10.2878,10.4447,10.4755,10.4843,10.5234,10.628,10.7012,10.7446,10.8158,10.8578,10.8578,10.9062,10.92,10.92,10.92,10.92,10.9268,10.9268,10.9268,10.9403,11.0756,11.1501,11.1501,11.3346,11.4166,11.4375,11.507,11.5617,5.9453,5.9805,6.0117,6.1523,6.1875,6.2148,6.3125,6.3359,6.3515,6.4023,6.4726,6.5351,6.5547,6.6289,6.7148,6.8008,6.8281,6.9269,7.1723,7.2467,7.4048,7.7944,7.9991,8.187,8.4333,8.7588,8.9755,9.0131,9.2607,9.4634,9.5824,9.7308,9.807,9.8778,9.8778,9.8577,9.8176,9.7774,9.7221,9.6518,9.5966,9.5313,9.466,9.3807,9.3254,9.2953,9.2149,9.1885,9.1955,9.1794,9.2308,9.3242,9.3791,9.4641,9.557,9.6849,9.757,9.8216,9.9506,9.9904,9.9779,10.029,10.0765,10.1218,10.1844,10.1912,10.1979,10.1979,10.162,10.1201,10.1201,10.0842,10.0483,10.0483,10.0364,10.0367,10.0792,10.0612,10.0853,10.1633,10.2604,10.3412,10.3182,10.4407,10.562,10.6026,10.7106,10.7466,10.656,10.6721,10.7302,10.8158,10.8439,10.8718,10.8995,10.9132,10.92,10.92,10.92,10.9403,11.0012,11.0486,11.1095,11.1568,11.2583,11.3199,11.3481,11.403,11.4787,11.5824,11.6374,11.7191,6.0664,6.1289,6.1836,6.293,6.3359,6.3633,6.414,6.4258,6.4258,6.4297,6.4844,6.5351,6.5547,6.6289,6.7148,6.8008,6.8359,6.9426,7.2044,7.2829,7.4538,7.8368,8.0857,8.2882,8.5095,8.8419,9.0742,9.1494,9.3976,9.5725,9.661,9.8155,9.9331,9.9933,9.9933,9.9682,9.9079,9.8326,9.7724,9.7422,9.6669,9.5966,9.5414,9.456,9.3907,9.3355,9.2993,9.2967,9.2648,9.2924,9.3491,9.4324,9.5096,9.5998,9.698,9.8417,9.9134,9.9831,10.1174,10.1883,10.1869,10.2197,10.2344,10.2786,10.3166,10.3296,10.3296,10.2997,10.2638,10.2279,10.1979,10.168,10.1381,10.1381,10.1326,10.1271,10.1637,10.176,10.2299,10.3654,10.4618,10.5362,10.5972,10.6879,10.7674,10.83,10.9225,10.9799,10.9364,10.8923,10.8878,10.9588,10.9661,10.9801,11.0147,11.0486,11.0621,11.0621,11.0959,11.1298,11.1703,11.2109,11.2583,11.2989,11.3876,11.4568,11.471,11.5265,11.6235,11.7199,11.7606,11.8761,6.1719,6.2617,6.3398,6.4258,6.4765,6.5,6.4961,6.4922,6.4844,6.4414,6.4648,6.5078,6.5508,6.625,6.7109,6.8008,6.8476,6.9741,7.2404,7.3232,7.4905,7.8877,8.1765,8.3981,8.5633,8.9297,9.1871,9.2764,9.5234,9.6856,9.7249,9.9052,10.0385,10.0887,10.0887,10.0586,10.0034,9.9029,9.8527,9.8376,9.7322,9.6569,9.6016,9.5363,9.456,9.3606,9.4182,9.3815,9.3138,9.4163,9.4963,9.5182,9.6354,9.7415,9.8617,9.9778,10.0759,10.1887,10.2387,10.3157,10.4028,10.3708,10.3664,10.3857,10.4242,10.4373,10.4313,10.3715,10.3535,10.3416,10.2877,10.2757,10.2698,10.2638,10.2472,10.2421,10.23,10.2788,10.3549,10.5398,10.6015,10.6852,10.8361,10.8841,10.9317,11.0475,11.1088,11.1626,11.2436,11.1655,11.1069,11.1136,11.1563,11.1703,11.1703,11.2312,11.2583,11.2583,11.3192,11.3598,11.3598,11.3733,11.3801,11.3733,11.5043,11.5526,11.5736,11.7193,11.8094,11.8576,11.9248,12.0257,6.3159,6.3984,6.4297,6.5117,6.543,6.5351,6.5,6.4922,6.4844,6.4414,6.4648,6.5078,6.5508,6.5976,6.6758,6.8008,6.8242,6.9387,7.2588,7.3232,7.5027,7.9301,8.1938,8.4069,8.6126,9.0128,9.2623,9.2858,9.625,9.8331,9.838,9.9899,10.0787,10.0887,10.0887,10.0586,10.0034,9.9833,9.928,9.8376,9.7724,9.7121,9.6569,9.5564,9.5012,9.4761,9.4536,9.4512,9.4975,9.5175,9.6147,9.7531,9.7838,9.8893,10.0394,10.1131,10.1989,10.3227,10.4059,10.4855,10.5013,10.4021,10.405,10.4242,10.4433,10.4373,10.4373,10.4313,10.4194,10.4194,10.4074,10.4074,10.3895,10.3416,10.3553,10.3873,10.3638,10.4549,10.5729,10.6665,10.7448,10.819,10.8586,10.9697,11.0475,11.1022,11.1626,11.2436,11.2809,11.2752,11.2762,11.3117,11.326,11.3192,11.3192,11.3327,11.3395,11.3395,11.353,11.3598,11.3598,11.4207,11.4689,11.4976,11.641,11.7378,11.8156,11.9333,12.0164,12.0847,12.1585,12.2496,6.3461,6.456,6.539,6.582,6.6094,6.6094,6.543,6.5273,6.5117,6.4414,6.4492,6.4765,6.5195,6.5586,6.6211,6.7344,6.789,6.9229,7.2044,7.3272,7.5354,7.9428,8.2457,8.486,8.6977,9.0914,9.3516,9.4033,9.7507,9.9462,9.9118,10.0796,10.1691,10.1691,10.149,10.1189,10.0887,10.0285,9.9732,9.918,9.8376,9.7673,9.7171,9.6317,9.5665,9.5062,9.5489,9.5656,9.5282,9.6423,9.763,9.8855,9.938,10.0539,10.1989,10.2655,10.3414,10.436,10.5434,10.6236,10.6575,10.6316,10.5795,10.5391,10.5391,10.5391,10.5391,10.5032,10.4912,10.4852,10.4493,10.4373,10.4313,10.4394,10.5027,10.5834,10.5649,10.6785,10.783,10.7871,10.8985,10.991,11.033,11.1437,11.2213,11.2671,11.3209,11.3871,11.4166,11.4312,11.4121,11.3733,11.3598,11.3598,11.3598,11.4004,11.4207,11.4207,11.4545,11.4883,11.5289,11.5841,11.647,11.709,11.8135,11.8974,11.9539,12.0441,12.1264,12.2067,12.2849,12.3822,6.3361,6.4648,6.596,6.6328,6.6562,6.6523,6.5781,6.5508,6.5234,6.4492,6.4297,6.4414,6.4883,6.5234,6.5781,6.668,6.75,6.9033,7.1723,7.3353,7.5599,7.9598,8.2933,8.5608,8.7829,9.156,9.4268,9.5256,9.8716,10.0814,10.0639,10.206,10.2796,10.2695,10.2293,10.1942,10.1691,10.0686,10.0084,9.9983,9.8879,9.8075,9.7573,9.697,9.6217,9.551,9.6588,9.6754,9.6172,9.7808,9.8836,9.9902,10.0927,10.2079,10.3264,10.4239,10.4994,10.5497,10.6577,10.7385,10.7786,10.8383,10.7665,10.6827,10.6827,10.6707,10.6528,10.5989,10.575,10.551,10.4972,10.4792,10.5044,10.5375,10.6567,10.7426,10.7592,10.8596,10.9453,10.9736,11.0484,11.1631,11.2527,11.3248,11.3734,11.4193,11.4796,11.5175,11.5323,11.5684,11.5425,11.441,11.4207,11.4072,11.4072,11.468,11.5154,11.5154,11.5898,11.6575,11.7331,11.7624,11.8187,11.8945,11.9734,12.0437,12.0856,12.1681,12.2487,12.3342,12.4231,12.5205,6.4036,6.4861,6.5575,6.6719,6.6523,6.6172,6.5703,6.5273,6.4883,6.4414,6.4297,6.4414,6.4883,6.5,6.539,6.668,6.7265,6.8639,7.1643,7.3353,7.5721,8.0064,8.3106,8.574,8.8091,9.2069,9.4786,9.582,9.9587,10.232,10.368,10.3951,10.38,10.3248,10.3197,10.2695,10.1691,10.1088,10.0536,9.9983,9.8879,9.8075,9.7523,9.697,9.6618,9.6757,9.6986,9.765,9.8697,9.8828,9.9973,10.1632,10.2422,10.3124,10.4389,10.5596,10.6228,10.6779,10.7385,10.7786,10.8323,10.8383,10.8263,10.8204,10.8204,10.7785,10.7306,10.7186,10.6767,10.6288,10.6229,10.6229,10.6243,10.66,10.7119,10.7793,10.9108,10.9815,11.0687,11.2326,11.2409,11.2768,11.4107,11.4133,11.4193,11.4945,11.5243,11.5323,11.5684,11.5831,11.6034,11.6507,11.6034,11.5628,11.5628,11.6304,11.671,11.671,11.7387,11.8076,11.8518,11.8586,11.8877,11.9665,12.0709,12.1616,12.2307,12.3817,12.4962,12.5989,12.6364,12.717,6.2867,6.4437,6.5246,6.569,6.6116,6.6055,6.5351,6.5039,6.4844,6.4414,6.4297,6.4375,6.4531,6.4765,6.5195,6.5976,6.6875,6.8521,7.1322,7.3151,7.5991,8.0149,8.315,8.5828,8.8815,9.2577,9.6366,9.9745,10.1663,10.321,10.5106,10.4503,10.4051,10.38,10.3549,10.3097,10.2695,10.1791,10.1088,10.0536,9.9732,9.8929,9.8025,9.7523,9.7172,9.7316,9.7497,9.8063,9.8853,10.0093,10.108,10.2022,10.3808,10.4612,10.5174,10.6653,10.7518,10.79,10.8571,10.9118,10.952,10.952,10.952,10.94,10.8563,10.8204,10.7964,10.7964,10.7785,10.7485,10.7126,10.7097,10.7447,10.8093,10.9029,10.9756,11.0457,11.1385,11.2292,11.2919,11.3748,11.4516,11.5149,11.5727,11.6288,11.6589,11.6738,11.7036,11.7251,11.7184,11.7319,11.759,11.6913,11.671,11.7116,11.7522,11.759,11.759,11.8224,11.8711,11.9266,11.9773,12.0762,12.2154,12.314,12.4184,12.5287,12.6503,12.7494,12.8128,12.8366,12.882,6.1716,6.3205,6.4551,6.5015,6.5188,6.5416,6.5078,6.4844,6.4648,6.4375,6.4297,6.4297,6.4297,6.4531,6.4961,6.5469,6.6562,6.8285,7.1081,7.3031,7.5803,8.0318,8.3323,8.6179,8.9307,9.3408,9.7917,10.2381,10.2903,10.3704,10.5758,10.5055,10.4553,10.4403,10.39,10.3549,10.3348,10.2243,10.144,10.0887,10.0285,9.9431,9.8376,9.7824,9.7777,9.792,9.7906,9.8616,9.9886,10.115,10.2191,10.2968,10.4585,10.5773,10.6231,10.7688,10.8519,10.9077,10.9546,10.9893,11.0298,11.0298,11.0298,11.0119,10.9221,10.8802,10.8682,10.8682,10.8563,10.8263,10.7982,10.8161,10.8384,10.958,11.0448,11.1111,11.1682,11.2953,11.385,11.4067,11.5117,11.6035,11.6192,11.7057,11.7464,11.7682,11.7914,11.8131,11.8131,11.8131,11.8199,11.8402,11.7928,11.7725,11.8131,11.8334,11.8469,11.855,11.905,11.9821,12.0865,12.1448,12.2642,12.4239,12.5088,12.6196,12.7364,12.8417,12.9055,12.9606,12.9828,13.024,6.0598,6.1753,6.2841,6.4381,6.4284,6.4184,6.4715,6.4609,6.4297,6.4297,6.4297,6.4297,6.4297,6.4297,6.4609,6.5469,6.6289,6.8009,7.126,7.3031,7.5925,8.0785,8.3799,8.6663,8.9845,9.4563,9.8828,10.243,10.3248,10.4149,10.5809,10.5809,10.5558,10.5005,10.4453,10.39,10.3348,10.2243,10.144,10.0887,10.0285,9.9431,9.8376,9.7824,9.7978,9.8716,9.8152,9.931,10.166,10.1781,10.3142,10.5316,10.542,10.6491,10.8084,10.8488,10.9077,10.9486,11.0096,11.0298,11.0298,11.0298,11.0298,11.0298,11.0298,10.9879,10.94,10.94,10.8862,10.8581,10.8976,10.902,10.9053,11.0256,11.1005,11.1778,11.2846,11.4067,11.5431,11.6266,11.6559,11.699,11.7705,11.7698,11.7615,11.7914,11.8131,11.8131,11.8131,11.8131,11.8402,11.9078,11.9214,11.8875,11.8199,11.8808,11.9363,11.981,12.049,12.1536,12.3171,12.3675,12.4239,12.5498,12.6549,12.7427,12.8086,12.873,12.9678,13.0714,13.0993,13.1567,5.9414,6.0598,6.193,6.3177,6.3806,6.4146,6.4326,6.4414,6.4297,6.4297,6.4297,6.4297,6.4297,6.4297,6.4609,6.5469,6.6289,6.797,7.126,7.3031,7.5925,8.0785,8.5539,9.008,9.4147,9.6339,9.8971,10.3018,10.3493,10.4149,10.5809,10.5809,10.5708,10.5558,10.4654,10.4051,10.39,10.2796,10.1791,10.0887,10.0686,10.0034,9.8879,9.8483,9.8683,9.9229,9.9237,10.0277,10.1713,10.3151,10.4392,10.5597,10.6822,10.7668,10.8142,10.9017,10.9432,10.9486,11.0096,11.0298,11.0298,11.0298,11.0298,11.0298,11.0298,11.0178,10.9999,10.9999,10.972,10.9638,11.0169,11.0463,11.0932,11.1875,11.2864,11.3758,11.4553,11.5464,11.6521,11.7218,11.792,11.8575,11.8974,11.93,11.9469,11.9619,11.9619,11.9619,11.9619,11.9619,11.9687,11.989,12.0364,12.0431,11.9687,12.0296,12.0854,12.1306,12.2354,12.3278,12.4364,12.4653,12.5712,12.7388,12.8273,12.9149,13.0567,13.145,13.2086,13.2137,13.2592,13.2745,5.7244,5.9093,6.0554,6.1658,6.2722,6.3385,6.3888,6.4054,6.4297,6.4297,6.4297,6.4297,6.4297,6.4297,6.4609,6.5469,6.6539,6.8224,7.13,7.3336,7.6712,8.2544,8.7426,9.196,9.6574,9.7513,9.9304,10.3214,10.3592,10.4149,10.5809,10.5809,10.5809,10.5809,10.4754,10.4151,10.4151,10.3047,10.1992,10.0887,10.0887,10.0285,9.913,9.8838,9.8785,9.9485,9.9778,10.0758,0.0,10.3835,10.5237,10.6664,10.7776,10.8518,10.9476,10.9637,10.9787,11.0251,11.0215,11.0298,11.0298,11.0298,11.0298,11.0298,11.0298,11.0298,11.0298,11.0298,11.0401,11.0697,11.1032,11.1583,11.2241,11.3369,11.4225,11.493,11.6021,11.6925,11.764,11.8564,11.9236,12.0026,12.0338,12.0869,12.0973,12.077,12.0973,12.0973,12.077,12.0973,12.1108,12.1108,12.1514,12.1582,12.1176,12.1667,12.2242,12.2544,12.362,12.4623,12.5413,12.6198,12.7179,12.871,12.9653,13.0652,13.1862,13.2976,13.3516,13.3579,13.4024,13.4023,0.0,5.6964,5.8837,5.994,6.1285,6.2305,6.3078,6.381,0.0,6.4297,6.4297,6.4297,6.4297,6.4336,6.4609,6.5469,6.6829,6.8731,7.126,7.3987,7.8374,8.5567,8.9003,9.2696,9.7089,9.7983,9.992,10.3214,10.3592,10.4149,10.5809,10.5809,10.5809,10.5708,10.4704,10.4151,10.4151,10.3047,10.1992,10.0887,10.0887,10.0285,9.918,9.8787,9.9036,9.9683,9.983,10.0997,10.2897,10.4069,10.5917,10.8183,10.8225,10.9688,11.1496,11.0199,11.0556,11.1196,11.0538,11.0298,11.0298,11.0298,11.0298,11.0298,11.0298,11.0298,11.0298,11.0298,11.0701,11.1301,11.1897,11.2194,11.292,11.4429,11.5032,11.572,11.7123,11.8152,11.8994,11.9985,12.0729,12.1434,12.1907,12.2219,12.2258,12.1582,12.2055,12.2258,12.1582,12.2123,12.2461,12.2461,12.2529,12.2596,12.2529,12.3057,12.3361,12.3813,12.4623,12.5551,12.6607,12.7877,12.871,12.9549,13.1162,13.1933,13.231,13.3454,13.4381,13.5012,13.4939,13.5158,5.2267,0.0,5.7387,5.9329,6.063,6.1476,0.0,6.3528,6.3566,6.4093,6.4297,6.4297,6.4297,6.4609,6.4961,6.5508,6.7104,6.9129,7.13,7.6383,8.1714,8.6531,8.98,9.3259,9.7089,9.8549,10.0437,10.3263,10.3592,10.4149,10.5809,10.5809,10.5608,10.5206,10.4503,10.4151,10.4151,10.3047,10.1992,10.0887,10.0887,10.0545,9.9901,9.9546,9.9786,10.0974,10.1286,10.2188,10.3602,10.5228,10.6829,10.8406,10.9623,11.0743,11.1496,11.1149,11.1118,11.1196,11.0538,11.0298,11.0298,11.0298,11.0298,11.0298,11.0298,11.0298,11.0298,11.0701,11.1301,11.1897,11.294,11.3785,11.4804,11.5863,11.702,11.8017,11.8549,11.9614,12.0582,12.0863,12.1434,12.1907,12.2374,12.2461,12.2393,12.2258,12.2393,12.2393,12.2258,12.2393,12.2461,12.2461,12.3002,12.3496,12.3804,12.3957,12.411,12.4633,12.586,12.7086,12.8296,12.9486,13.0593,13.1873,13.3924,13.5071,13.5383,13.5547,13.5706,13.5817,13.5378,13.5266,5.0388,5.3054,5.6019,5.8195,5.9356,6.08,6.2246,6.2925,6.3566,6.4093,6.4297,6.4297,6.4297,6.4648,6.5156,6.5781,6.775,7.0657,7.4352,7.9,8.3291,8.7205,9.0619,9.3763,9.7089,9.9304,10.1289,10.3263,10.3821,10.4704,10.5758,10.5809,10.5558,10.5005,10.4453,10.4051,10.38,10.2695,10.1691,10.0887,10.0586,10.0293,10.0157,9.9797,10.0284,10.1415,10.2007,10.2897,10.4301,10.5917,10.7508,10.8909,11.012,11.125,11.1909,11.1595,11.1682,11.1615,11.0657,11.0298,11.0298,11.0298,11.0298,11.0298,11.0298,11.0298,11.0298,11.0902,11.15,11.2094,11.3267,11.4421,11.5555,11.667,11.7881,11.9128,11.9783,12.0674,12.1773,12.2186,12.2599,12.3007,12.3476,12.3476,12.3408,12.307,12.3273,12.3408,12.3002,12.3273,12.3476,12.3476,12.3882,12.4309,12.4705,12.5199,12.5506,12.5837,12.7416,12.8635,12.9626,13.109,13.2594,13.4067,13.5311,13.6247,13.6828,13.673,13.6733,13.6917,13.6587,13.6329,4.9179,5.1857,5.4659,5.6543,5.8159,5.9919,6.1456,6.2528,6.3322,6.4054,6.4297,6.4336,6.4375,6.4765,6.5351,6.6172,6.8811,7.2523,7.8286,8.1209,8.4256,8.7926,9.1531,9.4642,9.7183,9.9872,10.219,10.3592,10.4427,10.4931,10.5809,10.5708,10.5407,10.4905,10.4302,10.3699,10.3097,10.2193,10.144,10.0887,10.0285,10.025,10.0412,9.9797,10.0284,10.1713,10.2485,10.3602,10.4997,10.6602,10.8183,10.9517,11.0615,11.1699,11.2653,11.1981,11.1861,11.2094,11.0777,11.0298,11.0298,11.0298,11.0298,11.0298,11.0298,11.0358,11.05,11.1102,11.15,11.2094,11.3461,11.4801,11.6115,11.7037,11.8419,11.9783,12.0755,12.1603,12.2669,12.3485,12.3968,12.422,12.4694,12.4694,12.4491,12.3882,12.4288,12.4491,12.3814,12.4423,12.4897,12.4897,12.4964,12.5346,12.588,12.6888,12.7566,12.7623,12.8977,13.0255,13.1164,13.2887,13.4621,13.6252,13.6445,13.6845,13.772,13.7685,13.7723,13.8017,13.787,13.7356,4.8384,5.0197,5.2332,5.5148,5.7241,5.91,6.1138,6.204,6.2833,6.4054,6.4297,6.4414,6.4765,6.5195,6.5781,6.664,7.0084,7.4211,7.8991,8.1987,8.5088,8.8761,9.2939,9.5822,9.7466,10.0389,10.2752,10.3592,10.4427,10.4931,10.5809,10.5407,10.4854,10.4302,10.375,10.2996,10.1992,10.1791,10.144,10.0887,10.0285,10.0508,10.0973,9.9998,10.0779,10.3229,10.2724,10.4069,10.6146,10.7508,10.9074,11.0615,11.1973,11.2771,11.3288,11.2338,11.2273,11.2094,11.0777,11.0298,11.0298,11.0298,11.0298,11.0298,11.0298,11.05,11.1102,11.1699,11.1897,11.2291,11.4292,11.518,11.6115,11.7583,11.908,12.0239,12.1096,12.2272,12.3485,12.3968,12.4379,12.4536,12.4694,12.4694,12.4694,12.4491,12.4626,12.4694,12.4491,12.5235,12.5709,12.5709,12.6567,12.7221,12.769,12.8595,12.928,12.9949,13.0668,13.201,13.4281,13.5209,13.6403,13.7918,13.8472,13.9059,13.9256,13.8896,13.8825,13.8825,13.809,13.7723,4.7376,4.9518,5.1744,5.4557,5.6403,5.8467,6.0837,6.1851,6.2665,6.4365,6.4648,6.4765,6.5234,6.582,6.7127,6.9707,7.2364,7.564,8.0446,8.3162,8.615,8.961,9.3488,9.6524,9.7842,10.1192,10.3312,10.3592,10.4704,10.5383,10.5407,10.5106,10.4553,10.3699,10.3448,10.2846,10.1691,10.1389,10.0988,10.0385,10.03,10.0258,10.0766,10.0645,10.1608,10.2939,10.3565,10.4766,10.6602,10.8183,10.9517,11.0833,11.213,11.2983,11.3229,11.2605,11.1794,11.1136,11.0538,11.0298,11.0298,11.0298,11.0298,11.0298,11.0298,11.0701,11.1301,11.1638,11.2291,11.3073,11.4612,11.5743,11.679,11.8189,11.9433,12.0755,12.1603,12.2669,12.3647,12.3901,12.4783,12.5303,12.5303,12.5709,12.5912,12.5912,12.5912,12.5912,12.5912,12.6318,12.6521,12.6521,12.7109,12.7786,12.8254,12.9297,13.0626,13.1793,13.2642,13.3958,13.5938,13.6835,13.7796,13.8763,13.9307,13.9769,13.9995,13.9741,13.9632,13.9632,13.9265,13.8898,4.6738,4.9179,5.1499,5.4068,5.5949,5.7979,6.0725,6.1889,6.2817,6.4598,6.5,6.5234,6.5781,6.6758,6.8678,7.2204,7.4037,7.666,8.1548,8.415,8.6981,9.0697,9.4367,9.7134,9.8786,10.1851,10.3592,10.3821,10.4832,10.5407,10.5005,10.4704,10.4202,10.3348,10.3097,10.2544,10.154,10.0988,10.0486,10.0034,10.0204,10.0209,10.0356,10.1287,10.1939,10.2806,10.4107,10.5458,10.6829,10.8463,10.9958,11.1267,11.213,11.2806,11.3083,11.2247,11.1316,11.0298,11.0298,11.0298,11.0298,11.0298,11.0298,11.0298,11.05,11.0962,11.15,11.2094,11.3073,11.4101,11.4991,11.6115,11.7583,11.8661,11.9958,12.1162,12.237,12.3264,12.3982,12.4532,12.555,12.6182,12.6182,12.6588,12.6994,12.6994,12.6994,12.6994,12.6994,12.7197,12.7265,12.7265,12.7879,12.8645,12.9128,13.0441,13.1833,13.3275,13.4383,13.5472,13.69,13.7788,13.8523,13.9307,13.9654,13.9882,14.0219,14.0219,14.0219,14.0219,14.0219,13.9926,4.6494,4.866,5.1008,5.4034,5.5949,5.8051,6.11,6.2305,6.3406,6.4676,6.5234,6.582,6.664,6.8125,7.0095,7.2445,7.4318,7.715,8.2057,8.5183,8.8308,9.204,9.5447,9.8265,10.0197,10.2411,10.3871,10.4704,10.4808,10.5055,10.5005,10.4051,10.3448,10.3348,10.2344,10.154,10.0988,10.0385,10.0034,10.0034,10.0204,10.0209,10.0356,10.1287,10.2183,10.3522,10.4107,10.5917,10.8183,10.8852,11.0396,11.2403,11.2617,11.2484,11.2333,11.1615,11.0897,11.0298,11.0298,11.0298,11.0298,11.0298,11.0298,11.0298,11.0902,11.15,11.2094,11.3134,11.4039,11.4991,11.5493,11.6422,11.7583,11.9016,12.0066,12.1293,12.3301,12.4162,12.5016,12.6564,12.6927,12.6927,12.6927,12.6994,12.6994,12.6994,12.6994,12.6994,12.6994,12.7603,12.8009,12.8009,12.942,13.093,13.238,13.304,13.3833,13.4958,13.5775,13.6438,13.7157,13.7912,13.8523,13.9307,13.9654,13.9882,14.0219,14.0219,14.0219,14.0219,14.0219,14.0219,4.6677,4.8535,5.0782,5.4306,5.6123,5.8123,6.1439,6.2533,6.3711,6.5727,6.6289,6.6797,6.8203,6.9453,7.1119,7.3647,7.5324,7.7966,8.2566,8.5442,8.8484,9.2537,9.5632,9.8407,10.0959,10.2606,10.3723,10.4257,10.4832,10.4704,10.4051,10.3599,10.3047,10.2344,10.1942,10.1289,10.0335,10.0084,9.9941,9.9749,10.0056,10.0711,10.1091,10.1695,10.2566,10.3692,10.5107,10.6602,10.8239,10.9517,11.105,11.2558,11.2991,11.2457,11.1615,11.1375,11.0897,11.0298,11.0298,11.0298,11.0298,11.0298,11.0298,11.0298,11.0902,11.15,11.2094,11.3134,11.4421,11.5555,11.6115,11.722,11.8483,11.9608,12.1148,12.2733,12.3998,12.5055,12.5946,12.6766,12.74,12.7738,12.7738,12.8077,12.8415,12.8415,12.8415,12.8415,12.8415,12.8618,12.8821,12.8821,12.9829,13.1291,13.2737,13.3471,13.4189,13.5167,13.6114,13.6771,13.7356,13.828,13.9,13.9307,13.9769,14.0108,14.0219,14.0219,14.0219,14.0219,14.0219,14.0219,4.6647,4.8685,5.0897,5.4441,5.6297,5.8374,6.204,6.3063,6.417,6.6427,6.7344,6.8125,6.957,7.0547,7.2063,7.477,7.625,7.862,8.3287,8.5832,8.8705,9.2854,9.5771,9.8407,10.0724,10.2508,10.3427,10.3909,10.4108,10.4101,10.3348,10.3047,10.2494,10.1691,10.1389,10.0787,10.0034,9.9682,9.9594,9.9649,9.9797,10.0438,10.1206,10.2297,10.3015,10.4069,10.5688,10.7283,10.8629,11.0177,11.1582,11.2688,11.2875,11.2333,11.1316,11.1076,11.0717,11.0298,11.0298,11.0298,11.0298,11.0298,11.0298,11.0761,11.1102,11.1897,11.2683,11.3716,11.4991,11.6052,11.7037,11.8189,11.9257,12.0392,12.2055,12.3699,12.4995,12.5956,12.6916,12.7671,12.8077,12.8415,12.8415,12.8889,12.9227,12.9227,12.9227,12.9227,12.9227,12.9227,12.9389,12.9551,13.0124,13.1291,13.2737,13.3616,13.426,13.5167,13.6246,13.7101,13.7284,13.8595,13.9307,13.9307,13.9882,14.0219,14.0219,14.0219,14.0219,14.0219,14.0219,14.0219,4.6859,4.8896,5.1384,5.4441,5.6507,5.8841,6.2791,6.3934,6.4857,6.6544,6.8242,6.9765,7.0586,7.1406,7.3008,7.5652,7.6934,7.9232,8.422,8.6567,8.9102,9.2854,9.5771,9.8265,10.043,10.1923,10.3033,10.3859,10.3409,10.3348,10.3348,10.2293,10.1691,10.1691,10.0586,10.0034,9.9983,9.8929,9.9091,10.0408,9.928,9.9457,10.0631,10.2085,10.3199,10.4534,10.5917,10.7452,10.9296,11.0339,11.1504,11.2397,11.2306,11.1854,11.1196,11.0538,11.0298,11.0298,11.0298,11.0298,11.0298,11.0298,11.0761,11.1102,11.1699,11.2683,11.3716,11.4612,11.5743,11.679,11.8304,11.908,11.9738,12.15,12.2555,12.3965,12.6266,12.7031,12.7792,12.9092,12.9227,12.9227,12.9227,12.9227,12.9227,12.9227,12.9227,12.9227,12.9227,12.9227,12.9483,13.0509,13.0509,13.1291,13.2737,13.3616,13.426,13.5167,13.651,13.7284,13.7284,13.8595,13.9307,13.9307,13.9882,14.0219,14.0219,14.0219,14.0219,14.0219,14.0219,14.0219,4.6798,4.8707,5.1057,5.4373,5.6507,5.8949,6.3205,6.4313,6.5506,6.814,6.9805,7.0976,7.1523,7.2578,7.4149,7.6213,7.7658,7.9967,8.4305,8.5998,8.8533,9.2854,9.5164,9.7136,9.99,10.1387,10.2342,10.2766,10.2959,10.3047,10.2193,10.1892,10.1339,10.0536,10.0184,9.9632,9.8879,9.8527,9.8737,9.9229,9.8921,9.9897,10.2085,10.2432,10.353,10.5283,10.6829,10.8183,10.9239,11.0743,11.1471,11.1649,11.1675,11.1196,11.0597,11.0418,11.0298,11.0298,11.0298,11.0298,11.0298,11.0298,11.0761,11.1102,11.1699,11.2683,11.3908,11.518,11.6238,11.7338,11.8839,11.9718,12.078,12.2357,12.3965,12.5463,12.6896,12.7994,12.8794,12.9159,12.9227,12.9227,12.9227,12.9227,12.9227,12.9227,12.9227,12.9227,12.9227,12.9227,12.9483,13.0509,13.0509,13.1291,13.2737,13.3325,13.4046,13.5167,13.6246,13.7101,13.7284,13.8595,13.9307,13.9307,13.9882,14.0219,14.0219,14.0219,14.0219,14.0219,14.0219,14.0219,4.704,4.8917,5.1407,5.4585,5.6611,5.9308,6.4182,6.604,6.7362,6.9852,7.1094,7.1836,7.2617,7.3555,7.4936,7.6694,7.8017,8.0251,8.403,8.597,8.8335,9.2058,9.4321,9.6293,9.8305,10.0526,10.18,10.1727,10.236,10.2444,10.1691,10.1289,10.0686,10.0034,9.9582,9.9029,9.8376,9.7924,9.8129,9.8716,9.8511,9.9638,10.2246,10.2586,10.389,10.5973,10.7956,10.9335,11.0209,11.1285,11.1447,11.1316,11.1316,11.0897,11.0298,11.0298,11.0298,11.0298,11.0298,11.0298,11.0298,11.0298,11.0701,11.15,11.1897,11.2878,11.423,11.5305,11.6607,11.8125,11.9433,12.0608,12.2094,12.3262,12.4698,12.6128,12.7397,12.8563,12.9227,12.9227,12.9227,12.9227,12.9227,12.9227,12.9227,12.9227,12.9227,12.9227,12.9227,12.9227,12.9551,13.0124,13.0351,13.1067,13.2588,13.3179,13.4046,13.5167,13.6246,13.6972,13.7284,13.8595,13.9307,13.9307,13.9882,14.0219,14.0219,14.0219,14.0219,14.0219,14.0219,14.0219,4.704,4.9158,5.1714,5.4619,5.7139,6.0316,6.5572,6.817,7.0039,7.164,7.2109,7.2578,7.3789,7.4414,7.5244,7.6884,7.8332,8.0617,8.3832,8.578,8.8267,9.1128,9.3854,9.5778,9.6713,9.9345,10.0986,10.0986,10.1394,10.159,10.154,10.0586,9.9933,9.9833,9.8879,9.8276,9.8226,9.7221,9.7421,9.8665,9.8296,9.9258,10.1607,10.2371,10.4192,10.6606,10.8714,11.0432,11.1378,11.1417,11.1384,11.1196,11.1196,11.0837,11.0298,11.0298,11.0298,11.0298,11.0298,11.0298,11.0298,11.0358,11.1102,11.1897,11.2094,11.3461,11.518,11.5743,11.7156,11.8839,11.9893,12.1556,12.3298,12.4262,12.5198,12.6329,12.8234,12.8833,12.9227,12.9227,12.9227,12.9227,12.9227,12.9227,12.9227,12.9227,12.9227,12.9227,12.9227,12.9227,12.9389,12.9873,13.0124,13.098,13.2138,13.3032,13.3903,13.5029,13.6185,13.69,13.7356,13.8595,13.9307,13.9307,13.9882,14.0219,14.0219,14.0219,14.0219,14.0219,14.0219,14.0219,4.704,4.9348,5.2288,5.4653,5.8951,6.3526,6.6474,6.8826,7.0594,7.1836,7.2812,7.375,7.4375,7.5078,7.6067,7.7439,7.8571,8.0369,8.3007,8.495,8.7059,9.0227,9.264,9.4705,9.6102,9.8474,9.9855,9.9855,10.0596,10.0887,10.0435,10.0134,9.9582,9.8778,9.8527,9.7924,9.7071,9.7373,9.7767,9.805,9.8409,9.9594,10.1021,10.2196,10.4236,10.715,10.8561,10.9498,11.0022,11.0527,11.0523,11.0538,11.0538,11.0418,11.0298,11.0298,11.0298,11.0298,11.0298,11.0298,11.0358,11.0701,11.1301,11.2094,11.2878,11.4039,11.5242,11.6422,11.7764,11.908,12.0239,12.1567,12.2869,12.4865,12.6262,12.7427,12.8861,12.9159,12.9227,12.9227,12.9227,12.9227,12.9227,12.9227,12.9227,12.9227,12.9227,12.9227,12.9227,12.9227,12.9389,12.9873,13.0124,13.098,13.1752,13.2588,13.3471,13.4612,13.5641,13.6569,13.7356,13.8595,13.9307,13.9307,13.9882,14.0219,14.0219,14.0219,14.0219,14.0219,14.0219,14.0219,4.6798,4.9138,5.2278,5.6323,6.0566,6.4529,6.704,6.9285,7.129,7.2265,7.3515,7.4414,7.4805,7.5586,7.625,7.7022,7.8771,8.0531,8.2139,8.4163,8.6428,8.9234,9.1306,9.3268,9.4933,9.6887,9.8315,9.9167,9.9735,9.9924,9.9682,9.9381,9.8828,9.8025,9.7724,9.7322,9.6719,9.6915,9.7004,9.7486,9.8081,9.9569,10.1404,10.3055,10.5039,10.7189,10.8627,10.9335,10.961,11.014,11.0454,11.0298,11.0298,11.0119,10.9879,10.9879,10.97,10.94,10.94,10.94,10.94,11.036,11.1016,11.1668,11.3012,11.4483,11.5555,11.679,11.824,11.9608,12.0649,12.2036,12.3664,12.4959,12.5956,12.732,12.8794,12.9227,12.9227,12.9227,12.9227,12.9227,12.9227,12.9227,12.9227,12.9227,12.9227,12.9227,12.9227,12.9227,12.9389,12.9551,13.0124,13.0755,13.1445,13.2289,13.3325,13.4401,13.5641,13.6438,13.7356,13.8595,13.9307,13.9307,13.9882,14.0219,14.0219,14.0219,14.0219,14.0219,14.0219,14.0219,4.6768,4.936,5.2776,5.8224,6.1759,6.4485,6.7113,6.9743,7.1594,7.2926,7.4062,7.4844,7.5273,7.5976,7.6523,7.6601,7.8681,8.0363,8.0983,8.3623,8.6213,8.8528,9.026,9.1931,9.4136,9.5723,9.6975,9.8577,9.8514,9.8753,9.9079,9.8527,9.8025,9.7422,9.697,9.6619,9.6468,9.6257,9.6435,9.6871,9.7988,9.9476,10.1912,10.4201,10.5753,10.7063,10.868,10.9492,10.9699,11.0132,11.0238,11.0119,11.0119,10.9819,10.9221,10.9221,10.8862,10.8383,10.8383,10.8383,10.8641,10.9775,11.0351,11.106,11.2899,11.4425,11.574,11.6973,11.8661,12.0239,12.0821,12.2569,12.4423,12.472,12.5515,12.6646,12.8523,12.9092,12.9227,12.9227,12.9227,12.9227,12.9227,12.9227,12.9227,12.9227,12.9227,12.9227,12.9227,12.9227,12.9227,12.9227,13.0033,13.0598,13.098,13.2138,13.3325,13.4401,13.5577,13.6438,13.7356,13.8595,13.9307,13.9307,13.9882,14.0219,14.0219,14.0219,14.0219,14.0219,14.0219,14.0219,4.6768,5.0762,5.5107,5.8342,6.1017,6.3367,6.6236,6.87,7.0422,7.2017,7.3696,7.5273,7.5703,7.6172,7.6601,7.7031,7.8641,7.971,8.0403,8.3085,8.5585,8.7679,8.9699,9.1931,9.4136,9.5341,9.6443,9.7987,9.7624,9.7806,9.8477,9.8025,9.7422,9.687,9.6769,9.6267,9.5313,9.6343,9.6768,9.6256,9.8775,10.0725,10.2587,10.396,10.4885,10.5803,10.7804,10.8843,10.8843,10.9953,10.9999,10.952,10.952,10.9101,10.8503,10.8503,10.8443,10.8383,10.8383,10.8383,10.8581,10.9625,11.0075,11.0524,11.3115,11.4305,11.5359,11.7211,11.908,12.0305,12.1096,12.257,12.3982,12.491,12.5433,12.6453,12.7941,12.8686,12.9227,12.9227,12.9227,12.9227,12.9227,12.9227,12.9227,12.9227,12.9227,12.9227,12.9227,12.9227,12.9227,12.9227,13.0033,13.0441,13.0667,13.1987,13.3109,13.3976,13.537,13.6438,13.7356,13.8595,13.9307,13.9307,13.9882,14.0219,14.0219,14.0219,14.0219,14.0219,14.0219,14.0219,4.7407,5.0963,5.4654,5.7673,6.0341,6.2793,6.5774,6.8081,7.0308,7.1739,7.3579,7.5078,7.5742,7.6445,7.6953,7.7148,7.8641,7.9549,7.975,8.2341,8.4985,8.6568,8.8572,9.0787,9.3245,9.3631,9.4633,9.6742,9.6575,9.6704,9.7472,9.7221,9.6719,9.5815,9.5815,9.5661,9.5101,9.5721,9.6514,9.7311,9.9273,10.0701,10.2195,10.3378,10.4658,10.5849,10.7311,10.8163,10.8012,10.882,10.9101,10.8802,10.8802,10.8383,10.7785,10.7785,10.7605,10.7306,10.7306,10.7306,10.7502,10.8838,10.9347,10.9854,11.2621,11.4176,11.5474,11.7305,11.9044,12.0755,12.1603,12.2602,12.3714,12.4304,12.5256,12.6115,12.6724,12.7806,12.8686,12.9092,12.9227,12.9227,12.9227,12.9227,12.9227,12.9227,12.9227,12.9227,12.9227,12.9227,12.9227,12.9227,13.0033,13.0667,13.0755,13.2138,13.3325,13.433,13.5506,13.6438,13.7356,13.8595,13.9307,13.9307,13.9882,14.0219,14.0219,14.0219,14.0219,14.0219,14.0219,14.0219,4.7681,5.0624,5.3354,5.6763,5.9294,6.2069,6.4968,6.7462,6.9605,7.1308,7.3105,7.4522,7.5469,7.6328,7.7031,7.7031,7.8272,7.9509,7.9509,8.205,8.4557,8.6002,8.7583,8.9419,9.2401,9.22,9.3195,9.581,9.5578,9.5548,9.6518,9.6418,9.5866,9.4911,9.4861,9.4856,9.5032,9.5231,9.6267,9.7999,9.9097,10.0432,10.2017,10.3011,10.4486,10.5963,10.6961,10.7395,10.7526,10.8184,10.8263,10.8084,10.8084,10.7725,10.7126,10.7126,10.6827,10.6408,10.6408,10.6408,10.6663,10.8112,10.8618,10.9184,11.1938,11.3796,11.5332,11.7149,11.9004,12.0899,12.2105,12.2997,12.3647,12.4061,12.4851,12.5709,12.6115,12.6994,12.8009,12.8483,12.8821,12.8889,12.8889,12.9092,12.9227,12.9227,12.9227,12.9227,12.9227,12.9227,12.9159,12.9322,12.9965,13.0667,13.1222,13.2358,13.3325,13.4401,13.5641,13.6438,13.7356,13.8595,13.9307,13.9307,13.9882,14.0219,14.0219,14.0219,14.0219,14.0219,14.0219,14.0219,4.655,4.9469,5.2527,5.5138,5.7574,6.0389,6.4086,6.6187,6.7818,7.0058,7.2275,7.3762,7.4648,7.5703,7.6562,7.6562,7.8323,7.9509,7.9509,8.205,8.4557,8.5959,8.7272,8.892,9.1886,9.1636,9.236,9.5271,9.4988,9.5004,9.5966,9.5414,9.4911,9.4309,9.4309,9.4252,9.4474,9.52,9.6219,9.7391,9.8505,10.0262,10.2686,10.3264,10.4382,10.5694,10.6544,10.6982,10.7526,10.8184,10.7964,10.7485,10.7485,10.7007,10.6468,10.6468,10.6408,10.6408,10.6408,10.6408,10.6603,10.7568,10.8011,10.8513,11.1193,11.2728,11.4127,11.6828,11.8614,12.0242,12.2238,12.3094,12.3647,12.4536,12.4694,12.5167,12.6588,12.6994,12.7062,12.7062,12.7671,12.8212,12.8212,12.8686,12.9227,12.9227,12.9227,12.9227,12.9227,12.9227,12.9322,12.9645,13.0124,13.0755,13.153,13.2439,13.3325,13.4401,13.5641,13.6438,13.7356,13.8595,13.9307,13.9307,13.9882,14.0219,14.0219,14.0219,14.0219,14.0219,14.0219,14.0219,4.5754,4.8383,5.1162,5.3169,5.642,5.9709,6.2064,6.4753,6.7411,6.9605,7.1193,7.268,7.4101,7.5234,7.6094,7.6094,7.7686,7.8664,7.8664,8.1219,8.37,8.5044,8.6562,8.8376,9.1323,9.1165,9.1837,9.4683,9.4103,9.4016,9.5363,9.4811,9.4309,9.3706,9.3839,9.3901,9.4397,9.5602,9.6652,9.7838,9.9167,10.046,10.2006,10.2862,10.3953,10.5187,10.5822,10.6278,10.687,10.7066,10.7007,10.6767,10.6767,10.6588,10.6408,10.6408,10.6408,10.6408,10.6408,10.6408,10.6603,10.7568,10.7889,10.8331,11.0634,11.2288,11.381,11.6086,11.8071,12.0045,12.1967,12.2922,12.3647,12.4536,12.4694,12.4897,12.537,12.5912,12.6385,12.6927,12.7197,12.7535,12.8009,12.8347,12.8686,12.9092,12.9227,12.9227,12.9227,12.9227,12.9389,12.9873,13.0124,13.0911,13.1987,13.2885,13.376,13.4891,13.598,13.6771,13.7356,13.8595,13.9307,13.9307,13.9882,14.0219,14.0219,14.0219,14.0219,14.0219,14.0219,14.0219,4.4454,4.7028,4.9246,5.1791,5.4982,5.7979,6.0573,6.3168,6.5967,6.8107,6.9881,7.1555,7.2688,7.3977,7.5156,7.5586,7.7208,7.8181,7.8181,8.0721,8.3186,8.4522,8.6074,8.7831,9.0807,9.0413,9.1076,9.3849,9.3267,9.3176,9.451,9.3957,9.3304,9.2842,9.3155,9.3723,9.4305,9.5721,9.6961,9.7852,9.9155,10.037,10.1251,10.2444,10.3308,10.4185,10.4716,10.56,10.6408,10.6169,10.6109,10.6049,10.581,10.569,10.569,10.569,10.569,10.569,10.569,10.5929,10.6243,10.7205,10.7707,10.827,11.0386,11.1912,11.343,11.555,11.7526,11.9555,12.1463,12.2708,12.3792,12.4199,12.4491,12.4694,12.4694,12.51,12.5641,12.6115,12.6385,12.6791,12.7332,12.7806,12.828,12.8821,12.9024,12.9227,12.9227,12.9322,12.9551,13.0033,13.0667,13.1376,13.2439,13.3179,13.4189,13.5304,13.6318,13.7101,13.7537,13.8643,13.9234,13.9351,13.9922,14.0219,14.0219,14.0219,14.0219,14.0219,14.0219,14.0146,0.0,0.0,0.0,5.0453,5.3098,5.5799,5.9397,6.1631,6.378,6.5931,6.8107,7.0041,7.094,7.2145,7.3672,7.4922,7.697,7.8101,7.8101,8.0637,8.3143,8.4435,8.5719,8.7332,9.0198,8.9567,8.9982,9.2721,9.248,9.2484,9.3405,9.2802,9.2288,9.1887,9.2538,9.2978,9.373,9.5533,9.6761,9.7251,9.8963,10.0154,10.0618,10.178,10.249,10.2829,10.3412,10.4765,10.6288,10.563,10.5391,10.5331,10.4673,10.4373,10.4373,10.4373,10.4373,10.4373,10.4373,10.4792,10.5583,10.6479,10.7343,10.8209,11.0324,11.1598,11.2796,11.5357,11.6874,11.8239,12.0596,12.2445,12.3611,12.3611,12.4085,12.4626,12.4694,12.4694,12.4694,12.4694,12.5303,12.5912,12.5912,12.713,12.8009,12.8144,12.8686,12.9227,12.9227,12.9551,13.0033,13.0441,13.1222,13.1987,13.2885,13.3616,13.4401,13.5641,13.6378,13.7356,13.8353,13.8882,13.9351,13.9696,14.0034,14.0219,14.0219,14.0219,14.0219,14.0219,14.0219,14.0441,4.2584,0.0,0.0,0.0,0.0,0.0,5.785,6.0538,6.2827,6.5237,6.7249,6.9357,7.0824,7.1641,7.2695,7.3672,7.5616,7.6692,7.6692,7.9474,8.203,8.2998,8.4476,8.6107,8.8651,8.8626,8.9459,9.2182,9.1645,9.1544,9.2802,9.1898,9.1517,9.2026,9.1975,9.2611,9.3865,9.4748,9.5732,9.7262,9.8516,9.99,10.1144,10.214,10.3065,10.3412,10.405,10.4421,10.4912,10.4792,10.4673,10.4673,10.4493,10.4373,10.4373,10.4373,10.4373,10.4373,10.4373,10.4493,10.4864,10.5813,10.6614,10.7599,10.9641,11.1221,11.2669,11.4776,11.6483,11.8239,12.0596,12.2041,12.2799,12.2799,12.3002,12.3273,12.3814,12.3882,12.4085,12.4626,12.4897,12.5235,12.5776,12.625,12.6927,12.7941,12.828,12.8618,12.9092,12.9551,13.0033,13.0441,13.1222,13.2069,13.3179,13.4046,13.4891,13.598,13.6842,13.7537,13.8353,13.8882,13.9351,13.9696,14.0034,14.0219,14.0219,14.0219,14.0219,14.0219,14.0367,14.0728,0.0,0.0,0.0,4.8943,0.0,0.0,5.659,5.942,6.1853,6.3815,6.5969,6.7983,6.9437,7.0556,7.137,7.2148,7.3672,7.497,7.5807,7.856,8.1044,8.186,8.3456,8.5427,8.7482,8.7573,8.8603,9.1348,9.0612,9.0309,9.1597,9.0929,9.0872,9.1284,9.1484,9.2147,9.3455,9.4543,9.5614,9.718,9.8627,9.9735,10.0905,10.2086,10.2492,10.2773,10.3405,10.3595,10.3595,10.3595,10.3775,10.4014,10.3715,10.3595,10.3595,10.3595,10.3595,10.3595,10.3595,10.3775,10.4144,10.5148,10.5947,10.6929,10.9268,11.0844,11.2289,11.4347,11.6361,11.83,11.9888,12.1166,12.1988,12.1988,12.2258,12.2596,12.3002,12.3138,12.3476,12.4491,12.4694,12.4829,12.5303,12.5709,12.6182,12.713,12.7738,12.828,12.8847,12.9601,13.0283,13.0911,13.1683,13.2588,13.3616,13.4541,13.5441,13.6378,13.7212,13.8035,13.8716,13.919,13.9581,13.9922,14.0034,14.0219,14.0219,14.0219,14.033,14.0441,14.0875,14.1225,0.0,0.0,0.0,4.8538,5.0669,0.0,5.5636,5.8311,6.0376,6.1909,6.4276,6.6546,6.7797,6.875,6.99,7.0475,7.1591,7.3109,7.5123,7.7771,7.9653,8.0634,8.2485,8.4577,8.6597,8.6523,8.7462,8.9976,8.9432,8.931,8.999,9.0083,9.0035,9.0208,9.0816,9.1662,9.2869,9.4593,9.6022,9.7221,9.8662,9.9793,10.0405,10.1439,10.1857,10.1704,10.233,10.2518,10.2518,10.2518,10.2817,10.3236,10.2698,10.2518,10.2518,10.2518,10.2518,10.2518,10.2518,10.2877,10.3545,10.4482,10.5218,10.632,10.8958,11.0404,11.1591,11.3918,11.6365,11.837,11.8842,12.0157,12.1243,12.1311,12.1785,12.2258,12.2393,12.2393,12.2799,12.422,12.4491,12.4626,12.4694,12.5303,12.5776,12.5912,12.6994,12.8102,12.8649,12.9647,13.0687,13.153,13.2439,13.3325,13.4046,13.5096,13.6114,13.6771,13.786,13.8595,13.9307,13.9654,13.9882,14.0219,14.0219,14.0146,14.0146,14.0146,14.0441,14.0768,14.1299,14.1638,0.0,0.0,4.4427,4.6709,4.9124,0.0,5.4135,5.6654,5.8837,6.1132,6.3394,6.5605,6.7078,6.833,6.9514,7.0397,7.1355,7.2393,7.3795,7.5808,7.7489,7.895,8.0468,8.2138,8.3805,8.4779,8.6169,8.759,8.8112,8.8454,8.8835,8.869,8.9069,8.9593,9.0608,9.1452,9.2283,9.3941,9.5404,9.6345,9.756,9.9096,10.0735,10.1119,10.1633,10.227,10.2518,10.2518,10.2518,10.2518,10.2578,10.2698,10.2518,10.2518,10.2518,10.2518,10.2518,10.2518,10.2518,10.2578,10.2825,10.3756,10.455,10.5528,10.7654,10.9274,11.1068,11.4327,11.6463,11.8119,11.8842,11.9444,12.0041,12.0499,12.0567,12.0905,12.1514,12.1582,12.192,12.2799,12.3408,12.4017,12.4626,12.4829,12.5167,12.5776,12.6115,12.6883,12.8513,12.917,13.007,13.1461,13.2737,13.376,13.4471,13.5577,13.6378,13.7229,13.7912,13.8595,13.9307,13.9654,13.9882,14.0219,14.0219,14.0257,14.0477,14.0477,14.0768,14.0909,14.1536,14.2139,4.0555,4.2238,4.42,4.6049,4.8224,0.0,0.0,5.5568,5.7903,6.0638,6.2254,6.4149,6.6097,6.7191,6.8252,6.947,7.0117,7.095,7.2204,7.4434,7.6344,7.7658,7.9209,8.0525,8.2093,8.3307,8.4356,8.5758,8.6925,8.7642,8.7573,8.7984,8.8357,8.8978,9.005,9.1099,9.1643,9.3229,9.4615,9.5706,9.6424,9.8194,10.047,10.047,10.1218,10.2518,10.2518,10.2518,10.2518,10.2518,10.2518,10.2518,10.2518,10.2518,10.2518,10.2518,10.2518,10.2518,10.2518,10.2518,10.2705,10.3575,10.4125,10.4858,10.7157,10.9374,11.1331,11.3843,11.5708,11.7043,11.8151,11.9108,11.9839,12.0144,12.0296,12.0364,12.077,12.0905,12.1108,12.1785,12.219,12.2867,12.4017,12.4491,12.4829,12.5235,12.5799,12.6589,12.7807,12.8615,12.9793,13.0962,13.1993,13.3064,13.3827,13.477,13.5753,13.6437,13.717,13.7835,13.8297,13.8637,13.8861,13.8971,13.9412,13.9669,13.9997,14.0473,14.0982,14.1299,14.174,14.2335,4.0583,4.2127,4.3671,4.5509,4.7895,5.0268,0.0,0.0,0.0,5.973,6.123,6.2814,6.4785,6.5985,6.6961,6.8093,6.8656,6.9702,7.1001,7.2905,7.4697,7.6332,7.7573,7.888,8.0281,8.1463,8.2749,8.4351,8.545,8.599,8.6218,8.685,8.7441,8.8106,8.9391,9.0205,9.0844,9.2457,9.408,9.5031,9.5572,9.7385,9.9822,9.9822,10.0684,10.2099,10.2099,10.2159,10.2279,10.2279,10.2398,10.2518,10.2518,10.2518,10.2518,10.2518,10.2518,10.2518,10.2518,10.2518,10.2646,10.3575,10.3943,10.4796,10.7025,10.947,11.1821,11.3028,11.4596,11.5929,11.7417,11.8638,11.9483,11.9942,12.0161,12.0296,12.0296,12.0296,12.0499,12.1108,12.1311,12.192,12.3341,12.4085,12.4491,12.4694,12.5549,12.6493,12.7025,12.8335,12.9567,13.0588,13.1306,13.2285,13.3366,13.415,13.4911,13.577,13.6481,13.6942,13.7354,13.7614,13.7797,13.7797,13.8384,13.9044,13.9515,14.0318,14.1077,14.161,14.2041,14.2624,3.9947,4.1614,4.3396,4.398,4.6784,4.9706,5.1121,0.0,5.612,5.805,0.0,6.1849,6.3489,0.0,0.0,6.7246,6.7803,6.8578,6.935,7.0159,7.1639,7.3835,7.5011,7.6,7.6699,7.9135,8.1244,8.3258,8.3441,8.3856,8.4578,8.5139,8.5661,8.6364,8.798,8.9041,8.9672,9.1844,9.3413,9.4413,9.5345,9.6961,9.9114,9.9114,9.9735,10.0723,10.0723,10.1082,10.1561,10.1561,10.1979,10.2518,10.2518,10.2518,10.2518,10.2518,10.2518,10.2518,10.2518,10.2518,10.2705,10.3019,10.4431,10.6111,10.723,10.8947,11.105,11.2313,11.3552,11.4883,11.646,11.7525,11.8437,11.9131,11.9755,12.0296,12.0296,12.0296,12.0296,12.0364,12.0973,12.192,12.3341,12.3679,12.395,12.4626,12.5142,12.588,12.7025,12.7923,12.9093,13.0951,13.1729,13.2695,13.3832,13.4478,13.5088,13.5963,13.6481,13.6942,13.7354,13.7614,13.7797,13.7797,13.787,13.8564,13.9833,13.9907,14.0663,14.1841,14.2335,14.2924,4.0,4.1642,4.334,4.3452,4.6107,4.9046,5.0368,5.2624,5.5204,5.7415,0.0,0.0,0.0,0.0,0.0,0.0,6.7093,6.7906,6.9152,6.9209,7.0186,7.2703,7.3626,7.4738,7.6376,7.777,7.9186,8.1033,8.1513,8.2173,8.3116,8.3756,8.4753,8.6056,8.7131,8.8195,8.9459,9.0944,9.2401,9.3795,9.4437,9.5979,9.8033,9.822,9.9016,10.0114,10.0299,10.0663,10.0902,10.1261,10.168,10.1979,10.2339,10.2518,10.2518,10.2518,10.2518,10.2518,10.2518,10.2518,10.2646,10.339,10.4674,10.5933,10.6755,10.816,10.9777,11.0944,11.2444,11.4,11.5351,11.6569,11.7411,11.8455,11.9078,11.9687,11.9687,11.9958,12.0296,12.0296,12.0499,12.1108,12.2123,12.3002,12.3747,12.4017,12.5045,12.5915,12.641,12.7465,12.8774,12.9765,13.0671,13.1751,13.2791,13.3296,13.4034,13.4983,13.574,13.6074,13.6184,13.6293,13.6402,13.6402,13.6916,13.7533,13.843,13.9316,14.0322,14.159,14.2304,14.2999,4.0241,4.1833,4.3177,4.3424,4.5741,4.8104,4.9713,5.1731,5.407,5.6269,5.8154,0.0,0.0,0.0,6.423,6.5418,0.0,6.7004,6.8029,6.8303,6.9277,7.1491,7.2621,7.3602,7.5642,7.6074,7.7101,7.8518,7.9364,8.0337,8.1395,8.2054,8.3412,8.5134,8.5773,8.6882,8.8713,8.9925,9.1371,9.2924,9.3642,9.5039,9.6825,9.7387,9.818,9.9209,9.9761,10.0064,10.0304,10.0782,10.1082,10.1261,10.1979,10.2219,10.2219,10.2398,10.2518,10.2518,10.2518,10.2518,10.2705,10.3575,10.4492,10.5396,10.6465,10.7799,10.8993,10.9997,11.1534,11.3211,11.431,11.568,11.6673,11.7427,11.8402,11.9011,11.9214,11.9619,12.0093,12.0296,12.0296,12.0499,12.0973,12.219,12.3138,12.3544,12.4859,12.5795,12.6,12.7278,12.8433,12.8996,12.9958,13.1091,13.2042,13.2538,13.3454,13.4533,13.5049,13.5374,13.5374,13.5374,13.5374,13.5374,13.5961,13.665,13.7395,13.8577,13.9858,14.1129,14.2101,14.3016,4.0802,4.1804,4.3013,4.3732,4.524,4.7331,4.8894,5.1033,5.2944,5.4584,5.6492,5.8154,5.9825,6.1474,6.2607,0.0,6.5098,0.0,0.0,6.7127,6.8545,7.0496,7.1534,7.252,7.3438,7.4109,7.4903,7.5585,7.6938,7.7896,7.8544,7.9616,8.1102,8.2776,8.3397,8.4687,8.6901,8.846,9.0124,9.1719,9.3278,9.4562,9.5564,9.6496,9.7294,9.7843,9.8387,9.8927,9.9526,9.9586,9.9945,10.0603,10.1261,10.1501,10.1561,10.2279,10.2518,10.2518,10.2518,10.2518,10.2705,10.3575,10.4248,10.4975,10.6465,10.7799,10.8993,10.9997,11.1209,11.2331,11.3271,11.4573,11.5869,11.6387,11.7292,11.8334,11.9011,11.9214,11.9417,12.0161,12.0296,12.0296,12.0296,12.0973,12.1988,12.3408,12.4451,12.518,12.5863,12.7278,12.8575,12.9274,13.029,13.1408,13.2487,13.3144,13.385,13.4756,13.5158,13.5374,13.5374,13.5374,13.5374,13.5374,13.5374,13.6135,13.7395,13.7469,13.8448,14.0308,14.1876,14.3107,4.1149,4.1994,4.2791,4.304,4.4908,4.6806,4.7656,4.9757,5.211,5.3265,5.552,5.7518,5.8376,5.9984,0.0,0.0,0.0,6.401,0.0,6.6304,6.7219,6.7513,6.8983,7.0496,7.1728,7.2009,7.2903,7.4575,7.5364,7.6495,7.7799,7.909,8.0156,8.1631,8.2466,8.3758,8.5602,8.7012,8.8511,9.0493,9.1458,9.2829,9.4551,9.5111,9.5901,9.6866,9.7601,9.8084,9.8504,9.9164,9.9645,9.9885,10.0603,10.1082,10.1561,10.2279,10.2518,10.2518,10.2518,10.2518,10.2705,10.3575,10.3943,10.4492,10.6288,10.7279,10.8143,10.933,11.0655,11.1947,11.2803,11.4021,11.5131,11.543,11.6483,11.7387,11.759,11.8469,11.9281,11.9484,11.9958,12.0296,12.0296,12.0499,12.1125,12.2361,12.3444,12.4578,12.586,12.6953,12.8157,12.9616,13.0494,13.1408,13.2487,13.3572,13.4381,13.4939,13.5266,13.5374,13.5374,13.5374,13.5374,13.5374,13.5374,13.5735,13.6272,13.707,13.8052,13.9129,14.0363,14.1832,4.1025,4.2041,4.2867,4.3092,4.4374,4.6185,4.7068,4.8959,5.0926,5.2332,5.4197,5.5832,5.6972,5.8319,0.0,0.0,0.0,0.0,0.0,6.5221,6.5687,6.5742,6.7357,6.8828,6.9547,7.0344,7.1105,7.2456,7.3335,7.451,7.6049,7.7474,7.8841,8.0097,8.1337,8.2778,8.4616,8.5823,8.7321,8.9106,9.0265,9.1445,9.279,9.3857,9.4762,9.5774,9.6697,9.7364,9.7601,9.8258,9.862,9.8679,9.9334,9.9995,10.0717,10.174,10.2279,10.2518,10.2518,10.2518,10.2646,10.339,10.3759,10.4126,10.5693,10.6993,10.7626,10.8993,11.0327,11.1693,11.2489,11.3581,11.4646,11.4878,11.5727,11.6575,11.6845,11.7725,11.8537,11.9078,11.9552,11.9958,12.0296,12.0296,12.0718,12.185,12.2694,12.3906,12.5329,12.6476,12.7598,12.9329,13.0463,13.163,13.3144,13.3965,13.4718,13.5049,13.5266,13.5374,13.5374,13.5374,13.5374,13.5374,13.5374,13.5481,13.5799,13.6627,13.7358,13.8214,13.9318,14.0632]}]]